[[{"header":{"parameterUnit":"m.s-1","parameterCategory":1,"la1":30.6,"la2":29.2853,"lo1":-89.7004,"lo2":-87.6739,"dy":0.0162,"dx":0.0183,"nx":112,"ny":82,"refTime":"2023-05-10T12:00:00:Z","depth":0,"parameterNumber":2,"parameterNumberName":"U-component_of_WINDS"},"data":[0.0,0.0,0.0,0.0,0.0,0.0,0.0,0.0,0.0,0.0,0.0,0.0,0.0,0.0,0.0,0.0,0.0,0.0,0.0,0.0,0.0,0.0,0.0,0.0,0.0,0.0,0.0,0.0,0.0,0.0,0.0,0.0,0.0,0.0,0.0,0.0,0.0,0.0,0.0,0.0,0.0,0.0,0.0,0.0,0.0,0.0,0.0,0.0,0.0,0.0,0.0,0.0,0.0,0.0,0.0,0.0,0.0,0.0,0.0,0.0,0.0,0.0,0.0,0.0,0.0,0.0,0.0,0.0,0.0,0.0,0.0,0.0,0.0,0.0,0.0,0.0,0.0,0.0,0.0,0.0,0.0,0.0,0.0,0.0,0.0,0.0,0.0,0.0,0.0,0.0,0.0898,0.0898,0.0898,0.0898,0.0898,0.0898,0.042,-0.0685,0.0,0.0,0.0,0.0,0.0,0.0,0.0,0.0,0.0,0.0,0.0,0.0,0.0,0.0,0.0,0.0,0.0,0.0,0.0,0.0,0.0,0.0,0.0,0.0,0.0,0.0,0.0,0.0,0.0,0.0,0.0,0.0,0.0,0.0,0.0,0.0,0.0,0.0,0.0,0.0,0.0,0.0,0.0,0.0,0.0,0.0,0.0,0.0,0.0,0.0,0.0,0.0,0.0,0.0,0.0,0.0,0.0,0.0,0.0,0.0,0.0,0.0,0.0,0.0,0.0,0.0,0.0,0.0,0.0,0.0,0.0,0.0,0.0,0.0,0.0,0.0,0.0,0.0,0.0,0.0,0.0,0.0,0.0,0.0,0.0,0.0,0.0,0.0,0.0,0.0,0.0,0.0,0.0,0.0,0.0,0.0,0.0,0.0,0.0,0.0,0.0,0.0,0.0,0.0,0.0898,0.0898,0.0898,0.0898,0.0898,0.0898,0.0603,-0.0098,0.0,0.0,0.0,0.0,0.0,0.0,0.0,0.0,0.0,0.0,0.0,0.0,0.0,0.0,0.0,0.0,0.0,0.0,0.0,0.0,0.0,0.0,0.0,0.0,0.0,0.0,0.0,0.0,0.0,0.0,0.0,0.0,0.0,0.0,0.0,0.0,0.0,0.0,0.0,0.0,0.0,0.0,0.0,0.0,0.0,0.0,0.0,0.0,0.0,0.0,0.0,0.0,0.0,0.0,0.0,0.0,0.0,0.0,0.0,0.0,0.0,0.0,0.0,0.0,0.0,0.0,0.0,0.0,0.0,0.0,0.0,0.0,0.0,0.0,0.0,0.0,0.0,0.0,0.0,0.0,0.0,0.0,0.0,0.0,0.0,0.0,0.0,0.0,0.0,0.0,0.0,0.0,0.0,0.0,0.0,0.0,0.0,0.0,0.0,0.0,0.0,0.0,0.0,0.0687,0.087,0.0799,0.0856,0.087,0.0799,0.0856,0.0617,-0.007,-0.0294,0.0,0.0,0.0,0.0,0.0,0.0,0.0,0.0,0.0,0.0,0.0,0.0,0.0,0.0,0.0,0.0,0.0,0.0,0.0,0.0,0.0,0.0,0.0,0.0,0.0,0.0,0.0,0.0,0.0,0.0,0.0,0.0,0.0,0.0,0.0,0.0,0.0,0.0,0.0,0.0,0.0,0.0,0.0,0.0,0.0,0.0,0.0,0.0,0.0,0.0,0.0,0.0,0.0,0.0,0.0,0.0,0.0,0.0,0.0,0.0,0.0,0.0,0.0,0.0,0.0,0.0,0.0,0.0,0.0,0.0,0.0,0.0,0.0,0.0,0.0,0.0,0.0,0.0,0.0,0.0,0.0,0.0,0.0,0.0,0.0,0.0,0.0,0.0,0.0,0.0,0.0,0.0,0.0,0.0,0.0,0.0,0.0,0.0,0.0,0.0,0.0,0.0,0.0743,0.0743,0.0645,0.0715,0.0743,0.0631,0.0729,0.0561,0.0042,-0.0028,0.0,0.0,0.0,0.0,0.0,0.0,0.0,0.0,0.0,0.0,0.0,0.0,0.0,0.0,0.0,0.0,0.0,0.0,0.0,0.0,0.0,0.0,0.0,0.0,0.0,0.0,0.0,0.0,0.0,0.0,0.0,0.0,0.0,0.0,0.0,0.0,0.0,0.0,0.0,0.0,0.0,0.0,0.0,0.0,0.0,0.0,0.0,0.0,0.0,0.0,0.0,0.0,0.0,0.0,0.0,0.0,0.0,0.0,0.0,0.0,0.0,0.0,0.0,0.0,0.0,0.0,0.0,0.0,0.0,0.0,0.0,0.0,0.0,0.0,0.0,0.0,0.0,0.0,0.0,0.0,0.0,0.0,0.0,0.0,0.0,0.0,0.0,0.0,0.0,0.0,0.0,0.0,0.0,0.0,0.0,0.0,0.0,0.0,0.0,0.0,0.0,0.0,0.0547,0.0435,0.0421,0.0435,0.0435,0.0421,0.0435,0.0491,0.0631,0.0112,0.0,0.0,0.0,0.0,0.0,0.0,0.0,0.0,0.0,0.0,0.0,0.0,0.0,0.0,0.0,0.0,0.0,0.0,0.0,0.0,0.0,0.0,0.0,0.0,0.0,0.0,0.0,0.0,0.0,0.0,0.0,0.0,0.0,0.0,0.0,0.0,0.0,0.0,0.0,0.0,0.0,0.0,0.0,0.0,0.0,0.0,0.0,0.0,0.0,0.0,0.0,0.0,0.0,0.0,0.0,0.0,0.0,0.0,0.0,0.0,0.0,0.0,0.0,0.0,0.0,0.0,0.0,0.0,0.0,0.0,0.0,0.0,0.0,0.0,0.0,0.0,0.0,0.0,0.0,0.0,0.0,0.0,0.0,0.0,0.0,0.0,0.0,0.0,0.0,0.0,0.0,0.0,0.0,0.0,0.0,0.0,0.0,0.0,0.0,0.0,0.0,0.0,0.0393,0.0364,0.0,0.035,0.0364,0.028,0.035,0.0393,0.0393,0.0,0.0,0.0,0.0,0.0,0.0,0.0,0.0,0.0,0.0,0.0,0.0,0.0,0.0,0.0,0.0,0.0,0.0,0.0,0.0,0.0,0.0,0.0,0.0,0.0,0.0,0.0,0.0,0.0,0.0,0.0,0.0,0.0,0.0,0.0,0.0,0.0,0.0,0.0,0.0,0.0,0.0,0.0,0.0,0.0,0.0,0.0,0.0,0.0,0.0,0.0,0.0,0.0,0.0,0.0,0.0,0.0,0.0,0.0,0.0,0.0,0.0,0.0,0.0,0.0,0.0,0.0,0.0,0.0,0.0,0.0,0.0,0.0,0.0,0.0,0.0,0.0,0.0,0.0,0.0,0.0,0.0,0.0,0.0,0.0,0.0,0.0,0.0,0.0,0.0,0.0,0.0,0.0,0.0,0.0,0.0,0.0,0.0,0.0,0.0,0.0,0.0,0.0421,0.07,0.0812,0.0,0.0617,0.0519,0.0435,0.0336,0.0252,0.0196,0.0,0.0,0.0,0.0,0.0,0.0,0.0,0.0,0.0,0.0,0.0,0.0,0.0,0.0,0.0,0.0,0.0,0.0,0.0,0.0,0.0,0.0,0.0,0.0,0.0,0.0,0.0,0.0,0.0,0.0,0.0,0.0,0.0,0.0,0.0,0.0,0.0,0.0,0.0,0.0,0.0,0.0,0.0,0.0,0.0,0.0,0.0,0.0,0.0,0.0,0.0,0.0,0.0,0.0,0.0,0.0,0.0,0.0,0.0,0.0,0.0,0.0,0.0,0.0,0.0,0.0,0.0,0.0,0.0,0.0,0.0,0.0,0.0,0.0,0.0,0.0,0.0,0.0,0.0,0.0,0.0,0.0,0.0,0.0,0.0,0.0,0.0,0.0,0.0,0.0,0.0,0.0,0.0,0.0,0.0,0.0,0.0,0.0,0.0,0.0,0.0,0.0,0.108,0.1498,0.179,0.1804,0.126,0.0898,0.0898,0.035,0.0056,0.0,0.0,0.0,0.0,0.0,0.0,0.0,0.0,0.0,0.0,0.0,0.0,0.0,0.0,0.0,0.0,0.0,0.0,0.0,0.0,0.0,0.0,0.0,0.0,0.0,0.0,0.0,0.0,0.0,0.0,0.0,0.0,0.0,0.0,0.0,0.0,0.0,0.0,0.0,0.0,0.0,0.0,0.0,0.0,0.0,0.0,0.0,0.0,0.0,0.0,0.0,0.0,0.0,0.0,0.0,0.0,0.0,0.0,0.0,0.0,0.0,0.0,0.0,0.0,0.0,0.0,0.0,0.0,0.0,0.0,0.0,0.0,0.0,0.0,0.0,0.0,0.0,0.0,0.0,0.0,0.0,0.0,0.0,0.0,0.0,0.0,0.0,0.0,0.0,0.0,0.0,0.0,0.0,0.0,0.0,0.0,0.0,0.0,0.0,0.0,0.0,0.0,0.0,0.0954,0.1079,0.133,0.1748,0.0882,0.0435,0.087,0.035,0.0014,0.0056,0.0,0.0,0.0,0.0,0.0,0.0,0.0,0.0,0.0,0.0,0.0,0.0,0.0,0.0,0.0,0.0,0.0,0.0,0.0,0.0,0.0,0.0,0.0,0.0,0.0,0.0,0.0,0.0,0.0,0.0,0.0,0.0,0.0,0.0,0.0,0.0,0.0,0.0,0.0,0.0,0.0,0.0,0.0,0.0,0.0,0.0,0.0,0.0,0.0,0.0,0.0,0.0,0.0,0.0,0.0,0.0,0.0,0.0,0.0,0.0,0.0,0.0,0.0,0.0,0.0,0.0,0.0,0.0,0.0,0.0,0.0,0.0,0.0,0.0,0.0,0.0,0.0,0.0,0.0,0.0,0.0,0.0,0.0,0.0,0.0,0.0,0.0,0.0,0.0,0.0,0.0,0.0,0.0,0.0,0.0,0.0,0.0,0.0,0.0,0.0,0.0,0.0,0.1246,0.1568,0.1973,0.2462,0.1441,0.0868,0.1232,0.049,0.0,0.0,0.0,0.0,0.0,0.0,0.0,0.0,0.0,0.0,0.0,0.0,0.0,0.0,0.0,0.0,0.0,0.0,0.0,0.0,0.0,0.0,0.0,0.0,0.0,0.0,0.0,0.0,0.0,0.0,0.0,0.0,0.0,0.0,0.0,0.0,0.0,0.0,0.0,0.0,0.0,0.0,0.0,0.0,0.0,0.0,0.0,0.0,0.0,0.0,0.0,0.0,0.0,0.0,0.0,0.0,0.0,0.0,0.0,0.0,0.0,0.0,0.0,0.0,0.0,0.0,0.0,0.0,0.0,0.0,0.0,0.0,0.0,0.0,0.0,0.0,0.0,0.0,0.0,0.0,0.0,0.0,0.0,0.0,0.0,0.0,0.0,0.0,0.0,0.0,0.0,0.0,0.0,0.0,0.0,0.0,0.0,0.0,0.0,0.0,0.0,0.0,0.0,0.0,0.172,0.2474,0.3132,0.3513,0.242,0.1706,0.179,0.07,0.0,0.0,0.0,0.0,0.0,0.0,0.0,0.0,0.0,0.0,0.0,0.0,0.0,0.0,0.0,0.0,0.0,0.0,0.0,0.0,0.0,0.0,0.0,0.0,0.0,0.0,0.0,0.0,0.0,0.0,0.0,0.0,0.0,0.0,0.0,0.0,0.0,0.0,0.0,0.0,0.0,0.0,0.0,0.0,0.0,0.0,0.0,0.0,0.0,0.0,0.0,0.0,0.0,0.0,0.0,0.0,0.0,0.0,0.0,0.0,0.0,0.0,-0.1699,-0.1986,0.0,0.0,0.0,0.0,0.0,0.0,0.0,0.0,0.0,0.0,0.0,0.0,0.0,0.0,0.0,0.0,0.0,0.0,0.0,0.0,0.0,0.0,0.0,0.0,0.0,0.0,0.0,0.0,0.0,0.0,0.0,0.0,0.0,0.0,0.0,0.0,0.0,0.0,0.0,0.0,0.1398,0.1803,0.2362,0.3132,0.1706,0.0994,0.1734,0.07,0.0,0.0,0.0,0.0,0.0,0.0,0.0,0.0,0.0,0.0,0.0,0.0,0.0,0.0,0.0,0.0,0.0,0.0,0.0,0.0,0.0,0.0,0.0,0.0,0.0,0.0,0.0,0.0,0.0,0.0,0.0,0.0,0.0,0.0,0.0,0.0,0.0,0.0,0.0,0.0,0.0,0.0,0.0,0.0,0.0,0.0,0.0,0.0,0.0,0.0,0.0,0.0,0.0,0.0,0.0,0.0,0.0,0.0,0.0,0.0,0.0,0.0,-0.1229,-0.1424,0.0,0.0,0.0,0.0,0.0,0.0,0.0,0.0,0.0,0.0,0.0,0.0,0.0,0.0,0.0,0.0,0.0,0.0,0.0,0.0,0.0,0.0,0.0,0.0,0.0,0.0,0.0,0.0,0.0,0.0,0.0,0.0,0.0,0.0,0.0,0.0,0.0,0.0,0.0,0.0,0.1188,0.1663,0.2225,0.284,0.1804,0.1175,0.144,0.0686,0.0112,-0.0084,-0.0042,0.0,0.0,0.0,0.0,0.0,0.0,0.0,0.0,0.0,0.0,0.0,0.0,0.0,0.0,0.0,0.0,0.0,0.0,0.0,0.0,0.0,0.0,0.0,0.0,0.0,0.0,0.0,0.0,0.0,0.0,0.0,0.0,0.0,0.0,0.0,0.0,0.0,0.0,0.0,0.0,0.0,0.0,0.0,0.0,0.0,0.0,0.0,0.0,0.0,0.0,0.0,0.0,0.0,-0.1772,-0.1482,-0.1924,-0.1364,-0.1125,-0.1106,-0.0764,-0.0776,-0.1003,-0.0721,0.0,0.0,0.0,0.0,0.0,0.0,0.0,0.0,0.0,0.0,0.0,0.0,0.0,0.0,0.0,0.0,0.0,0.0,0.0,0.0,0.0,0.0,-0.0575,-0.0407,-0.0491,-0.0589,-0.0505,0.0,0.0,0.0,0.0,0.0,0.0,0.0,0.0,0.0,0.0,0.0,0.1091,0.1722,0.2254,0.2577,0.2073,0.1581,0.1243,0.077,0.0308,-0.0098,-0.0028,0.0014,0.0,0.0,0.0,0.0,0.0,0.0,0.0,0.0,0.0,0.0,0.0,0.0,0.0,0.0,0.0,0.0,0.0,0.0,0.0,0.0,0.0,0.0,0.0,0.0,0.0,0.0,0.0,0.0,0.0,0.0,0.0,0.0,-0.4303,-0.4303,0.0,0.0,0.0,0.0,0.0,0.0,0.0,0.0,0.0,0.0,0.0,0.0,0.0,-0.3898,-0.3386,-0.3284,-0.2816,-0.1984,-0.1805,-0.1569,-0.1316,-0.1226,-0.1191,-0.119,-0.1128,0.0,-0.1081,-0.1031,0.0,0.0,0.0,0.0,0.0,0.0,0.0,0.0,0.0,0.0,0.0,0.0,0.0,0.0,0.0,0.0,0.0,0.0,0.0,0.0,0.0,0.0,-0.0252,-0.0238,-0.0252,-0.0364,-0.0757,-0.0603,-0.0393,-0.0378,-0.0378,-0.0364,0.0,0.0,0.0,0.0,0.0,0.0,0.122,0.1614,0.1964,0.224,0.1723,0.1457,0.1692,0.1176,0.0631,0.0182,0.0168,0.007,-0.0168,-0.0168,0.0,0.0,0.0,0.0,0.0,0.0,0.0,0.0,0.0,0.0,0.0,0.0,0.0,0.0,0.0,0.0,0.0,0.0,0.0,0.0,0.0,0.0,0.0,0.0,0.0,0.0,0.0,0.0,0.0,-0.3522,-0.347,-0.3656,-0.3675,-0.3713,0.0,0.0,0.0,0.0,0.0,0.0,0.0,0.0,0.0,-0.3179,-0.3179,-0.3042,-0.2783,-0.2783,-0.2572,-0.2131,-0.2131,-0.2039,-0.1875,-0.1875,-0.1875,-0.1875,-0.1875,-0.1851,-0.1792,-0.1298,-0.1108,-0.1092,0.0,0.0,0.0,0.0,-0.1057,-0.1055,-0.1058,-0.1054,-0.1054,-0.1054,0.0,0.0,0.0,0.0,0.0,0.0,0.0,-0.0393,0.0075,0.0224,0.0251,0.0251,0.0251,0.0177,-0.0058,0.0,0.0043,-0.0141,-0.0168,-0.007,0.0266,0.0266,0.0,0.0,0.0,0.0982,0.1164,0.1543,0.1839,0.1964,0.174,0.1529,0.1415,0.1233,0.094,0.0505,0.0547,0.0421,0.0042,0.0028,-0.0014,0.0,0.0,0.0,0.0,0.0,0.0,0.0,0.0,0.0,0.0,0.0,0.0,0.0,0.0,0.0,0.0,0.0,0.0,0.0,0.0,0.0,0.0,0.0,0.0,0.0,0.0,0.0,0.0,-0.3056,-0.3002,-0.3246,-0.328,-0.3324,0.0,0.0,0.0,0.0,0.0,0.0,-0.3132,-0.3041,-0.2906,-0.2692,-0.2692,-0.27,-0.2701,-0.2701,-0.2697,-0.2648,-0.2648,-0.261,-0.2498,-0.2498,-0.2498,-0.2498,-0.2498,-0.2488,-0.2428,-0.1725,-0.1433,-0.1441,-0.1441,-0.1441,-0.1441,-0.1441,-0.1441,-0.1441,-0.1441,-0.1418,-0.141,-0.141,-0.1404,-0.1374,-0.133,0.0,0.0,0.0,0.0,-0.0031,0.0483,0.0666,0.0708,0.0708,0.0739,0.0734,0.0569,0.0522,0.0442,0.0155,0.0098,0.0238,0.0701,0.0687,0.0,0.0785,0.0,0.1136,0.1262,0.1586,0.1797,0.1797,0.1797,0.1657,0.1305,0.1375,0.1248,0.0828,0.0785,0.0589,0.0168,0.0028,-0.0098,-0.0252,0.0,0.0,0.0,0.0,0.0,0.0,0.0,0.0,0.0,0.0,0.0,0.0,0.0,0.0,0.0,0.0,0.0,0.0,0.0,0.0,0.0,0.0,0.0,0.0,0.0,0.0,0.0,0.0,0.0,-0.3487,-0.3487,0.0,0.0,0.0,0.0,-0.3412,-0.3052,-0.3016,-0.3459,-0.317,-0.3218,-0.3719,-0.3723,-0.3746,-0.3811,-0.3813,-0.3651,-0.3357,-0.3357,-0.3151,-0.2779,-0.2779,-0.2779,-0.2779,-0.2779,-0.2745,-0.2675,-0.2435,-0.2341,-0.2338,-0.2338,-0.2338,-0.2338,-0.2338,-0.2338,-0.2338,-0.2338,-0.2285,-0.224,-0.224,-0.22,-0.2136,-0.2133,-0.1643,0.0,0.0,-0.0542,0.0097,0.058,0.0836,0.0972,0.0972,0.1126,0.1139,0.0691,0.0599,0.0558,0.0411,0.0378,0.0393,0.0421,0.0,0.0561,0.101,0.1094,0.1262,0.1713,0.1783,0.1797,0.1797,0.1797,0.1783,0.1769,0.1769,0.1572,0.1108,0.0673,0.0294,0.0028,-0.0421,-0.0575,-0.0393,-0.0266,0.0,0.0,0.0,0.0,0.0,0.0,0.0,0.0,0.0,0.0,0.0,0.0,0.0,0.0,0.0,0.0,0.0,0.0,0.0,0.0,0.0,0.0,0.0,0.0,0.0,0.0,0.0,0.0,-0.3499,-0.353,0.0,-0.3682,-0.3724,-0.3769,-0.3793,-0.3657,-0.3649,-0.3804,-0.3703,-0.3707,-0.385,-0.387,-0.3867,-0.3899,-0.3899,-0.3862,-0.3783,-0.3783,-0.372,-0.3575,-0.3575,-0.3575,-0.3575,-0.3575,-0.3557,-0.3524,-0.3458,-0.3078,-0.2514,-0.2436,-0.2401,-0.2401,-0.2401,-0.2401,-0.2401,-0.2401,-0.2388,-0.237,-0.237,-0.2356,-0.2232,-0.1719,-0.1366,-0.0984,-0.0069,0.0339,0.0629,0.1143,0.1333,0.1388,0.1388,0.1436,0.1427,0.1225,0.1173,0.1159,0.1054,0.0969,0.1013,0.1315,0.1336,0.1361,0.1529,0.1543,0.1614,0.1783,0.1797,0.1797,0.1797,0.1797,0.1797,0.1797,0.1797,0.1727,0.1558,0.1389,0.1122,0.0729,0.0547,0.0407,0.0308,0.035,0.0322,0.0,0.0,0.0,0.0,0.0,0.0,0.0,0.0,0.0,0.0,0.0,0.0,0.0,0.0,0.0,0.0,0.0,0.0,0.0,0.0,0.0,0.0,0.0,0.0,0.0,-0.3634,-0.3646,-0.3658,-0.3711,-0.3767,-0.3848,-0.391,-0.3938,-0.3966,-0.3969,-0.3983,-0.3992,-0.3994,-0.4013,-0.4034,-0.4034,-0.4034,-0.4034,-0.4034,-0.4065,-0.4103,-0.4103,-0.4103,-0.4103,-0.4103,-0.4103,-0.4103,-0.4103,-0.4103,-0.4101,-0.4072,-0.3707,-0.313,-0.2997,-0.2948,-0.2948,-0.2948,-0.2948,-0.2941,-0.2892,-0.2839,-0.2796,-0.2774,-0.2566,-0.2238,-0.1693,-0.117,-0.0568,0.0373,0.0771,0.102,0.1366,0.1494,0.1534,0.1534,0.1575,0.1589,0.1542,0.1536,0.1528,0.1469,0.1356,0.1362,0.1674,0.1692,0.1683,0.1754,0.1712,0.1712,0.1857,0.1782,0.1756,0.1826,0.1808,0.1797,0.1797,0.1797,0.1797,0.1797,0.1657,0.1417,0.1108,0.0954,0.0705,0.0371,0.0432,0.0522,0.0638,0.0,0.0,0.0,0.0,0.0,0.0,0.0,0.0,0.0,0.0,0.0,0.0,0.0,0.0,0.0,0.0,0.0,0.0,0.0,0.0,0.0,0.0,0.0,-0.3895,-0.3901,-0.3936,-0.3984,-0.3996,-0.3998,-0.3998,-0.4,-0.3987,-0.3918,-0.3912,-0.395,-0.3996,-0.4004,-0.4105,-0.4297,-0.4306,-0.4308,-0.4308,-0.4308,-0.4308,-0.4308,-0.4308,-0.4308,-0.4308,-0.4308,-0.4308,-0.4308,-0.4308,-0.4308,-0.4302,-0.4238,-0.4203,-0.4193,-0.4052,-0.3994,-0.3994,-0.3994,-0.3994,-0.3989,-0.3854,-0.3714,-0.3605,-0.354,-0.2924,-0.2208,-0.2188,-0.1112,0.0109,0.0128,0.0656,0.1203,0.1203,0.1287,0.1386,0.1386,0.1496,0.1584,0.1583,0.1582,0.1582,0.1581,0.1481,0.1393,0.1408,0.1407,0.1467,0.1664,0.1527,0.0,0.1927,0.1759,0.1667,0.187,0.1835,0.1802,0.1802,0.1802,0.1802,0.1802,0.1379,0.1125,0.1125,0.0689,0.0243,-0.0221,-0.0046,0.0401,0.1112,0.0,0.0,0.0,0.0,0.0,0.0,0.0,0.0,0.0,0.0,0.0,0.0,0.0,0.0,0.0,0.0,0.0,0.0,0.0,0.0,0.0,-0.4491,-0.436,-0.4018,-0.3977,-0.3987,-0.399,-0.4095,-0.4134,-0.4134,-0.4191,-0.4216,-0.4191,-0.4189,-0.42,-0.4226,-0.4267,-0.4326,-0.4373,-0.4463,-0.4521,-0.4521,-0.4521,-0.4521,-0.4521,-0.4521,-0.4521,-0.4521,-0.4521,-0.4521,-0.4521,-0.4521,-0.4521,-0.4513,-0.44,-0.434,-0.432,-0.4101,-0.3994,-0.3994,-0.3994,-0.3994,-0.3986,-0.3956,-0.3924,-0.3887,-0.3818,-0.3195,-0.2376,-0.1737,-0.0816,0.015,0.0731,0.1035,0.1203,0.1203,0.1233,0.1262,0.1262,0.1291,0.1295,0.1253,0.1229,0.124,0.1231,0.1212,0.1241,0.1438,0.1425,0.142,0.1467,0.1436,0.0,0.1544,0.1503,0.154,0.1734,0.1736,0.1727,0.1727,0.1864,0.1879,0.1742,0.1742,0.1757,0.1757,0.1622,0.1494,0.1369,0.1182,0.1187,0.0,0.0,0.0,0.0,0.0,0.0,0.0,0.0,0.0,0.0,0.0,0.0,0.0,0.0,0.0,0.0,0.0,0.0,0.0,0.0,0.0,0.0,-0.4768,-0.4675,-0.4385,-0.4369,-0.4382,-0.4419,-0.4533,-0.4616,-0.4616,-0.47,-0.4757,-0.4757,-0.4757,-0.4757,-0.4757,-0.4787,-0.4818,-0.4818,-0.4778,-0.4761,-0.4761,-0.4666,-0.4597,-0.4597,-0.4597,-0.4597,-0.4597,-0.4597,-0.4597,-0.4597,-0.4597,-0.4597,-0.4593,-0.4514,-0.4538,-0.4606,0.0,0.0,0.0,0.0,-0.4103,-0.4093,-0.4093,-0.4048,-0.3921,-0.3495,-0.2781,-0.1922,-0.1018,-0.0137,0.0634,0.1115,0.1237,0.1242,0.1242,0.1214,0.1204,0.1204,0.1194,0.1198,0.1144,0.114,0.1135,0.1135,0.1149,0.0,0.1308,0.1305,0.1297,0.1345,0.1313,0.1329,0.1474,0.1411,0.1431,0.1601,0.1583,0.1573,0.1573,0.168,0.0,0.0,0.0,0.1788,0.1864,0.1762,0.0,0.0,0.0,0.1535,0.1791,0.1633,0.0,0.0,0.1927,0.2046,0.0,0.0,0.0,0.0,0.0,0.0,0.0,0.0,0.0,0.0,0.0,0.0,0.0,0.0,0.0,0.0,-0.5025,-0.4982,-0.4933,-0.498,-0.5032,-0.5018,-0.5145,-0.5235,-0.5235,-0.5322,-0.54,-0.54,-0.54,-0.54,-0.54,-0.5412,0.0,0.0,0.0,-0.5072,-0.5072,-0.4838,-0.4721,-0.4721,-0.4721,-0.4721,-0.4721,-0.4721,-0.4721,-0.4721,-0.4721,-0.4721,-0.4719,-0.4711,-0.4841,-0.4999,-0.4551,-0.4346,-0.4314,-0.4314,-0.4261,-0.4209,-0.4209,0.0,0.0,-0.2888,-0.1995,-0.1083,-0.0245,0.0622,0.1302,0.1302,0.1299,0.1296,0.1296,0.1256,0.1217,0.1217,0.1215,0.1213,0.1209,0.1208,0.1207,0.1203,0.1203,0.1175,0.1131,0.1101,0.1147,0.1261,0.1176,0.121,0.1513,0.1384,0.133,0.1457,0.0,0.0,0.1388,0.1404,0.142,0.1388,0.1404,0.1496,0.1681,0.1484,0.1586,0.2074,0.1627,0.1664,0.2204,0.2204,0.2204,0.2203,0.2198,0.2141,0.0,0.0,0.0,0.0,0.0,0.0,0.0,0.0,0.0,0.0,0.0,0.0,0.0,0.0,0.0,-0.5325,-0.5537,-0.5707,-0.5681,-0.5799,-0.5699,-0.5215,-0.5281,-0.5369,-0.5369,-0.5388,-0.54,-0.54,-0.54,-0.54,-0.54,-0.5461,-0.5482,-0.5482,-0.5485,-0.5475,-0.5475,-0.5428,-0.5403,-0.5403,-0.5403,0.0,-0.5403,-0.5403,-0.5403,-0.5403,-0.5403,-0.5403,-0.5397,-0.5345,-0.5336,-0.5301,-0.4974,-0.4657,-0.4387,-0.4387,-0.433,-0.4275,-0.4275,-0.3774,-0.3067,-0.2775,-0.159,-0.0235,0.0,0.0658,0.0,0.1294,0.1296,0.1296,0.1296,0.1292,0.1288,0.1288,0.1283,0.1272,0.1209,0.1203,0.1196,0.1208,0.1203,0.1201,0.1177,0.1132,0.1104,0.113,0.1109,0.1126,0.1193,0.1171,0.1184,0.1317,0.1327,0.1324,0.1324,0.1473,0.1489,0.1324,0.1473,0.1572,0.1622,0.173,0.1835,0.1935,0.1996,0.2087,0.2204,0.2204,0.2204,0.2204,0.2192,0.2181,0.0,0.0,0.0,0.0,0.0,0.0,0.0,0.0,0.0,0.0,0.0,-0.5421,-0.5358,0.0,-0.5667,-0.557,-0.5801,-0.5972,-0.5912,-0.6062,-0.6061,-0.5683,-0.5771,-0.5843,-0.5843,-0.5889,-0.5895,-0.5895,-0.5895,-0.5895,-0.5895,-0.5925,-0.5958,-0.5958,-0.5859,-0.5789,-0.5789,-0.5661,-0.5611,-0.5611,-0.5611,-0.5611,-0.5611,-0.5611,-0.5611,-0.5611,-0.5611,-0.5611,-0.5607,-0.5708,-0.5655,-0.5506,-0.5506,-0.5243,-0.4901,-0.4901,-0.4836,-0.4752,-0.4752,-0.4087,-0.315,-0.2587,-0.14,-0.0108,0.0407,0.0906,0.1302,0.1307,0.1292,0.1297,0.13,0.1296,0.1296,0.1296,0.1296,0.1292,0.1257,0.1254,0.1249,0.1253,0.125,0.1245,0.1211,0.1176,0.1133,0.1105,0.1098,0.1093,0.1094,0.1092,0.1126,0.1193,0.1193,0.1193,0.1193,0.1294,0.1311,0.121,0.1361,0.1446,0.1446,0.1648,0.18,0.1901,0.2001,0.21,0.2199,0.2199,0.2214,0.2245,0.2245,0.2229,0.0,0.0,0.0,0.0,0.0,0.0,0.0,0.0,-0.5425,-0.5425,-0.5497,-0.557,-0.5545,-0.5757,-0.5899,-0.5762,-0.5966,-0.611,-0.5988,-0.6186,-0.629,-0.6165,-0.6265,-0.6325,-0.6325,-0.6358,-0.6412,-0.6412,-0.6412,-0.6412,-0.6412,-0.6412,-0.6412,-0.6412,-0.6189,-0.6067,-0.6067,-0.5862,-0.5759,-0.5759,-0.5759,-0.5759,-0.5759,-0.5759,-0.5759,-0.5759,-0.5759,-0.5636,-0.5461,-0.5689,-0.5514,-0.5183,-0.5614,-0.5561,-0.5291,-0.5391,-0.5341,-0.5198,-0.4991,-0.4245,-0.3172,-0.2152,-0.1085,-0.0044,0.0722,0.1057,0.1183,0.1223,0.1233,0.1243,0.1294,0.1305,0.1304,0.1298,0.1296,0.1296,0.1296,0.1296,0.1296,0.1296,0.1296,0.1288,0.1225,0.1221,0.12,0.1139,0.1112,0.1121,0.1114,0.1105,0.1101,0.1101,0.1096,0.1092,0.1092,0.1092,0.1092,0.1092,0.1193,0.1264,0.1254,0.1458,0.1631,0.1794,0.1847,0.1936,0.2103,0.2138,0.2197,0.2244,0.2291,0.2283,-0.5032,-0.5111,-0.5174,-0.534,-0.537,-0.5373,0.0,0.0,-0.5486,-0.5486,-0.5686,-0.5811,-0.571,-0.5907,-0.6026,-0.5904,-0.6112,-0.6268,-0.6254,-0.6336,-0.6387,-0.6374,-0.6385,-0.6393,-0.6393,-0.6404,-0.6412,-0.6412,-0.6412,-0.6412,-0.6412,-0.6412,-0.6412,-0.6412,-0.6362,-0.6362,-0.6362,-0.6337,-0.6312,-0.6312,-0.6312,-0.6312,-0.6312,-0.6312,-0.6312,-0.6312,-0.6312,-0.5762,-0.4885,-0.491,-0.4356,-0.3575,-0.4556,-0.4897,-0.492,-0.5332,-0.5451,-0.5251,-0.4297,-0.3296,-0.2272,-0.1195,-0.0201,0.0603,0.0692,0.0749,0.0802,0.0973,0.1044,0.1085,0.1244,0.1297,0.1291,0.1303,0.1296,0.1296,0.1296,0.1296,0.1296,0.1296,0.1296,0.1295,0.1292,0.1291,0.1269,0.1207,0.1197,0.1196,0.1193,0.1132,0.1098,0.1098,0.1092,0.1092,0.1092,0.1092,0.1092,0.1092,0.1109,0.1122,0.1114,0.1308,0.1428,0.1463,0.1626,0.1738,0.1761,0.1942,0.2018,0.2044,0.2274,0.236,-0.5203,-0.5277,-0.5343,-0.5445,-0.5507,-0.56,-0.5665,-0.5773,-0.5838,-0.5838,-0.5939,-0.5994,-0.5947,-0.6078,-0.62,0.0,-0.6257,-0.6366,-0.6366,-0.6382,-0.6412,-0.6412,-0.6412,-0.6412,-0.6412,-0.6412,-0.6412,-0.6412,-0.6412,-0.6412,-0.6412,-0.6412,-0.6412,-0.6412,-0.6412,-0.6412,-0.6412,-0.6412,-0.6412,-0.6412,-0.6412,-0.6412,-0.6412,-0.6412,-0.6412,-0.6412,-0.6412,-0.6137,-0.5687,-0.506,-0.4533,-0.4105,-0.3927,-0.3879,-0.4049,-0.549,-0.5975,-0.5848,-0.5415,-0.4141,-0.2626,-0.2194,-0.0882,0.0515,0.0515,0.0602,0.0707,0.0808,0.0822,0.0833,0.0877,0.1017,0.1118,0.1128,0.1215,0.1304,0.1304,0.131,0.1296,0.1296,0.1296,0.1296,0.1296,0.1296,0.1288,0.1261,0.1223,0.1205,0.1206,0.1173,0.1165,0.1165,0.1154,0.1163,0.1163,0.1163,0.1163,0.1163,0.1163,0.1152,0.1164,0.1237,0.1315,0.1403,0.1477,0.1598,0.1753,0.1847,0.1972,0.2113,0.223,0.2325,-0.5385,-0.5466,-0.5499,-0.5597,-0.5716,-0.583,-0.5934,-0.6024,-0.611,-0.611,-0.6137,-0.6159,-0.6159,-0.626,-0.6339,-0.6339,-0.6358,-0.6412,-0.6412,-0.6412,-0.6412,-0.6412,-0.6412,-0.6412,-0.6412,-0.6412,-0.6412,-0.6412,-0.6412,-0.6412,-0.6412,-0.6412,-0.6412,-0.6412,-0.6412,-0.6412,-0.6412,-0.6412,-0.6412,-0.6412,-0.6412,-0.6412,-0.6412,-0.6412,-0.6412,-0.6412,-0.6412,-0.6237,-0.5909,-0.511,-0.4456,-0.3879,-0.3399,-0.3022,-0.2972,-0.4828,-0.5663,-0.5892,-0.5886,-0.4636,-0.2996,-0.2708,-0.1302,0.0294,0.0292,0.0381,0.0514,0.0595,0.0614,0.0611,0.062,0.0765,0.0912,0.0886,0.0998,0.1109,0.1109,0.1156,0.122,0.1192,0.125,0.1307,0.1298,0.1296,0.1296,0.1296,0.1258,0.1235,0.1232,0.1202,0.1194,0.1204,0.1203,0.1203,0.1203,0.1203,0.1203,0.1203,0.1203,0.1207,0.1197,0.1198,0.1257,0.1378,0.1378,0.1465,0.1665,0.1722,0.1853,0.2041,0.21,0.2217,-0.547,-0.5588,-0.5727,-0.5863,-0.5986,-0.6099,-0.6102,-0.6107,-0.611,-0.611,-0.6205,-0.6287,-0.6287,-0.6355,-0.6406,-0.6406,-0.6409,-0.6412,-0.6412,-0.6412,-0.6412,-0.6412,-0.6412,-0.6412,-0.6412,-0.6412,-0.6412,-0.6412,-0.6412,-0.6412,-0.6412,-0.6412,-0.6412,-0.6412,-0.6412,-0.6412,-0.6412,-0.6412,-0.6412,-0.6412,-0.6412,-0.6412,-0.6412,-0.6412,-0.6412,-0.6412,-0.6412,-0.5809,-0.4834,-0.4809,-0.3575,-0.179,-0.2796,-0.2569,-0.179,-0.2897,-0.3951,-0.4843,-0.4853,-0.4133,-0.3011,-0.1987,-0.0901,0.0023,0.0023,0.0022,0.0067,0.0336,0.0403,0.0446,0.0656,0.0696,0.0692,0.0635,0.061,0.0631,0.0631,0.082,0.0981,0.0918,0.1118,0.1292,0.1302,0.1296,0.1296,0.1296,0.1295,0.1295,0.1293,0.1247,0.1199,0.1206,0.1203,0.1203,0.1203,0.1203,0.1203,0.1203,0.1203,0.1198,0.1209,0.1192,0.1224,0.1293,0.1293,0.1314,0.1314,0.1511,0.161,0.1631,0.1828,0.2022,-0.5977,-0.593,-0.5874,-0.5994,-0.614,-0.623,-0.623,-0.6265,-0.6293,-0.6293,-0.6476,-0.6633,-0.6633,-0.6639,-0.6667,-0.6667,-0.6514,-0.6412,-0.6412,-0.6564,-0.6667,-0.6667,-0.6667,0.0,0.0,-0.6512,-0.6412,-0.6412,-0.6412,-0.6412,-0.6412,-0.6412,-0.6412,-0.6412,-0.6412,-0.6412,-0.6412,-0.6412,-0.6412,-0.6412,-0.6412,-0.6412,-0.6412,-0.6412,-0.6412,-0.6412,-0.6412,-0.6187,-0.5809,-0.5085,-0.4381,-0.3676,-0.3349,-0.2972,-0.2695,-0.3073,-0.3425,-0.3848,-0.4549,-0.4106,-0.3151,-0.2772,-0.1928,-0.0939,-0.0207,0.0,0.0023,0.0113,0.0135,0.0157,0.0223,0.0378,0.0487,0.0462,0.0565,0.0667,0.0667,0.0702,0.0735,0.0709,0.077,0.0893,0.1072,0.1091,0.1146,0.127,0.131,0.1296,0.1296,0.1287,0.1257,0.1266,0.1265,0.1265,0.1265,0.1265,0.1265,0.1265,0.1265,0.1269,0.1261,0.1261,0.1286,0.1296,0.1296,0.1296,0.1296,0.1375,0.1474,0.1611,0.167,0.1807,-0.6389,-0.6383,-0.6353,-0.6436,-0.6529,-0.6623,-0.6623,-0.6658,-0.6686,-0.6686,-0.6814,-0.6942,-0.6942,-0.6942,-0.6942,-0.6942,-0.6789,-0.6686,-0.6686,-0.6739,-0.6795,-0.6795,-0.6717,-0.6667,0.0,0.0,-0.6412,-0.6412,-0.6412,-0.6412,-0.6412,-0.6412,-0.6412,-0.6412,-0.6412,-0.6412,-0.6412,-0.6412,-0.6412,-0.6412,-0.6412,-0.6412,-0.6412,-0.6412,-0.6412,-0.6412,-0.6412,-0.6412,-0.6337,-0.5659,-0.5135,-0.4734,-0.4029,-0.3525,-0.3198,-0.3198,-0.2947,-0.2771,-0.3853,-0.3773,-0.3212,-0.3189,-0.2476,-0.1461,-0.0775,-0.0304,0.0,0.0,0.0,0.0,0.0,0.0135,0.0247,0.0247,0.0356,0.044,0.044,0.0501,0.0516,0.0491,0.0575,0.068,0.0822,0.0927,0.1069,0.126,0.1302,0.1301,0.1299,0.1296,0.1296,0.1296,0.1296,0.1296,0.1296,0.1296,0.1296,0.1296,0.1296,0.1296,0.1296,0.1296,0.1302,0.1293,0.1293,0.1299,0.131,0.131,0.137,0.1491,0.1491,0.1612,-0.6723,-0.6912,-0.7109,-0.7115,-0.714,-0.7213,-0.7213,-0.7213,-0.7185,-0.7179,-0.7204,-0.7201,0.0,-0.7201,-0.7204,-0.721,-0.7213,-0.7213,-0.7213,-0.6992,-0.6842,0.0,0.0,0.0,0.0,0.0,-0.6437,-0.6437,-0.6412,-0.6412,-0.6412,-0.6412,-0.6412,-0.6412,-0.6412,-0.6412,-0.6412,-0.6412,-0.6412,-0.6412,-0.6412,-0.6412,-0.6412,-0.6412,-0.6412,-0.6412,-0.6412,-0.6412,-0.6412,-0.6412,-0.5809,-0.4885,-0.4885,-0.4255,-0.3349,-0.3299,-0.2645,-0.189,-0.2796,-0.3123,-0.3114,-0.3108,-0.2477,-0.1662,-0.1558,-0.0834,-0.0071,-0.0023,0.0,0.0,0.0,0.0,0.0,0.0,0.0,0.0,0.0,0.0202,0.0357,0.0306,0.0501,0.0671,0.0594,0.0823,0.1055,0.1266,0.1286,0.1306,0.1309,0.1301,0.1301,0.1301,0.1301,0.1301,0.1301,0.1301,0.1301,0.1301,0.1301,0.1301,0.1301,0.1301,0.1295,0.1304,0.1305,0.1298,0.1305,0.1305,0.1305,0.1305,0.1305,0.1431,-0.7168,-0.7153,-0.7106,-0.7162,-0.7189,-0.7213,-0.7213,-0.7213,-0.7161,-0.7067,-0.7217,-0.736,-0.736,-0.736,-0.7395,-0.7475,-0.7341,0.0,-0.7213,-0.7316,0.0,-0.7397,0.0,-0.7294,-0.7294,-0.7116,0.0,-0.6989,-0.6637,-0.6412,-0.6412,-0.6412,-0.6412,-0.6412,-0.6412,-0.6412,-0.6412,-0.6412,-0.6412,-0.6412,-0.6412,-0.6412,-0.6412,-0.6412,-0.6412,-0.6412,-0.6412,-0.6412,-0.6412,-0.6412,-0.6237,-0.5984,-0.5984,-0.5834,-0.5482,-0.4682,-0.423,-0.3802,-0.2469,-0.2016,-0.2015,-0.2005,-0.2376,-0.2493,-0.0881,-0.0779,-0.1018,-0.0214,0.0,0.0,0.0,0.0,0.0,0.0,0.0,0.0,0.0,0.0045,0.009,0.0089,0.029,0.0466,0.0464,0.0763,0.1015,0.108,0.1214,0.13,0.1306,0.1304,0.1304,0.1304,0.1304,0.1304,0.1304,0.1304,0.1304,0.1304,0.1304,0.1304,0.1304,0.1304,0.1308,0.1294,0.1295,0.1298,0.1305,0.1305,0.1305,0.1305,0.1305,0.1327,-0.751,-0.7545,-0.7512,-0.7543,-0.754,-0.754,-0.754,-0.7514,-0.7447,-0.7374,-0.743,-0.7484,-0.7484,-0.7533,-0.7599,-0.7684,-0.7598,-0.754,-0.754,-0.7568,-0.7596,0.0,-0.7494,0.0,-0.7419,-0.7288,-0.7213,-0.7213,-0.6911,-0.6761,-0.6761,-0.6761,-0.6761,-0.6761,-0.6761,-0.6761,-0.6761,-0.6761,-0.6761,-0.6761,-0.6761,-0.6761,-0.6761,-0.6761,-0.6686,-0.6564,-0.6564,-0.6514,-0.6412,-0.6412,-0.6412,-0.6412,-0.6412,-0.6412,-0.6337,-0.5734,-0.5211,-0.4556,-0.2871,-0.1991,-0.1588,-0.1588,-0.2016,-0.2264,-0.1071,-0.1117,-0.1384,-0.0291,-0.0338,-0.0602,-0.0119,0.0,0.0,0.0,0.0,0.0,0.0,0.0,0.0,0.0,0.0112,0.0269,0.0381,0.0578,0.0772,0.086,0.1069,0.1213,0.1213,0.1257,0.1305,0.1305,0.1305,0.1305,0.1305,0.1305,0.1305,0.1305,0.1305,0.1305,0.1305,0.1305,0.1311,0.1345,0.1345,0.1351,0.1343,0.1343,0.1343,0.1343,0.1343,0.1343,-0.7776,-0.7912,-0.7988,-0.7988,-0.7988,-0.7985,-0.7989,-0.7881,-0.7801,-0.776,-0.7655,-0.757,-0.757,-0.7672,-0.7767,-0.7804,-0.7898,-0.7993,-0.7985,-0.7793,-0.7646,-0.7646,-0.7441,-0.7313,-0.7313,-0.7313,-0.7313,-0.7313,-0.7313,-0.7288,-0.7213,-0.7213,-0.7213,-0.7213,-0.7213,-0.7213,-0.7213,-0.7213,-0.7213,-0.7213,-0.7213,-0.7213,-0.7213,-0.7213,-0.7064,-0.6845,-0.6845,-0.6689,-0.6462,-0.6462,-0.6437,-0.6412,-0.6412,-0.6412,-0.6412,-0.6412,-0.5809,-0.4857,-0.3776,-0.272,-0.1765,-0.1487,-0.1487,-0.1563,-0.1437,-0.1487,-0.1407,-0.047,-0.0787,-0.1201,-0.041,-0.0096,0.0,0.0,0.0,0.0,0.0,0.0,0.0,0.0,0.0,0.0068,0.0315,0.0382,0.0448,0.0628,0.0874,0.1054,0.1099,0.1217,0.1317,0.1317,0.1317,0.1317,0.1317,0.1317,0.1317,0.1317,0.1317,0.1317,0.1317,0.1317,0.1349,0.1395,0.1396,0.1409,0.1391,0.1391,0.1391,0.1391,0.1391,0.1391,-0.7935,-0.7993,-0.7988,-0.7988,-0.7988,-0.7983,-0.7854,-0.7807,0.0,-0.7522,-0.745,-0.7433,-0.7433,-0.7454,-0.7553,-0.777,-0.781,-0.7871,-0.7971,-0.7967,-0.7942,0.0,-0.7889,-0.7864,-0.7864,-0.7864,0.0,-0.7864,-0.7864,-0.7665,-0.7213,-0.7213,-0.7213,-0.7213,-0.7213,-0.7213,-0.7213,-0.7213,-0.7213,-0.7213,-0.7213,-0.7213,-0.7213,-0.7213,-0.7163,-0.7138,-0.7138,-0.6989,-0.6742,-0.6742,-0.6589,-0.6412,-0.6412,-0.6412,-0.6412,-0.6412,-0.6284,-0.5959,-0.4883,-0.3827,-0.262,-0.0858,-0.0883,-0.1437,-0.0555,-0.0908,-0.1562,-0.1381,-0.0829,-0.0427,-0.115,-0.0667,0.0,0.0,0.0,0.0,0.0,0.0,0.0,0.0,0.0,0.0023,0.0069,0.0249,0.0403,0.0448,0.0628,0.0852,0.1076,0.1271,0.1376,0.1376,0.1376,0.1376,0.1376,0.1376,0.1376,0.1376,0.1376,0.1376,0.1376,0.1376,0.1378,0.1405,0.1405,0.1408,0.1391,0.1391,0.1391,0.1391,0.1391,0.1391,-0.7952,-0.7988,-0.7988,-0.7988,-0.7988,-0.7973,-0.782,0.0,0.0,-0.744,-0.7309,-0.7251,-0.7251,-0.7338,-0.7467,-0.7665,-0.7763,-0.7841,-0.7993,-0.7988,-0.7988,-0.7988,-0.7988,-0.7988,-0.7988,-0.7988,-0.7988,-0.7988,-0.7988,-0.7889,-0.764,-0.7615,-0.7615,-0.7615,-0.7615,-0.7615,-0.7615,-0.7615,-0.7615,-0.7615,-0.7615,-0.7615,-0.7615,-0.7615,-0.754,-0.7416,-0.7416,-0.7266,-0.7017,-0.7017,-0.6842,-0.6614,-0.6614,-0.6514,-0.6412,-0.6412,-0.6412,-0.6237,-0.5183,-0.4456,-0.3776,-0.2192,-0.1261,-0.0681,-0.0151,-0.0757,-0.1487,-0.0933,-0.0807,-0.0832,-0.0782,-0.0376,0.0,0.0,0.0,0.0,0.0,0.0,0.0,0.0,0.0,0.0,0.0,0.0117,0.0185,0.0185,0.039,0.0592,0.0729,0.0903,0.1121,0.1368,0.1391,0.1391,0.1391,0.1391,0.1391,0.1391,0.1391,0.1391,0.1391,0.1391,0.1391,0.1391,0.1391,0.1391,0.1391,0.1391,0.1391,0.1391,0.1391,0.1391,-0.7942,-0.7988,-0.7988,-0.7988,-0.7989,-0.7925,-0.7776,-0.7655,-0.7506,-0.7376,-0.7202,-0.7095,-0.7095,-0.7241,-0.7383,-0.757,-0.7692,-0.7807,-0.7989,-0.7988,-0.7988,-0.7988,-0.7988,0.0,-0.7988,-0.7988,-0.7988,-0.7988,-0.7988,-0.7988,-0.7988,-0.7988,-0.7988,-0.7988,-0.7988,-0.7988,-0.7988,-0.7988,-0.7988,-0.7988,-0.7988,-0.7988,-0.7988,-0.7988,-0.7892,-0.7696,-0.7696,-0.7543,-0.7288,-0.7288,-0.7092,-0.6795,-0.6795,-0.6639,-0.6412,-0.6412,-0.6412,-0.6287,-0.5436,-0.4985,-0.4659,-0.3827,-0.2091,-0.0353,-0.0353,-0.0782,-0.1135,-0.0505,-0.0782,-0.111,-0.0505,-0.0177,0.0,0.0,0.0,0.0,0.0,0.0,0.0,0.0,0.0,0.0,0.0,0.0,0.0,0.0,0.0188,0.0326,0.0396,0.0528,0.0795,0.1205,0.124,0.1278,0.1323,0.1345,0.1345,0.1391,0.1391,0.1391,0.1391,0.1391,0.1391,0.1391,0.1391,0.1391,0.1391,0.1391,0.1391,0.1391,0.1391,0.1391,-0.7969,-0.7988,-0.7988,-0.7988,-0.7908,-0.7794,-0.7651,0.0,-0.7372,-0.7171,-0.7105,-0.7095,-0.7095,-0.7109,-0.7235,-0.7553,-0.7611,-0.7719,-0.7973,-0.7988,-0.7988,-0.7988,0.0,0.0,-0.7988,-0.7988,-0.7988,-0.7988,-0.7988,-0.7988,-0.7988,-0.7988,-0.7988,-0.7988,-0.7988,-0.7988,-0.7988,-0.7988,-0.7988,-0.7988,-0.7988,-0.7988,-0.7988,-0.7988,-0.7988,-0.7967,-0.7967,-0.7817,-0.7572,-0.7572,-0.7269,-0.6795,-0.6795,-0.6639,-0.6412,-0.6412,-0.6412,-0.6387,-0.6284,-0.5611,-0.4784,-0.4684,-0.3198,-0.1462,-0.1462,-0.0832,-0.0328,-0.121,-0.0832,-0.0353,-0.1235,-0.0732,0.0,0.0,0.0,0.0,0.0,0.0,0.0,0.0,0.0,0.0,0.0,0.0,0.0,0.0,0.0024,0.0119,0.038,0.0427,0.0521,0.0735,0.0757,0.0852,0.1099,0.1121,0.1211,0.1391,0.1391,0.1391,0.1391,0.1391,0.1391,0.1391,0.1391,0.1391,0.1391,0.1391,0.1391,0.1391,0.1391,0.1391,-0.7814,-0.7878,-0.7878,-0.7878,-0.7834,-0.775,-0.7539,0.0,-0.7348,-0.7151,-0.7095,-0.7095,-0.7095,-0.7095,-0.7188,-0.7428,-0.7539,-0.7672,-0.7851,-0.7956,-0.7988,-0.7988,-0.7988,-0.7988,0.0,-0.7988,-0.8054,-0.817,-0.8067,-0.8054,-0.8174,-0.8067,-0.7988,-0.7988,-0.7988,-0.7988,-0.7988,-0.7988,-0.7988,-0.7988,-0.7988,-0.7988,-0.7988,-0.7988,-0.7988,-0.7988,-0.7988,-0.7942,-0.7842,-0.7842,-0.7618,-0.7269,-0.7116,-0.6864,-0.6614,-0.6462,-0.6412,-0.6412,-0.6412,-0.6109,-0.5762,-0.5762,-0.4755,-0.3274,-0.1991,-0.1311,-0.0908,-0.0707,-0.0328,-0.0101,-0.053,-0.0328,0.0,0.0,0.0,0.0,0.0,0.0,0.0,0.0,0.0,0.0,0.0,0.0,0.0,0.0,0.0,0.0049,0.0146,0.0168,0.0191,0.0262,0.054,0.0815,0.1071,0.1094,0.1204,0.1441,0.1463,0.1432,0.1391,0.1391,0.1391,0.1391,0.1391,0.1391,0.1391,0.1391,0.1391,0.1391,0.1391,0.1391,-0.7678,-0.775,-0.775,-0.775,-0.7716,-0.7628,-0.744,0.0,-0.7272,-0.7119,-0.7095,-0.7095,-0.7095,-0.7095,-0.7168,-0.7369,-0.7522,-0.7648,-0.779,-0.7918,-0.7988,-0.7988,0.0,-0.7988,-0.7988,-0.8054,-0.8153,-0.8287,-0.8208,-0.8218,-0.8352,-0.8228,-0.8104,-0.7992,-0.8057,-0.8081,-0.8081,-0.8081,-0.8081,-0.8081,-0.8037,-0.7988,-0.7988,-0.7988,-0.7988,-0.7988,-0.7988,-0.7988,-0.7988,-0.7988,-0.7842,-0.7572,-0.7391,-0.7116,-0.6767,-0.6589,-0.6462,-0.6412,-0.6412,-0.6412,-0.6412,-0.6412,-0.5884,-0.4933,-0.3098,-0.2091,-0.1437,-0.0681,-0.0252,0.0,0.0,0.0,0.0,0.0,0.0,0.0,0.0,0.0,0.0,0.0,0.0,0.0,0.0,0.0,0.0,0.0,0.0,0.0,0.0,0.0,0.0,0.0,0.0291,0.0628,0.0978,0.1001,0.1161,0.1472,0.1494,0.1485,0.144,0.1439,0.1439,0.1439,0.1439,0.1439,0.1439,0.1439,0.1439,0.1439,0.1439,0.1439,-0.756,-0.76,-0.76,-0.76,-0.7512,-0.7396,-0.7393,-0.7251,-0.7098,-0.7095,-0.7095,-0.7095,-0.7095,-0.7095,-0.7168,-0.7369,-0.7522,-0.7648,-0.779,-0.7918,-0.7988,0.0,-0.7988,-0.7988,-0.7988,-0.8177,-0.8294,-0.8298,-0.8423,-0.8505,-0.8505,-0.8505,-0.8343,-0.7998,-0.8187,-0.8294,-0.8294,-0.8294,-0.8294,-0.8294,-0.8088,-0.7988,-0.7988,-0.7988,-0.7988,-0.7988,-0.7988,-0.7988,-0.7988,-0.7988,-0.7842,-0.7596,-0.7596,-0.7269,-0.6795,-0.6795,-0.6639,-0.6412,-0.6412,-0.6412,-0.6412,-0.6412,-0.6387,-0.6187,-0.5085,-0.3274,-0.1588,-0.1588,-0.0807,0.0,0.0,0.0,0.0,0.0,0.0,0.0,0.0,0.0,0.0,0.0,0.0,0.0,0.0,0.0,0.0,0.0,0.0,0.0,0.0,0.0,0.0,0.0,0.0,0.0224,0.0765,0.0811,0.1001,0.1478,0.1502,0.1502,0.1501,0.1501,0.1501,0.1501,0.1501,0.1501,0.1501,0.1501,0.1501,0.1501,0.1501,0.1501,-0.7423,-0.7467,-0.7467,-0.7467,-0.743,-0.7365,-0.7215,-0.7154,-0.7095,-0.7095,-0.7095,-0.7095,-0.7095,-0.7095,-0.7112,-0.7185,-0.7431,-0.7614,-0.7658,-0.7858,0.0,-0.7988,-0.8133,-0.8197,-0.8197,-0.8355,-0.8485,-0.8564,-0.8516,-0.8526,-0.8632,-0.8537,-0.8438,-0.8347,-0.8391,-0.844,-0.844,-0.844,-0.8393,-0.8298,-0.8247,-0.8143,-0.7988,-0.7988,-0.7988,-0.7988,-0.7988,-0.7988,-0.7988,-0.7988,-0.7939,-0.7842,-0.7671,-0.7497,-0.7297,-0.6945,-0.6742,-0.6642,-0.6462,-0.6412,-0.6412,-0.6412,-0.6412,-0.6337,-0.5987,-0.4908,-0.3475,-0.2016,-0.1361,-0.0933,-0.0202,0.0,0.0,0.0,0.0,0.0,0.0,0.0,0.0,0.0,0.0,0.0,0.0,0.0,0.0,0.0,0.0,0.0,0.0,0.0,0.0,0.0,0.0,0.0226,0.0745,0.0794,0.1011,0.1534,0.1557,0.1548,0.1503,0.1502,0.1502,0.1502,0.1502,0.1502,0.1502,0.1502,0.1502,0.1502,0.1502,0.1502,-0.7348,-0.7285,-0.7285,-0.7285,-0.7285,0.0,-0.7141,-0.7095,-0.7095,-0.7095,-0.7095,-0.7095,-0.7095,-0.7095,-0.7115,-0.7195,-0.7438,-0.7617,-0.7672,-0.7861,-0.7988,-0.7988,-0.8177,-0.8298,-0.8298,-0.8478,-0.8608,-0.8703,-0.8676,-0.8696,-0.8764,-0.8706,-0.8655,-0.8655,-0.8598,-0.8567,-0.8567,-0.8567,-0.8523,-0.8461,-0.8349,-0.8247,-0.8101,-0.804,-0.7988,-0.7988,-0.7988,-0.7988,0.0,-0.7988,-0.7988,-0.7988,-0.7817,-0.7696,-0.7572,-0.7219,-0.697,-0.6767,-0.6614,-0.6487,-0.6412,-0.6412,-0.6412,-0.6412,-0.6412,-0.5659,-0.4431,-0.2695,-0.1915,-0.1437,-0.0782,-0.0303,0.0,0.0,0.0,0.0,0.0,0.0,0.0,0.0,0.0,0.0,0.0,0.0,0.0,0.0,0.0,0.0,0.0,0.0,0.0,0.0,0.0101,0.0328,0.0758,0.0808,0.103,0.1565,0.1589,0.158,0.1537,0.1536,0.1536,0.1536,0.1536,0.1536,0.1536,0.1536,0.1536,0.1536,0.1536,0.1536,0.0,-0.7161,-0.7095,-0.7095,-0.7095,-0.7095,-0.7095,-0.7095,0.0,-0.7095,-0.7095,-0.7095,-0.7095,-0.7105,-0.7181,-0.7372,-0.7532,-0.7662,-0.779,-0.7918,-0.7992,-0.803,-0.8191,-0.8315,-0.8325,-0.856,-0.8726,-0.8726,-0.8831,-0.8912,-0.8912,-0.8912,-0.8912,-0.8912,-0.8774,-0.8726,-0.8726,-0.8726,-0.872,-0.8706,-0.8457,-0.8318,-0.8291,-0.8098,-0.8027,-0.7988,-0.7988,-0.7988,-0.7988,-0.7988,-0.7988,-0.7988,-0.7988,-0.7842,-0.7621,-0.7596,-0.7269,-0.6817,-0.682,-0.6614,-0.6412,-0.6412,-0.6412,-0.6412,-0.6412,-0.5712,-0.4682,-0.3626,-0.2595,-0.179,-0.1639,-0.0858,-0.0101,-0.0025,0.0,0.0,0.0,0.0,0.0,0.0,0.0,0.0,0.0,0.0,0.0,0.0,0.0,0.0,0.0,0.0,0.0,0.0,0.0227,0.048,0.0783,0.0808,0.1061,0.1566,0.1592,0.1592,0.1592,0.1592,0.1592,0.1592,0.1592,0.1592,0.1592,0.1592,0.1592,0.1592,0.1592,0.1592,-0.843,0.0,-0.7095,-0.7095,-0.7095,-0.7095,0.0,0.0,0.0,0.0,0.0,0.0,-0.7095,-0.7238,-0.7352,-0.7389,-0.759,-0.7773,-0.7807,-0.7918,-0.8057,-0.8204,-0.8369,-0.8505,-0.8598,-0.8747,-0.8855,-0.8855,-0.8889,-0.8912,-0.8912,-0.8912,-0.8912,-0.8912,-0.8875,-0.8855,-0.8855,-0.8855,-0.8798,-0.871,-0.8638,-0.8489,-0.8294,-0.826,-0.815,-0.7988,-0.7988,-0.7988,-0.7988,-0.7988,-0.7988,-0.7988,-0.7988,-0.7967,-0.7892,-0.7671,-0.7394,-0.7089,-0.6867,-0.6614,-0.6412,-0.6412,-0.6412,-0.6412,-0.6412,-0.6237,-0.5809,-0.4732,-0.423,-0.3676,-0.2016,-0.1412,-0.1009,-0.0202,0.0,0.0,0.0,0.0,0.0,0.0,0.0,0.0,0.0,0.0,0.0,0.0,0.0,0.0,0.0,0.0,0.0,0.0,0.0051,0.0278,0.0758,0.0985,0.1237,0.1592,0.1592,0.1592,0.1592,0.1592,0.1592,0.1592,0.1592,0.1592,0.1592,0.1592,0.1592,0.1592,0.1592,0.1592,-0.9274,-0.8452,-0.7643,-0.7205,-0.7095,-0.7095,-0.7095,0.0,0.0,0.0,0.0,0.0,0.0,-0.7338,-0.7437,-0.7573,-0.7706,-0.781,-0.7881,-0.8023,-0.8177,-0.8284,-0.8485,-0.8618,-0.8703,-0.8821,-0.8912,-0.8912,-0.8912,-0.8912,-0.8912,-0.8912,-0.8912,-0.8912,-0.8912,-0.8912,-0.8912,-0.8912,-0.8869,-0.8787,-0.8716,-0.8625,-0.8469,-0.8359,-0.825,-0.814,-0.8044,-0.7988,-0.7988,-0.7988,-0.7988,-0.7988,-0.7988,-0.7988,-0.7988,-0.7842,-0.7618,-0.7341,-0.7067,-0.6739,-0.6412,-0.6412,-0.6412,-0.6412,-0.6412,-0.6412,-0.6287,-0.5687,-0.5186,-0.4431,-0.2771,-0.1966,-0.1336,-0.0252,0.0,0.0,0.0,0.0,0.0,0.0,0.0,0.0,0.0,0.0,0.0,0.0,0.0,0.0,0.0,0.0,0.0,0.0,0.0227,0.048,0.0783,0.1162,0.144,0.1592,0.1592,0.1592,0.1592,0.1592,0.1592,0.1592,0.1592,0.1592,0.1592,0.1592,0.1592,0.1592,0.1592,0.1592,-0.9771,-0.9104,-0.8281,-0.7338,-0.7095,-0.7095,-0.7095,0.0,0.0,0.0,0.0,0.0,0.0,-0.743,0.0,-0.777,-0.7807,-0.7868,-0.7971,-0.8174,-0.8304,-0.8325,-0.8543,-0.872,-0.8716,-0.8835,-0.8912,-0.8912,-0.8912,-0.8912,-0.8912,-0.8912,-0.8912,-0.8912,-0.8912,-0.8912,-0.8912,-0.8912,-0.8912,-0.8909,-0.8781,-0.8733,-0.8703,-0.8478,-0.8352,-0.8321,-0.814,0.0,-0.8047,-0.8023,-0.7988,-0.7988,-0.7988,-0.7988,-0.7988,-0.7988,-0.7842,-0.7547,-0.7241,-0.6811,-0.6412,-0.6412,-0.6412,-0.6412,-0.6412,-0.6412,-0.6412,-0.6412,-0.5734,-0.4807,-0.3726,-0.2645,-0.1563,-0.0505,-0.0126,0.0,0.0,0.0,0.0,0.0,0.0,0.0,0.0,0.0,0.0,0.0,0.0,0.0,0.0,0.0,0.0,0.0,0.0455,0.0758,0.0808,0.1263,0.1566,0.1592,0.1592,0.1592,0.1592,0.1592,0.1592,0.1592,0.1592,0.1592,0.1592,0.1592,0.1592,0.1592,0.1592,0.1592,-0.9148,-0.8606,-0.8281,-0.7338,-0.7095,-0.7095,-0.7095,0.0,0.0,0.0,0.0,0.0,0.0,-0.7577,-0.7756,-0.7804,-0.7895,-0.7989,-0.7985,-0.8174,-0.8342,-0.8461,-0.8604,-0.8733,-0.8865,-0.8896,-0.8912,-0.8912,-0.8912,-0.8912,-0.8912,-0.8912,-0.8912,-0.8912,-0.8912,-0.8912,-0.8912,-0.8912,-0.8912,-0.8912,-0.8885,-0.8808,-0.871,-0.8662,-0.857,-0.8468,0.0,-0.826,-0.825,-0.8067,-0.7988,-0.7988,-0.7988,-0.7988,-0.7988,-0.7988,-0.7842,-0.7522,-0.7042,-0.6664,-0.6412,-0.6412,-0.6412,-0.6412,-0.6412,-0.6412,-0.6412,-0.6412,-0.6284,-0.5909,-0.4832,-0.3753,-0.2695,-0.1613,-0.0656,0.0,0.0,0.0,0.0,0.0,0.0,0.0,0.0,0.0,0.0,0.0,0.0,0.0,0.0,0.0,0.0,0.0,0.0278,0.0556,0.0783,0.1086,0.1364,0.1592,0.1592,0.1592,0.1592,0.1592,0.1592,0.1592,0.1592,0.1592,0.1592,0.1592,0.1592,0.1592,0.1592,0.1592,-0.8737,-0.8127,-0.7643,-0.7205,-0.7095,-0.7095,-0.7095,0.0,0.0,0.0,0.0,0.0,-0.758,-0.7719,-0.7814,-0.7898,-0.7969,-0.7988,-0.7988,-0.8238,-0.8437,-0.8502,-0.8689,-0.8835,-0.8902,-0.8912,-0.8912,-0.8912,-0.8912,-0.8912,-0.8912,-0.8912,-0.8912,-0.8912,-0.8912,-0.8912,-0.8912,-0.8912,-0.8912,-0.8912,-0.8912,-0.8875,-0.8804,-0.872,-0.8672,-0.8598,0.0,-0.841,-0.8406,-0.8309,-0.8231,-0.8163,-0.8163,-0.8088,-0.7988,-0.7988,-0.7842,-0.7547,-0.7141,-0.6839,-0.6589,-0.6437,-0.6412,-0.6412,-0.6412,-0.6412,-0.6412,-0.6412,-0.6412,-0.6162,-0.5085,-0.4004,-0.2922,-0.1865,-0.0782,0.0,0.0,0.0,0.0,0.0,0.0,0.0,0.0,0.0,0.0,0.0,0.0,0.0,0.0,0.0,0.0,0.0,0.0379,0.0657,0.0783,0.1187,0.1465,0.1592,0.1592,0.1592,0.1592,0.1592,0.1592,0.1592,0.1592,0.1592,0.1592,0.1592,0.1592,0.1592,0.1592,0.1592,-0.8306,-0.7735,-0.7187,-0.7187,-0.7143,-0.7105,-0.7164,-0.7171,-0.7215,0.0,-0.7474,-0.7566,-0.777,-0.7817,-0.7878,-0.7996,-0.7988,-0.8027,-0.8064,-0.8316,-0.8522,-0.853,-0.8747,-0.8912,-0.8912,-0.8912,-0.8912,-0.8912,-0.8912,-0.8912,-0.8912,-0.8912,-0.8912,-0.8912,-0.8912,-0.8912,-0.8912,-0.8912,-0.8912,-0.8912,-0.8912,-0.8912,-0.8906,-0.8791,-0.8737,-0.873,-0.8601,-0.8533,-0.8533,-0.8522,-0.8444,-0.8345,-0.8345,-0.8228,-0.8064,-0.803,-0.7842,-0.7572,-0.7366,-0.7067,-0.6767,-0.6564,-0.6462,-0.6412,-0.6412,-0.6412,-0.6412,-0.6412,-0.6412,-0.6209,-0.5386,-0.4379,-0.3299,-0.2242,-0.116,-0.0303,-0.0051,0.0,0.0,0.0,0.0,0.0,0.0,0.0,0.0,0.0,0.0,0.0,0.0,0.0,0.0,0.0,0.048,0.0859,0.0985,0.1364,0.1592,0.1592,0.1592,0.1592,0.1592,0.1592,0.1592,0.1592,0.1592,0.1592,0.1592,0.1592,0.1592,0.1592,0.1592,0.1592,-0.7746,-0.7529,-0.7462,-0.7462,-0.7279,-0.7154,-0.7345,-0.7379,-0.742,-0.7553,-0.7689,-0.7787,-0.7807,-0.7902,-0.7978,-0.7988,-0.7988,-0.8064,-0.826,-0.841,-0.8533,-0.8676,-0.8811,-0.8912,-0.8912,-0.8912,-0.8912,-0.8912,-0.8912,-0.8912,-0.8912,-0.8912,-0.8912,-0.8912,-0.8912,-0.8912,-0.8912,-0.8912,-0.8912,-0.8912,-0.8912,-0.8912,-0.8912,-0.8899,-0.8896,-0.8885,-0.8733,-0.8696,-0.8682,-0.854,-0.8502,-0.8492,-0.8492,-0.8406,-0.8264,-0.8067,-0.7842,-0.7596,-0.7572,-0.7244,-0.6795,-0.6767,-0.6614,-0.6412,-0.6412,-0.6412,-0.6412,-0.6412,-0.6412,-0.6387,-0.6312,-0.5484,-0.4406,-0.3349,-0.2267,-0.121,-0.0227,0.0,0.0,0.0,0.0,0.0,0.0,0.0,0.0,0.0,0.0,0.0,0.0,0.0,0.0,0.0,0.048,0.101,0.1491,0.1566,0.1592,0.1592,0.1592,0.1592,0.1592,0.1592,0.1592,0.1592,0.1592,0.1592,0.1592,0.1592,0.1592,0.1592,0.1592,0.1592,-0.7569,-0.7507,-0.7528,-0.7598,-0.7465,-0.7299,-0.7379,-0.7606,-0.7763,-0.7726,-0.7897,-0.8018,-0.7936,-0.7976,-0.7988,-0.7988,-0.8094,-0.8204,-0.8287,-0.8476,-0.8645,-0.8703,-0.8818,-0.8912,-0.8912,-0.8912,-0.8912,-0.8912,-0.8912,-0.8912,-0.8912,-0.8912,-0.8912,-0.8912,-0.8912,-0.8912,-0.8912,-0.8912,-0.8912,-0.8912,-0.8912,-0.8912,-0.8912,-0.8912,-0.8912,-0.8906,-0.8848,-0.8825,-0.8821,-0.8764,-0.871,-0.8615,-0.8546,-0.8475,-0.842,-0.8336,-0.8239,-0.8136,-0.7959,-0.7619,-0.7217,-0.7039,-0.6729,-0.6412,-0.6412,-0.6412,-0.6412,-0.6412,-0.6412,-0.6412,-0.6412,-0.5611,-0.4709,-0.428,-0.2871,-0.1487,-0.1085,-0.0479,0.0,0.0,0.0,0.0,0.0,0.0,0.0,0.0,0.0,0.0,0.0,0.0,0.0,0.0,0.048,0.101,0.1566,0.1592,0.1592,0.1592,0.1592,0.1592,0.1592,0.1592,0.1592,0.1592,0.1592,0.1592,0.1592,0.1592,0.1592,0.1592,0.1592,0.1592,-0.7569,-0.7617,-0.7653,-0.7782,-0.7816,-0.7797,-0.778,-0.7922,-0.8066,-0.8118,-0.8251,-0.8335,-0.8166,-0.8137,-0.813,-0.8102,-0.8201,-0.8328,-0.842,-0.8584,-0.8726,-0.875,-0.8848,-0.8912,-0.8912,-0.8912,-0.8912,-0.8912,-0.8912,-0.8912,-0.8912,-0.8912,-0.8912,-0.8912,-0.8912,-0.8912,-0.8912,-0.8912,-0.8912,-0.8912,-0.8912,-0.8912,-0.8912,-0.8912,-0.8912,-0.8912,-0.8912,-0.8912,-0.8912,-0.8912,-0.8848,-0.874,-0.8615,-0.8554,-0.855,-0.8526,-0.8509,-0.8482,-0.8302,-0.8001,-0.7665,-0.7484,-0.7061,-0.6653,-0.6653,-0.6602,-0.6525,-0.6525,-0.6525,-0.6517,-0.6479,-0.5886,-0.5211,-0.4885,-0.3425,-0.2016,-0.1664,-0.0757,0.0,0.0,0.0,0.0,0.0,0.0,0.0,0.0,0.0,0.0,0.0,0.0,0.0076,0.0227,0.0581,0.101,0.1566,0.1592,0.1592,0.1592,0.1592,0.1592,0.1592,0.1592,0.1592,0.1592,0.1592,0.1592,0.1592,0.1592,0.1592,0.1592,0.1592,0.1592,-0.7764,-0.79,-0.7941,-0.8065,0.0,0.0,-0.8629,-0.8404,-0.8327,-0.8717,-0.88,-0.8726,-0.8457,-0.8407,-0.8389,-0.8321,-0.8298,-0.8403,-0.8669,-0.8713,-0.874,-0.8892,-0.8912,-0.8912,-0.8912,-0.8912,-0.8912,-0.8912,-0.8912,-0.8912,-0.8912,-0.8912,-0.8912,-0.8912,-0.8912,-0.8912,-0.8912,-0.8912,-0.8912,-0.8912,-0.8912,-0.8912,-0.8912,-0.8912,-0.8912,-0.8912,-0.8912,-0.8912,-0.8912,-0.8912,-0.8912,-0.8896,-0.8743,-0.8713,-0.8696,-0.854,-0.8512,-0.8512,-0.8512,-0.8328,-0.8095,-0.8095,-0.7697,-0.7191,-0.7191,-0.7009,-0.6801,-0.6801,-0.6801,-0.6774,-0.6628,-0.6504,-0.6137,-0.506,-0.3979,-0.2897,-0.1839,-0.0757,0.0,0.0,0.0,0.0,0.0,0.0,0.0,0.0,0.0,0.0,0.0,0.0,0.0202,0.0732,0.0808,0.101,0.1566,0.1592,0.1592,0.1592,0.1592,0.1592,0.1592,0.1592,0.1592,0.1592,0.1592,0.1592,0.1592,0.1592,0.1592,0.1592,0.1592,0.1592,-0.8025,-0.8205,-0.8359,-0.8479,0.0,0.0,0.0,-0.8962,0.0,0.0,-0.8928,-0.8726,-0.8457,-0.8524,-0.8544,-0.8338,-0.8471,-0.8611,-0.8699,-0.8777,-0.8862,-0.8906,-0.8912,-0.8912,-0.8912,-0.8912,-0.8912,-0.8912,-0.8912,-0.8912,-0.8912,-0.8912,-0.8912,-0.8912,-0.8912,-0.8912,-0.8912,-0.8912,-0.8912,-0.8912,-0.8912,-0.8912,-0.8912,-0.8912,-0.8912,-0.8912,-0.8912,-0.8912,-0.8912,-0.8912,-0.8912,-0.8906,-0.8862,-0.8841,-0.8838,-0.8791,-0.8777,-0.8777,-0.8777,-0.8544,-0.8217,-0.8026,-0.7611,-0.7167,-0.6986,-0.6854,-0.6801,-0.6801,-0.6801,-0.6793,-0.6757,-0.6719,-0.6546,-0.605,-0.4529,-0.3123,-0.2796,-0.1286,0.0,0.0,0.0,0.0,0.0,0.0,0.0,0.0,0.0,0.0,0.0,0.0,0.0202,0.0732,0.0808,0.101,0.1566,0.1592,0.1592,0.1592,0.1592,0.1592,0.1592,0.1592,0.1592,0.1592,0.1592,0.1592,0.1592,0.1592,0.1592,0.1592,0.1592,0.1592,-0.8028,-0.8199,-0.839,-0.8645,-0.8819,-0.8994,-0.9292,0.0,0.0,0.0,-0.9229,-0.9071,-0.8864,-0.8935,-0.8969,-0.8838,-0.8856,-0.8946,-0.9117,-0.8989,-0.8937,-0.9075,-0.8992,-0.8912,-0.8912,-0.8912,-0.8912,-0.8912,-0.8912,-0.8912,-0.8912,-0.8912,-0.8912,-0.8912,-0.8912,-0.8912,-0.8912,-0.8912,-0.8912,-0.8912,-0.8912,-0.8912,-0.8912,-0.8912,-0.8912,-0.8912,-0.8912,-0.8912,-0.8912,-0.8912,-0.8912,-0.8912,-0.8912,-0.8912,-0.8912,-0.8912,-0.8912,-0.8912,-0.8912,-0.8742,-0.8505,-0.8362,-0.7949,-0.7478,-0.7319,-0.7131,-0.6969,-0.6969,-0.6969,-0.6958,-0.6888,-0.6874,-0.669,-0.6004,-0.4525,-0.3158,-0.2679,-0.1224,0.0,0.0,0.0,0.0,0.0,0.0,0.0,0.0,0.0,0.0,0.0,0.0,0.0202,0.0732,0.0808,0.101,0.1566,0.1592,0.1592,0.1592,0.1592,0.1592,0.1592,0.1592,0.1592,0.1592,0.1592,0.1592,0.1592,0.1592,0.1592,0.1592,0.1592,0.1592,-0.7878,-0.8054,-0.8249,-0.8648,-0.9088,0.0,-0.9567,-0.9603,-0.9603,-0.9603,0.0,-0.9598,-0.9505,-0.953,-0.9552,-0.9594,-0.942,-0.9374,-0.9739,-0.932,-0.9075,-0.9379,-0.913,-0.8937,-0.8912,-0.8912,-0.8912,-0.8912,-0.8912,-0.8912,-0.8912,-0.8912,-0.8912,-0.8912,-0.8912,-0.8912,-0.8912,-0.8912,-0.8912,-0.8912,-0.8912,-0.8912,-0.8912,-0.8912,-0.8912,-0.8912,-0.8912,-0.8912,-0.8912,-0.8912,-0.8912,-0.8912,-0.8912,-0.8912,-0.8912,-0.8912,-0.8912,-0.8912,-0.8912,-0.8912,-0.8881,-0.8881,-0.8491,-0.8045,-0.7989,-0.7629,-0.7238,-0.721,-0.721,-0.7185,-0.7054,-0.7027,-0.6645,-0.5223,-0.4125,-0.3067,-0.185,-0.0754,0.0,0.0,0.0,0.0,0.0,0.0,0.0,0.0,0.0,0.0,0.0,0.0,0.0202,0.0707,0.0783,0.101,0.1516,0.1592,0.1592,0.1592,0.1592,0.1592,0.1592,0.1592,0.1592,0.1592,0.1592,0.1592,0.1592,0.1592,0.1592,0.1592,0.1592,0.1592,-0.8344,-0.8498,0.0,-0.8944,-0.9284,-0.9555,-0.9595,-0.9603,-0.9603,-0.9603,-0.9734,-0.9768,-0.955,-0.9726,-0.9826,-0.9632,-0.9651,-0.9693,-0.9785,-0.9678,-0.9541,-0.9406,-0.9323,-0.9185,-0.8937,-0.8912,-0.8912,-0.8912,-0.8912,-0.8912,-0.8912,-0.8912,-0.8912,-0.8912,-0.8912,-0.8912,-0.8912,-0.8912,-0.8912,-0.8912,-0.8912,-0.8912,-0.8912,-0.8912,-0.8912,-0.8912,-0.8912,-0.8912,-0.8912,-0.8912,-0.8912,-0.8912,-0.8912,-0.8912,-0.8912,-0.8912,-0.8912,-0.8912,-0.8912,-0.8912,-0.8854,-0.8654,-0.8488,-0.8291,-0.7826,-0.7607,-0.7465,-0.7265,-0.721,-0.7204,-0.7152,-0.7147,-0.6611,-0.4429,-0.3631,-0.3079,-0.1854,-0.0768,0.0,0.0,0.0,0.0,0.0,0.0,0.0,0.0,0.0,0.0,0.0,0.0,0.0126,0.0455,0.0682,0.0934,0.1263,0.1491,0.1592,0.1592,0.1592,0.1592,0.1592,0.1592,0.1592,0.1592,0.1592,0.1592,0.1592,0.1592,0.1592,0.1592,0.1592,0.1592,-0.834,-0.854,0.0,-0.9236,0.0,-0.9603,-0.9603,-0.9603,-0.9603,-0.9603,-0.9766,-0.9887,-0.9848,-1.0031,-1.0184,-1.0132,-1.0085,-1.0091,-1.0198,-0.9981,-0.9816,-0.9816,-0.9572,-0.9323,-0.9158,-0.8992,-0.8912,-0.8912,-0.8912,-0.8912,-0.8912,-0.8912,-0.8912,-0.8912,-0.8912,-0.8912,-0.8912,-0.8912,-0.8912,-0.8912,-0.8912,-0.8912,-0.8912,-0.8912,-0.8912,-0.8912,-0.8912,-0.8912,-0.8912,-0.8912,-0.8912,-0.8912,-0.8912,-0.8912,-0.8912,-0.8912,-0.8912,-0.8912,-0.8912,-0.8912,-0.8881,-0.874,-0.8598,-0.8401,-0.7937,-0.7715,-0.7551,-0.7268,-0.721,-0.721,-0.721,-0.721,-0.6594,-0.4167,-0.3559,-0.3017,-0.1216,-0.0405,0.0,0.0,0.0,0.0,0.0,0.0,0.0,0.0,0.0,0.0,0.0,0.0,0.0101,0.0379,0.053,0.0758,0.1162,0.1339,0.1465,0.1592,0.1592,0.1592,0.1592,0.1592,0.1592,0.1592,0.1592,0.1592,0.1592,0.1592,0.1592,0.1592,0.1592,0.1592,-0.8201,-0.8472,-0.891,-0.9461,-0.9603,0.0,-0.9603,-0.9603,-0.9603,-0.9603,-0.9791,-1.0003,-1.0162,-1.0339,-1.0498,-1.0668,-1.05,-1.0445,-1.0665,-1.0284,-1.0036,-1.0257,-0.9844,-0.9544,-0.9489,-0.9185,-0.8992,-0.8992,-0.8937,-0.8912,-0.8912,-0.8912,-0.8912,-0.8912,-0.8912,-0.8912,-0.8912,-0.8912,-0.8912,-0.8912,-0.8912,-0.8912,-0.8912,-0.8912,-0.8912,-0.8912,-0.8912,-0.8912,-0.8912,-0.8912,-0.8912,-0.8912,-0.8912,-0.8912,-0.8912,-0.8912,-0.8912,-0.8912,-0.8912,-0.8912,-0.8912,-0.8912,-0.874,-0.8515,-0.8183,-0.7934,-0.7687,-0.7351,-0.7268,-0.7213,-0.696,-0.6902,-0.6288,-0.3858,-0.3301,-0.2676,-0.0468,0.0,0.0,0.0,0.0,0.0,0.0,0.0,0.0,0.0,0.0,0.0,0.0,0.0,0.0076,0.0303,0.0379,0.0581,0.1035,0.1136,0.1288,0.1516,0.1566,0.1592,0.1592,0.1592,0.1592,0.1592,0.1592,0.1592,0.1592,0.1592,0.1592,0.1592,0.1592,0.1592,-0.8157,0.0,-0.9134,0.0,-0.9603,-0.9603,0.0,0.0,-0.9603,0.0,-0.9892,-1.0158,-1.0208,-1.0459,-1.0664,-1.0688,-1.0665,-1.0665,-1.0692,-1.0637,-1.05,-1.0312,-1.0229,-1.0064,-0.9761,-0.9485,-0.9323,-0.9323,-0.9075,-0.8912,-0.8912,-0.8912,-0.8912,-0.8912,-0.8912,-0.8912,-0.8912,-0.8912,-0.8912,-0.8912,-0.8912,-0.8912,-0.8912,-0.8912,-0.8912,-0.8912,-0.8912,-0.8912,-0.8912,-0.8912,-0.8912,-0.8912,-0.8912,-0.8912,-0.8912,-0.8912,-0.8912,-0.8912,-0.8912,-0.8912,-0.8912,-0.8912,-0.8881,-0.8799,-0.8515,-0.8401,-0.8266,-0.7715,-0.7551,-0.7243,-0.5984,-0.565,-0.5033,-0.2601,-0.2043,-0.1679,-0.0307,0.0,0.0,0.0,0.0,0.0,0.0,0.0,0.0,0.0,0.0,0.0,0.0,0.0,0.0025,0.0051,0.0253,0.0429,0.0505,0.0934,0.1212,0.1263,0.1465,0.1592,0.1592,0.1592,0.1592,0.1592,0.1592,0.1592,0.1592,0.1592,0.1592,0.1592,0.1592,0.1592,-0.8366,-0.8786,-0.9181,0.0,-0.9603,-0.9603,-0.9603,-0.9603,-0.9603,-0.9603,-0.9827,-1.0064,-1.017,-1.0479,-1.0692,-1.0692,-1.0692,-1.0692,-1.0692,-1.0692,-1.0665,-1.0527,-1.0394,-1.0229,-1.0091,-0.9682,-0.9406,-0.9406,-0.9075,-0.8912,-0.8912,-0.8912,-0.8912,-0.8912,-0.8912,-0.8912,-0.8912,-0.8912,-0.8912,-0.8912,-0.8912,-0.8912,-0.8912,-0.8912,-0.8912,-0.8912,-0.8912,-0.8912,-0.8912,-0.8912,-0.8912,-0.8912,-0.8912,-0.8912,-0.8912,-0.8912,-0.8912,-0.8912,-0.8912,-0.8912,-0.8912,-0.8912,-0.8912,-0.8854,-0.8571,-0.8512,-0.8377,-0.7771,-0.7607,-0.7271,-0.5789,-0.5399,-0.4782,-0.2379,-0.1791,-0.1456,-0.0252,0.0,0.0,0.0,0.0,0.0,0.0,0.0,0.0,0.0,0.0,0.0,0.0,0.0,0.0,0.0,0.0101,0.0227,0.0379,0.0758,0.1035,0.1187,0.144,0.1592,0.1592,0.1592,0.1592,0.1592,0.1592,0.1592,0.1592,0.1592,0.1592,0.1592,0.1592,0.1592,0.0,0.0,-0.9181,-0.9514,-0.9603,-0.9603,0.0,0.0,-0.9603,-0.9603,-0.9766,-0.9966,-1.0154,-1.0443,-1.0639,-1.0684,-1.0692,-1.0692,-1.0692,-1.0692,-1.0692,-1.0692,-1.0527,-1.039,-1.039,-0.9844,-0.9513,-0.9513,-0.913,-0.8912,-0.8912,-0.8912,-0.8912,-0.8912,-0.8912,-0.8912,-0.8912,-0.8912,-0.8912,-0.8912,-0.8912,-0.8912,-0.8912,-0.8912,-0.8912,-0.8912,-0.8912,-0.8912,-0.8912,-0.8912,-0.8912,-0.8912,-0.8912,-0.8912,-0.8912,-0.8912,-0.8912,-0.8912,-0.8912,-0.8912,-0.8912,-0.8912,-0.8912,-0.8854,-0.8654,-0.8598,-0.8488,-0.7965,-0.7771,-0.7296,-0.5507,-0.5005,-0.4336,-0.1903,-0.1344,-0.1092,-0.0196,0.0,0.0,0.0,0.0,0.0,0.0,0.0,0.0,0.0,0.0,0.0,0.0,0.0,0.0,0.0,0.0,0.0076,0.0278,0.0556,0.0808,0.1086,0.1339,0.1541,0.1592,0.1592,0.1592,0.1592,0.1592,0.1592,0.1592,0.1592,0.1592,0.1592,0.1592,0.1592,0.0,-0.8901,0.0,-0.9514,-0.9603,-0.9603,0.0,0.0,-0.9603,-0.9603,-0.9766,-0.9966,-1.0154,-1.0318,-1.0474,-1.0668,-1.0692,-1.0692,-1.0692,-1.0692,-1.0692,-1.0692,-1.0692,-1.0692,-1.0692,-1.0119,-0.9789,-0.9789,-0.9241,-0.8912,-0.8912,-0.8912,-0.8912,-0.8912,-0.8912,-0.8912,-0.8912,-0.8912,-0.8912,-0.8912,-0.8912,-0.8912,-0.8912,-0.8912,-0.8912,-0.8912,-0.8912,-0.8912,-0.8912,-0.8912,-0.8912,-0.8912,-0.8912,-0.8912,-0.8912,-0.8912,-0.8912,-0.8912,-0.8912,-0.8912,-0.8912,-0.8912,-0.8912,-0.8885,-0.8881,-0.8881,-0.8826,-0.8543,-0.8211,-0.7374,-0.4747,-0.3885,-0.3078,-0.0672,-0.0084,-0.0084,0.0,0.0,0.0,0.0,0.0,0.0,0.0,0.0,0.0,0.0,0.0,0.0,0.0,0.0,0.0,0.0,0.0,0.0,0.0025,0.0278,0.053,0.0808,0.1061,0.1339,0.1592,0.1592,0.1592,0.1592,0.1592,0.1592,0.1592,0.1592,0.1592,0.1592,0.1592,0.1592,0.0,0.0,0.0,-0.9417,-0.9396,-0.9381,-0.9554,-0.9455,-0.9381,-0.9554,-0.9652,-0.9774,-0.9974,-1.0233,-1.0462,-1.0664,-1.0692,-1.0692,-1.0692,-1.0692,-1.0692,-1.0692,-1.0692,-1.0692,-1.0692,-1.0335,-1.0036,-0.9816,-0.943,-0.913,-0.8912,-0.8912,-0.8912,-0.8912,-0.8912,-0.8912,-0.8912,-0.8912,-0.8912,-0.8912,-0.8912,-0.8912,-0.8912,-0.8912,-0.8912,-0.8912,-0.8912,-0.8912,-0.8912,-0.8912,-0.8912,-0.8912,-0.8912,-0.8912,-0.8912,-0.8912,-0.8912,-0.8912,-0.8912,-0.8912,-0.8912,-0.8912,-0.8912,-0.8912,-0.8912,-0.8912,-0.8854,-0.8571,-0.8401,-0.7648,-0.4747,-0.3939,-0.3215,-0.0616,0.0,0.0,0.0,0.0,0.0,0.0,0.0,0.0,0.0,0.0,0.0,0.0,0.0,0.0,0.0,0.0,0.0,0.0,0.0,0.0,0.0,0.0253,0.0429,0.053,0.096,0.1237,0.1339,0.1516,0.1592,0.1592,0.1592,0.1592,0.1592,0.1592,0.1592,0.1592,0.1592,0.1592,-0.8215,0.0,0.0,0.0,-0.9392,-0.9356,-0.9455,-0.9335,-0.9261,-0.943,-0.9455,-0.9557,-0.9855,-1.0136,-1.04,-1.0578,-1.0655,-1.0692,-1.0692,-1.0692,-1.0692,-1.0692,-1.0692,-1.0692,-1.0692,-1.0445,-1.0202,-0.9981,-0.9706,-0.9434,-0.9213,-0.913,-0.9023,-0.8912,-0.8912,-0.8912,-0.8912,-0.8912,-0.8912,-0.8912,-0.8912,-0.8912,-0.8912,-0.8912,-0.8912,-0.8912,-0.8912,-0.8912,-0.8912,-0.8912,-0.8912,-0.8912,-0.8912,-0.8912,-0.8912,-0.8912,-0.8912,-0.8912,-0.8912,-0.8912,-0.8912,-0.8912,-0.8912,-0.8912,-0.8912,-0.8912,-0.8854,-0.8685,-0.8571,-0.7842,-0.5023,-0.3547,-0.2321,-0.0448,0.0,0.0,0.0,0.0,0.0,0.0,0.0,0.0,0.0,0.0,0.0,0.0,0.0,0.0,0.0,0.0,0.0,0.0,0.0,0.0,0.0,0.0152,0.0303,0.0404,0.0808,0.1111,0.1187,0.1465,0.1592,0.1592,0.1592,0.1592,0.1592,0.1592,0.1592,0.1592,0.1592,0.1592,0.0,0.0,0.0,0.0,0.0,0.0,-0.9261,0.0,-0.9187,-0.9187,-0.9187,-0.9333,-0.9797,-1.0056,-1.0239,-1.0369,-1.0578,-1.0692,-1.0692,-1.0692,-1.0692,-1.0692,-1.0692,-1.0692,-1.0692,-1.0445,-1.0312,-1.0284,-0.9981,-0.9789,-0.9761,-0.9517,-0.9241,-0.8912,-0.8912,-0.8912,-0.8912,-0.8912,-0.8912,-0.8912,-0.8912,-0.8912,-0.8912,-0.8912,-0.8912,-0.8912,-0.8912,-0.8912,-0.8912,-0.8912,-0.8912,-0.8912,-0.8912,-0.8912,-0.8912,-0.8912,-0.8912,-0.8912,-0.8912,-0.8912,-0.8912,-0.8912,-0.8912,-0.8912,-0.8912,-0.8912,-0.8912,-0.8912,-0.8685,-0.7897,-0.5468,-0.2627,-0.0336,-0.0084,0.0,0.0,0.0,0.0,0.0,0.0,0.0,0.0,0.0,0.0,0.0,0.0,0.0,0.0,0.0,0.0,0.0,0.0,0.0,0.0,0.0,0.0,0.0101,0.0379,0.0631,0.0909,0.1187,0.144,0.1592,0.1592,0.1592,0.1592,0.1592,0.1592,0.1592,0.1592,0.1592,0.1592,-0.8988,0.0,0.0,0.0,0.0,0.0,-0.9133,-0.891,-0.8684,-0.8878,-0.9055,-0.9248,-0.9369,-0.9717,-1.0048,-1.0235,-1.052,-1.0692,-1.0692,-1.0692,-1.0692,-1.0692,-1.0692,-1.0692,-1.0692,-1.0637,-1.0417,0.0,-0.9844,-0.9596,-0.9185,-0.9075,-0.8992,-0.8912,-0.8912,-0.8912,-0.8912,-0.8912,-0.8912,-0.8912,-0.8912,-0.8912,-0.8912,-0.8912,-0.8912,-0.8912,-0.8912,-0.8912,-0.8912,-0.8912,-0.8912,-0.8912,-0.8912,-0.8912,-0.8912,-0.8912,-0.8912,-0.8912,-0.8912,-0.8912,-0.8912,-0.8912,-0.8912,-0.8912,-0.8912,-0.8912,-0.8912,-0.8912,-0.8211,-0.6897,-0.4273,-0.2014,-0.0393,-0.0308,-0.014,0.0,0.0,0.0,0.0,0.0,0.0,0.0,0.0,0.0,0.0,0.0,0.0,0.0,0.0,0.0,0.0,0.0,0.0,0.0,0.0,0.0,0.0025,0.0101,0.0354,0.0631,0.0909,0.1162,0.1415,0.1592,0.1592,0.1592,0.1592,0.1592,0.1592,0.1592,0.1592,0.1592,0.0,0.0,0.0,0.0,0.0,0.0,-0.8832,-0.8634,-0.8457,-0.8602,-0.8754,-0.8907,-0.9006,-0.9318,-0.9619,-0.9721,-1.0028,-1.0362,-1.0656,-1.0692,-1.0692,-1.0692,-1.061,-1.0582,-1.0692,-1.061,-1.039,-1.0036,-1.0009,-0.9734,-0.913,-0.9103,-0.9047,-0.8912,-0.8912,-0.8912,-0.8912,-0.8912,-0.8912,-0.8912,-0.8912,-0.8912,-0.8912,-0.8912,-0.8912,-0.8912,-0.8912,-0.8912,-0.8912,-0.8912,-0.8912,-0.8912,-0.8912,-0.8912,-0.8912,-0.8912,-0.8912,-0.8912,-0.8912,-0.8912,-0.8912,-0.8912,-0.8912,-0.8912,-0.8912,-0.8912,-0.8912,-0.8912,-0.7681,-0.5892,-0.3661,-0.1931,-0.0701,-0.0449,-0.028,-0.014,-0.0028,0.0,0.0,0.0,0.0,0.0,0.0,0.0,0.0,0.0,0.0,0.0,0.0,0.0,0.0,0.0,0.0,0.0,0.0,0.0,0.0,0.0,0.0254,0.053,0.0783,0.1061,0.1314,0.1592,0.1592,0.1592,0.1592,0.1592,0.1592,0.1592,0.1592,0.1592,0.0,0.0,0.0,0.0,-0.8821,0.0,-0.8457,-0.8382,-0.8357,-0.8357,-0.8382,-0.8482,-0.8701,-0.8923,-0.9081,-0.91,-0.9347,-0.9789,-1.0471,-1.0625,-1.0637,-1.061,-1.0421,-1.0394,-1.0582,-1.0394,-1.0229,-1.0202,-1.0174,-0.9899,-0.9379,-0.9351,-0.9213,-0.8912,-0.8912,-0.8912,-0.8912,-0.8912,-0.8912,-0.8912,-0.8912,-0.8912,-0.8912,-0.8912,-0.8912,-0.8912,-0.8912,-0.8912,-0.8912,-0.8912,-0.8912,-0.8912,-0.8912,-0.8912,-0.8912,-0.8912,-0.8912,-0.8912,-0.8912,-0.8912,-0.8912,-0.8912,-0.8912,-0.8912,-0.8912,-0.8912,-0.8854,-0.8574,-0.6922,-0.486,-0.3356,-0.2128,-0.1149,-0.0589,-0.0421,-0.0336,-0.0056,0.0,0.0,0.0,0.0,0.0,0.0,0.0,0.0,0.0,0.0,0.0,0.0,0.0,0.0,0.0,0.0,0.0,0.0,0.0,0.0,0.0,0.0231,0.0483,0.0737,0.1017,0.1295,0.1546,0.1594,0.1592,0.1592,0.1592,0.1592,0.1592,0.1592,0.1592,0.0,0.0,0.0,0.0,-0.8945,0.0,-0.8357,-0.8233,-0.8088,-0.8088,-0.8262,-0.8407,-0.8482,-0.8681,-0.8918,-0.9081,-0.9156,-0.9354,-0.9758,-1.014,-1.0284,-1.0005,-1.017,-1.0202,-1.0009,-0.9926,-0.9816,-0.9599,-0.9323,-0.913,-0.8992,-0.8992,-0.8968,-0.8912,-0.8912,-0.8912,-0.8912,-0.8912,-0.8912,-0.8912,-0.8912,-0.8912,-0.8912,-0.8912,-0.8912,-0.8912,-0.8912,-0.8912,-0.8912,-0.8912,-0.8912,-0.8912,-0.8912,-0.8912,-0.8912,-0.8912,-0.8912,-0.8912,-0.8912,-0.8912,-0.8912,-0.8912,-0.8912,-0.8912,-0.8912,-0.8912,-0.8519,-0.6616,-0.5057,-0.3664,-0.2381,-0.1682,-0.1206,-0.0869,-0.0589,-0.0336,-0.0056,0.0,0.0,0.0,0.0,0.0,0.0,0.0,0.0,0.0,0.0,0.0,0.0,0.0,0.0,0.0,0.0,0.0,0.0,0.0,0.0,0.0,0.0053,0.0211,0.0475,0.0792,0.1049,0.1266,0.1502,0.1592,0.1592,0.1592,0.1592,0.1592,0.1592,0.1592,0.0,0.0,0.0,-1.0685,0.0,0.0,0.0,-0.8899,-0.8651,-0.8113,-0.8113,-0.8212,-0.8212,-0.8308,-0.8432,-0.8539,-0.865,-0.8753,-0.8936,-0.9537,-0.9914,-0.9805,-0.9816,-0.9844,-0.9816,-0.9678,-0.9541,-0.9406,-0.9075,-0.8912,-0.8912,-0.8912,-0.8912,-0.8912,-0.8912,-0.8912,-0.8912,-0.8912,-0.8912,-0.8912,-0.8912,-0.8912,-0.8912,-0.8912,-0.8912,-0.8912,-0.8912,-0.8912,-0.8912,-0.8912,-0.8912,-0.8912,-0.8912,-0.8912,-0.8912,-0.8912,-0.8912,-0.8912,-0.8912,-0.8912,-0.8912,-0.8912,-0.8912,-0.8912,-0.8912,-0.8912,-0.8405,-0.6058,-0.4972,-0.4081,-0.227,-0.1683,-0.1486,-0.1177,-0.0981,-0.0729,-0.028,-0.0196,-0.0168,-0.0028,0.0,0.0,0.0,0.0,0.0,0.0,0.0,0.0,0.0,0.0,0.0,0.0,0.0,0.0,0.0,0.0,0.0,0.0,0.0,0.0133,0.04,0.056,0.085,0.1238,0.1526,0.1639,0.1639,0.1624,0.1592,0.1592,0.1592,0.1592,0.0,0.0,0.0,0.0,0.0,-1.0979,0.0,0.0,0.0,-0.8482,-0.8137,-0.7988,-0.7988,-0.7988,-0.7982,-0.7976,-0.8126,-0.825,-0.825,-0.8873,0.0,-0.9581,-0.9439,-0.9426,-0.962,-0.9434,-0.9296,-0.9296,-0.9047,-0.8912,-0.8912,-0.8912,-0.8912,-0.8912,-0.8912,-0.8912,-0.8912,-0.8912,-0.8912,-0.8912,-0.8912,-0.8912,-0.8912,-0.8912,-0.8912,-0.8912,-0.8912,-0.8912,-0.8912,-0.8912,-0.8912,-0.8912,-0.8912,-0.8912,-0.8912,-0.8912,-0.8912,-0.8912,-0.8912,-0.8912,-0.8912,-0.8912,-0.8912,-0.8912,-0.8912,-0.8574,-0.7817,-0.5945,-0.5055,-0.4249,-0.2297,-0.1795,-0.1711,-0.1374,-0.129,-0.1149,-0.0617,-0.0449,-0.0336,-0.0112,-0.0028,0.0,0.0,0.0,0.0,0.0,0.0,0.0,0.0,0.0,0.0,0.0,0.0,0.0,0.0,0.0,0.0,0.0,0.0,0.0108,0.0323,0.0376,0.0697,0.1286,0.1497,0.1637,0.1688,0.1632,0.1592,0.1592,0.1592,0.1592,0.0,0.0,0.0,0.0,-1.1853,0.0,0.0,0.0,-0.9558,-0.9435,0.0,-0.7988,-0.7988,0.0,0.0,-0.7834,-0.7942,-0.804,-0.804,-0.8262,-0.8555,-0.8783,-0.9057,-0.9168,-0.9009,-0.8964,-0.8968,-0.8968,-0.8912,-0.8912,-0.8912,-0.8912,-0.8912,-0.8912,-0.8912,-0.8912,-0.8912,-0.8912,-0.8912,-0.8912,-0.8912,-0.8912,-0.8912,-0.8912,-0.8912,-0.8912,-0.8912,-0.8912,-0.8912,-0.8912,-0.8912,-0.8912,-0.8912,-0.8912,-0.8912,-0.8912,-0.8912,-0.8912,-0.8912,-0.8912,-0.8912,-0.8912,-0.8912,-0.8912,-0.8912,-0.7454,-0.575,-0.5472,-0.3858,-0.2158,-0.1879,-0.1795,-0.1711,-0.1374,-0.129,-0.1206,-0.0897,-0.0617,-0.0393,-0.0364,-0.0168,0.0,0.0,0.0,0.0,0.0,0.0,0.0,0.0,0.0,0.0,0.0,0.0,0.0,0.0,0.0,0.0,0.0,0.0,0.0,0.0056,0.0275,0.0682,0.1281,0.1267,0.1402,0.1688,0.1632,0.1592,0.1592,0.1592,0.1592,0.0,0.0,0.0,0.0,0.0,0.0,-1.2217,0.0,-1.1072,0.0,0.0,0.0,0.0,0.0,0.0,0.0,-0.7973,-0.7988,-0.7988,-0.8071,-0.8248,-0.8543,-0.871,-0.8799,-0.8791,-0.8858,-0.8912,-0.8912,-0.8912,-0.8912,-0.8912,-0.8912,-0.8912,-0.8912,-0.8912,-0.8912,-0.8912,-0.8912,-0.8912,-0.8912,-0.8912,-0.8912,-0.8912,-0.8912,-0.8912,-0.8912,-0.8912,-0.8912,-0.8912,-0.8912,-0.8912,-0.8912,-0.8912,-0.8912,-0.8912,-0.8912,-0.8912,-0.8912,-0.8912,-0.8912,-0.8912,-0.8912,-0.8912,-0.8912,-0.8912,-0.7734,-0.6255,-0.5584,-0.4165,-0.2688,-0.1991,-0.1795,-0.1767,-0.1627,-0.1598,-0.1514,-0.1206,-0.1009,-0.0813,-0.0477,-0.0308,-0.0196,-0.0028,0.0,0.0,0.0,0.0,0.0,0.0,0.0,0.0,0.0,0.0,0.0,0.0,0.0,0.0,0.0,0.0,0.0,0.0,0.0251,0.0527,0.0777,0.1084,0.1338,0.1472,0.1588,0.1668,0.1668,0.1625,0.1592,-1.4298,0.0,0.0,0.0,0.0,0.0,0.0,0.0,0.0,0.0,0.0,0.0,0.0,0.0,0.0,0.0,0.0,-0.7975,-0.7959,-0.7989,-0.8111,-0.842,-0.8485,-0.8526,0.0,-0.8757,-0.8848,-0.8848,-0.8885,-0.8912,-0.8912,-0.8912,-0.8912,-0.8912,-0.8912,-0.8912,-0.8912,-0.8912,-0.8912,-0.8912,-0.8912,-0.8912,-0.8912,-0.8912,-0.8912,-0.8912,-0.8912,-0.8912,-0.8912,-0.8912,-0.8912,-0.8912,-0.8912,-0.8912,-0.8912,-0.8912,-0.8912,-0.8912,-0.8912,-0.8912,-0.8912,-0.8912,-0.8912,-0.8912,-0.8912,-0.8045,-0.6871,-0.5725,-0.4528,-0.3329,-0.2102,-0.1795,-0.1795,-0.1795,-0.1795,-0.1739,-0.1486,-0.1374,-0.1177,-0.0729,-0.0505,-0.0336,-0.014,-0.0056,0.0,0.0,0.0,0.0,0.0,0.0,0.0,0.0,0.0,0.0,0.0,0.0,0.0,0.0,0.0,0.0,0.0,0.0196,0.0336,0.0393,0.0827,0.1094,0.1203,0.1459,0.1592,0.1557,0.158,0.1592,0.0,0.0,0.0,-1.4298,0.0,0.0,0.0,0.0,-1.2678,0.0,0.0,0.0,0.0,0.0,0.0,0.0,0.0,0.0,0.0,-0.7922,-0.8074,-0.8284,-0.8423,-0.8509,0.0,-0.8628,-0.8716,-0.8716,-0.8828,-0.8912,-0.8912,-0.8912,-0.8912,-0.8912,-0.8912,-0.8912,-0.8912,-0.8912,-0.8912,-0.8912,-0.8912,-0.8912,-0.8912,-0.8912,-0.8912,-0.8912,-0.8912,-0.8912,-0.8912,-0.8912,-0.8912,-0.8912,-0.8912,-0.8912,-0.8912,-0.8912,-0.8912,-0.8912,-0.8912,-0.8912,-0.8912,-0.8912,-0.8912,-0.8912,-0.8912,-0.8045,-0.6871,-0.5725,-0.4528,-0.3329,-0.2102,-0.1795,-0.1795,-0.1795,-0.1795,-0.1795,-0.1795,-0.1542,-0.129,-0.1262,-0.0813,-0.0393,-0.0393,-0.0168,0.0,0.0,0.0,0.0,0.0,0.0,0.0,0.0,0.0,0.0,0.0,0.0,0.0,0.0,0.0,0.0,0.0,0.0,0.014,0.0393,0.0414,0.0602,0.0902,0.1181,0.1266,0.122,0.1478,0.1592,0.0,0.0,-1.4298,-1.4298,0.0,0.0,0.0,0.0,0.0,0.0,0.0,0.0,0.0,0.0,0.0,0.0,0.0,0.0,0.0,-0.8421,-0.8033,-0.8084,-0.8252,-0.8369,0.0,0.0,0.0,-0.871,-0.8825,-0.8912,-0.8912,-0.8912,-0.8912,-0.8912,-0.8912,-0.8912,-0.8912,-0.8912,-0.8912,-0.8912,-0.8912,-0.8912,-0.8912,-0.8912,-0.8912,-0.8912,-0.8912,-0.8912,-0.8912,-0.8912,-0.8912,-0.8912,-0.8912,-0.8912,-0.8912,-0.8912,-0.8912,-0.8912,-0.8912,-0.8912,-0.8912,-0.8912,-0.8912,-0.8912,-0.8912,-0.7537,-0.5892,-0.55,-0.3942,-0.2325,-0.1907,-0.1795,-0.1795,-0.1795,-0.1795,-0.1795,-0.1795,-0.1711,-0.157,-0.1346,-0.1121,-0.0869,-0.0477,-0.0336,-0.0196,-0.0028,0.0,0.0,0.0,0.0,0.0,0.0,0.0,0.0,0.0,0.0,0.0,0.0,0.0,0.0,0.0,0.0,0.0056,0.014,0.0307,0.0445,0.0556,0.0874,0.1128,0.1268,0.1324,0.1431,-1.4473,-1.4443,0.0,-1.4322,-1.4298,0.0,-1.4298,0.0,-1.41,0.0,0.0,0.0,0.0,0.0,0.0,0.0,0.0,0.0,0.0,-0.8676,-0.7988,-0.7988,-0.8104,-0.8187,0.0,-0.8411,-0.8574,-0.8625,-0.8743,-0.8852,-0.8906,-0.8912,-0.8912,-0.8912,-0.8912,-0.8912,-0.8912,-0.8912,-0.8912,-0.8912,-0.8912,-0.8912,-0.8912,-0.8912,-0.8912,-0.8912,-0.8912,-0.8912,-0.8912,-0.8912,-0.8912,-0.8912,-0.8912,-0.8912,-0.8912,-0.8912,-0.8912,-0.8912,-0.8912,-0.8912,-0.8912,-0.8912,-0.8912,-0.8912,-0.8912,-0.7537,-0.5926,-0.5512,-0.3961,-0.2329,-0.1921,-0.1803,-0.1795,-0.1795,-0.1795,-0.1795,-0.1795,-0.1795,-0.1739,-0.1514,-0.1374,-0.1177,-0.0785,-0.0533,-0.0308,-0.0028,0.0,0.0,0.0,0.0,0.0,0.0,0.0,0.0,0.0,0.0,0.0,0.0,0.0,0.0,0.0,0.0,0.0,0.0,0.0169,0.0253,0.0255,0.0584,0.0821,0.0969,0.1058,0.1221]},{"header":{"parameterUnit":"m.s-1","parameterCategory":1,"la1":30.6,"la2":29.2853,"lo1":-89.7004,"lo2":-87.6739,"dy":0.0162,"dx":0.0183,"nx":112,"ny":82,"refTime":"2023-05-10T12:00:00:Z","depth":0,"parameterNumber":3,"parameterNumberName":"V-component_of_WINDS"},"data":[0.0,0.0,0.0,0.0,0.0,0.0,0.0,0.0,0.0,0.0,0.0,0.0,0.0,0.0,0.0,0.0,0.0,0.0,0.0,0.0,0.0,0.0,0.0,0.0,0.0,0.0,0.0,0.0,0.0,0.0,0.0,0.0,0.0,0.0,0.0,0.0,0.0,0.0,0.0,0.0,0.0,0.0,0.0,0.0,0.0,0.0,0.0,0.0,0.0,0.0,0.0,0.0,0.0,0.0,0.0,0.0,0.0,0.0,0.0,0.0,0.0,0.0,0.0,0.0,0.0,0.0,0.0,0.0,0.0,0.0,0.0,0.0,0.0,0.0,0.0,0.0,0.0,0.0,0.0,0.0,0.0,0.0,0.0,0.0,0.0,0.0,0.0,0.0,0.0,0.0,2.5707,2.5707,2.5707,2.5707,2.5707,2.5707,2.568,2.5616,0.0,0.0,0.0,0.0,0.0,0.0,0.0,0.0,0.0,0.0,0.0,0.0,0.0,0.0,0.0,0.0,0.0,0.0,0.0,0.0,0.0,0.0,0.0,0.0,0.0,0.0,0.0,0.0,0.0,0.0,0.0,0.0,0.0,0.0,0.0,0.0,0.0,0.0,0.0,0.0,0.0,0.0,0.0,0.0,0.0,0.0,0.0,0.0,0.0,0.0,0.0,0.0,0.0,0.0,0.0,0.0,0.0,0.0,0.0,0.0,0.0,0.0,0.0,0.0,0.0,0.0,0.0,0.0,0.0,0.0,0.0,0.0,0.0,0.0,0.0,0.0,0.0,0.0,0.0,0.0,0.0,0.0,0.0,0.0,0.0,0.0,0.0,0.0,0.0,0.0,0.0,0.0,0.0,0.0,0.0,0.0,0.0,0.0,0.0,0.0,0.0,0.0,0.0,0.0,2.5707,2.5707,2.5707,2.5707,2.5707,2.5707,2.5696,2.5683,0.0,0.0,0.0,0.0,0.0,0.0,0.0,0.0,0.0,0.0,0.0,0.0,0.0,0.0,0.0,0.0,0.0,0.0,0.0,0.0,0.0,0.0,0.0,0.0,0.0,0.0,0.0,0.0,0.0,0.0,0.0,0.0,0.0,0.0,0.0,0.0,0.0,0.0,0.0,0.0,0.0,0.0,0.0,0.0,0.0,0.0,0.0,0.0,0.0,0.0,0.0,0.0,0.0,0.0,0.0,0.0,0.0,0.0,0.0,0.0,0.0,0.0,0.0,0.0,0.0,0.0,0.0,0.0,0.0,0.0,0.0,0.0,0.0,0.0,0.0,0.0,0.0,0.0,0.0,0.0,0.0,0.0,0.0,0.0,0.0,0.0,0.0,0.0,0.0,0.0,0.0,0.0,0.0,0.0,0.0,0.0,0.0,0.0,0.0,0.0,0.0,0.0,0.0,2.5694,2.5708,2.5691,2.5708,2.5708,2.5691,2.5708,2.5696,2.5703,2.5662,0.0,0.0,0.0,0.0,0.0,0.0,0.0,0.0,0.0,0.0,0.0,0.0,0.0,0.0,0.0,0.0,0.0,0.0,0.0,0.0,0.0,0.0,0.0,0.0,0.0,0.0,0.0,0.0,0.0,0.0,0.0,0.0,0.0,0.0,0.0,0.0,0.0,0.0,0.0,0.0,0.0,0.0,0.0,0.0,0.0,0.0,0.0,0.0,0.0,0.0,0.0,0.0,0.0,0.0,0.0,0.0,0.0,0.0,0.0,0.0,0.0,0.0,0.0,0.0,0.0,0.0,0.0,0.0,0.0,0.0,0.0,0.0,0.0,0.0,0.0,0.0,0.0,0.0,0.0,0.0,0.0,0.0,0.0,0.0,0.0,0.0,0.0,0.0,0.0,0.0,0.0,0.0,0.0,0.0,0.0,0.0,0.0,0.0,0.0,0.0,0.0,0.0,2.5692,2.5692,2.5695,2.5693,2.5692,2.5695,2.5693,2.5697,2.5703,2.5703,0.0,0.0,0.0,0.0,0.0,0.0,0.0,0.0,0.0,0.0,0.0,0.0,0.0,0.0,0.0,0.0,0.0,0.0,0.0,0.0,0.0,0.0,0.0,0.0,0.0,0.0,0.0,0.0,0.0,0.0,0.0,0.0,0.0,0.0,0.0,0.0,0.0,0.0,0.0,0.0,0.0,0.0,0.0,0.0,0.0,0.0,0.0,0.0,0.0,0.0,0.0,0.0,0.0,0.0,0.0,0.0,0.0,0.0,0.0,0.0,0.0,0.0,0.0,0.0,0.0,0.0,0.0,0.0,0.0,0.0,0.0,0.0,0.0,0.0,0.0,0.0,0.0,0.0,0.0,0.0,0.0,0.0,0.0,0.0,0.0,0.0,0.0,0.0,0.0,0.0,0.0,0.0,0.0,0.0,0.0,0.0,0.0,0.0,0.0,0.0,0.0,0.0,2.5697,2.5699,2.57,2.5699,2.5699,2.57,2.5699,2.5698,2.5695,2.5703,0.0,0.0,0.0,0.0,0.0,0.0,0.0,0.0,0.0,0.0,0.0,0.0,0.0,0.0,0.0,0.0,0.0,0.0,0.0,0.0,0.0,0.0,0.0,0.0,0.0,0.0,0.0,0.0,0.0,0.0,0.0,0.0,0.0,0.0,0.0,0.0,0.0,0.0,0.0,0.0,0.0,0.0,0.0,0.0,0.0,0.0,0.0,0.0,0.0,0.0,0.0,0.0,0.0,0.0,0.0,0.0,0.0,0.0,0.0,0.0,0.0,0.0,0.0,0.0,0.0,0.0,0.0,0.0,0.0,0.0,0.0,0.0,0.0,0.0,0.0,0.0,0.0,0.0,0.0,0.0,0.0,0.0,0.0,0.0,0.0,0.0,0.0,0.0,0.0,0.0,0.0,0.0,0.0,0.0,0.0,0.0,0.0,0.0,0.0,0.0,0.0,0.0,2.57,2.57,0.0,2.5701,2.57,2.5702,2.5701,2.57,2.57,0.0,0.0,0.0,0.0,0.0,0.0,0.0,0.0,0.0,0.0,0.0,0.0,0.0,0.0,0.0,0.0,0.0,0.0,0.0,0.0,0.0,0.0,0.0,0.0,0.0,0.0,0.0,0.0,0.0,0.0,0.0,0.0,0.0,0.0,0.0,0.0,0.0,0.0,0.0,0.0,0.0,0.0,0.0,0.0,0.0,0.0,0.0,0.0,0.0,0.0,0.0,0.0,0.0,0.0,0.0,0.0,0.0,0.0,0.0,0.0,0.0,0.0,0.0,0.0,0.0,0.0,0.0,0.0,0.0,0.0,0.0,0.0,0.0,0.0,0.0,0.0,0.0,0.0,0.0,0.0,0.0,0.0,0.0,0.0,0.0,0.0,0.0,0.0,0.0,0.0,0.0,0.0,0.0,0.0,0.0,0.0,0.0,0.0,0.0,0.0,0.0,0.0,2.57,2.5674,2.5671,0.0,2.5696,2.5698,2.5699,2.5701,2.5702,2.5702,0.0,0.0,0.0,0.0,0.0,0.0,0.0,0.0,0.0,0.0,0.0,0.0,0.0,0.0,0.0,0.0,0.0,0.0,0.0,0.0,0.0,0.0,0.0,0.0,0.0,0.0,0.0,0.0,0.0,0.0,0.0,0.0,0.0,0.0,0.0,0.0,0.0,0.0,0.0,0.0,0.0,0.0,0.0,0.0,0.0,0.0,0.0,0.0,0.0,0.0,0.0,0.0,0.0,0.0,0.0,0.0,0.0,0.0,0.0,0.0,0.0,0.0,0.0,0.0,0.0,0.0,0.0,0.0,0.0,0.0,0.0,0.0,0.0,0.0,0.0,0.0,0.0,0.0,0.0,0.0,0.0,0.0,0.0,0.0,0.0,0.0,0.0,0.0,0.0,0.0,0.0,0.0,0.0,0.0,0.0,0.0,0.0,0.0,0.0,0.0,0.0,0.0,2.57,2.564,2.5601,2.5601,2.5653,2.5707,2.5707,2.5701,2.5703,0.0,0.0,0.0,0.0,0.0,0.0,0.0,0.0,0.0,0.0,0.0,0.0,0.0,0.0,0.0,0.0,0.0,0.0,0.0,0.0,0.0,0.0,0.0,0.0,0.0,0.0,0.0,0.0,0.0,0.0,0.0,0.0,0.0,0.0,0.0,0.0,0.0,0.0,0.0,0.0,0.0,0.0,0.0,0.0,0.0,0.0,0.0,0.0,0.0,0.0,0.0,0.0,0.0,0.0,0.0,0.0,0.0,0.0,0.0,0.0,0.0,0.0,0.0,0.0,0.0,0.0,0.0,0.0,0.0,0.0,0.0,0.0,0.0,0.0,0.0,0.0,0.0,0.0,0.0,0.0,0.0,0.0,0.0,0.0,0.0,0.0,0.0,0.0,0.0,0.0,0.0,0.0,0.0,0.0,0.0,0.0,0.0,0.0,0.0,0.0,0.0,0.0,0.0,2.5705,2.568,2.5649,2.5604,2.5668,2.5699,2.5708,2.5701,2.5703,2.5703,0.0,0.0,0.0,0.0,0.0,0.0,0.0,0.0,0.0,0.0,0.0,0.0,0.0,0.0,0.0,0.0,0.0,0.0,0.0,0.0,0.0,0.0,0.0,0.0,0.0,0.0,0.0,0.0,0.0,0.0,0.0,0.0,0.0,0.0,0.0,0.0,0.0,0.0,0.0,0.0,0.0,0.0,0.0,0.0,0.0,0.0,0.0,0.0,0.0,0.0,0.0,0.0,0.0,0.0,0.0,0.0,0.0,0.0,0.0,0.0,0.0,0.0,0.0,0.0,0.0,0.0,0.0,0.0,0.0,0.0,0.0,0.0,0.0,0.0,0.0,0.0,0.0,0.0,0.0,0.0,0.0,0.0,0.0,0.0,0.0,0.0,0.0,0.0,0.0,0.0,0.0,0.0,0.0,0.0,0.0,0.0,0.0,0.0,0.0,0.0,0.0,0.0,2.5653,2.5636,2.5608,2.5565,2.5624,2.5669,2.5654,2.5679,2.5703,2.5703,0.0,0.0,0.0,0.0,0.0,0.0,0.0,0.0,0.0,0.0,0.0,0.0,0.0,0.0,0.0,0.0,0.0,0.0,0.0,0.0,0.0,0.0,0.0,0.0,0.0,0.0,0.0,0.0,0.0,0.0,0.0,0.0,0.0,0.0,0.0,0.0,0.0,0.0,0.0,0.0,0.0,0.0,0.0,0.0,0.0,0.0,0.0,0.0,0.0,0.0,0.0,0.0,0.0,0.0,0.0,0.0,0.0,0.0,0.0,0.0,0.0,0.0,0.0,0.0,0.0,0.0,0.0,0.0,0.0,0.0,0.0,0.0,0.0,0.0,0.0,0.0,0.0,0.0,0.0,0.0,0.0,0.0,0.0,0.0,0.0,0.0,0.0,0.0,0.0,0.0,0.0,0.0,0.0,0.0,0.0,0.0,0.0,0.0,0.0,0.0,0.0,0.0,2.5606,2.5545,2.5511,2.5501,2.5569,2.5607,2.5601,2.5654,2.5703,2.5703,0.0,0.0,0.0,0.0,0.0,0.0,0.0,0.0,0.0,0.0,0.0,0.0,0.0,0.0,0.0,0.0,0.0,0.0,0.0,0.0,0.0,0.0,0.0,0.0,0.0,0.0,0.0,0.0,0.0,0.0,0.0,0.0,0.0,0.0,0.0,0.0,0.0,0.0,0.0,0.0,0.0,0.0,0.0,0.0,0.0,0.0,0.0,0.0,0.0,0.0,0.0,0.0,0.0,0.0,0.0,0.0,0.0,0.0,0.0,0.0,2.5294,2.5058,0.0,0.0,0.0,0.0,0.0,0.0,0.0,0.0,0.0,0.0,0.0,0.0,0.0,0.0,0.0,0.0,0.0,0.0,0.0,0.0,0.0,0.0,0.0,0.0,0.0,0.0,0.0,0.0,0.0,0.0,0.0,0.0,0.0,0.0,0.0,0.0,0.0,0.0,0.0,0.0,2.5606,2.5581,2.5555,2.5511,2.5607,2.5664,2.5605,2.5654,2.5703,2.5703,2.5703,0.0,0.0,0.0,0.0,0.0,0.0,0.0,0.0,0.0,0.0,0.0,0.0,0.0,0.0,0.0,0.0,0.0,0.0,0.0,0.0,0.0,0.0,0.0,0.0,0.0,0.0,0.0,0.0,0.0,0.0,0.0,0.0,0.0,0.0,0.0,0.0,0.0,0.0,0.0,0.0,0.0,0.0,0.0,0.0,0.0,0.0,0.0,0.0,0.0,0.0,0.0,0.0,0.0,0.0,0.0,0.0,0.0,0.0,0.0,2.7453,2.6896,0.0,0.0,0.0,0.0,0.0,0.0,0.0,0.0,0.0,0.0,0.0,0.0,0.0,0.0,0.0,0.0,0.0,0.0,0.0,0.0,0.0,0.0,0.0,0.0,0.0,0.0,0.0,0.0,0.0,0.0,0.0,0.0,0.0,0.0,0.0,0.0,0.0,0.0,0.0,0.0,2.5597,2.559,2.5587,2.5546,2.5601,2.5637,2.5604,2.5655,2.5703,2.5703,2.5703,0.0,0.0,0.0,0.0,0.0,0.0,0.0,0.0,0.0,0.0,0.0,0.0,0.0,0.0,0.0,0.0,0.0,0.0,0.0,0.0,0.0,0.0,0.0,0.0,0.0,0.0,0.0,0.0,0.0,0.0,0.0,0.0,0.0,0.0,0.0,0.0,0.0,0.0,0.0,0.0,0.0,0.0,0.0,0.0,0.0,0.0,0.0,0.0,0.0,0.0,0.0,0.0,0.0,3.12,3.1215,3.1171,3.124,3.1249,3.1172,2.9795,2.9013,2.8732,2.8741,0.0,0.0,0.0,0.0,0.0,0.0,0.0,0.0,0.0,0.0,0.0,0.0,0.0,0.0,0.0,0.0,0.0,0.0,0.0,0.0,0.0,0.0,2.5697,2.57,2.5698,2.5696,2.5698,0.0,0.0,0.0,0.0,0.0,0.0,0.0,0.0,0.0,0.0,0.0,2.5621,2.5626,2.5604,2.5593,2.5619,2.5615,2.5595,2.5652,2.5701,2.5703,2.5703,2.5703,0.0,0.0,0.0,0.0,0.0,0.0,0.0,0.0,0.0,0.0,0.0,0.0,0.0,0.0,0.0,0.0,0.0,0.0,0.0,0.0,0.0,0.0,0.0,0.0,0.0,0.0,0.0,0.0,0.0,0.0,0.0,0.0,3.0499,3.0499,0.0,0.0,0.0,0.0,0.0,0.0,0.0,0.0,0.0,0.0,0.0,0.0,0.0,3.0907,3.1714,3.1745,3.2182,3.3026,3.3056,3.3049,3.304,3.3044,3.3064,3.3045,3.2813,0.0,3.0469,3.0471,0.0,0.0,0.0,0.0,0.0,0.0,0.0,0.0,0.0,0.0,0.0,0.0,0.0,0.0,0.0,0.0,0.0,0.0,0.0,0.0,0.0,0.0,2.5702,2.5702,2.5702,2.57,2.5692,2.5696,2.57,2.57,2.57,2.57,0.0,0.0,0.0,0.0,0.0,0.0,2.5694,2.5692,2.5667,2.5605,2.5645,2.5662,2.5608,2.5657,2.5695,2.5702,2.5703,2.5703,2.5703,2.5703,0.0,0.0,0.0,0.0,0.0,0.0,0.0,0.0,0.0,0.0,0.0,0.0,0.0,0.0,0.0,0.0,0.0,0.0,0.0,0.0,0.0,0.0,0.0,0.0,0.0,0.0,0.0,0.0,0.0,3.0618,3.0605,3.0603,3.062,3.0793,0.0,0.0,0.0,0.0,0.0,0.0,0.0,0.0,0.0,3.1402,3.1402,3.1592,3.2008,3.2008,3.2457,3.335,3.335,3.3336,3.3346,3.3346,3.3346,3.3346,3.3346,3.2917,3.2177,3.1712,3.123,3.0801,0.0,0.0,0.0,0.0,3.0274,3.0216,2.9844,2.9708,2.9708,2.9708,0.0,0.0,0.0,0.0,0.0,0.0,0.0,2.7712,2.7676,2.7382,2.7108,2.7108,2.7108,2.6972,2.6523,2.6426,2.6289,2.58,2.5703,2.5703,2.5702,2.5702,0.0,0.0,0.0,2.5704,2.5696,2.5696,2.5696,2.5667,2.5683,2.5697,2.5664,2.5673,2.5705,2.5698,2.5697,2.57,2.5703,2.5703,2.5703,0.0,0.0,0.0,0.0,0.0,0.0,0.0,0.0,0.0,0.0,0.0,0.0,0.0,0.0,0.0,0.0,0.0,0.0,0.0,0.0,0.0,0.0,0.0,0.0,0.0,0.0,0.0,0.0,3.1375,3.136,3.1375,3.1372,3.1623,0.0,0.0,0.0,0.0,0.0,0.0,3.329,3.3299,3.3213,3.3055,3.3055,3.3152,3.3387,3.3387,3.3799,3.4606,3.4606,3.4609,3.4637,3.4637,3.4637,3.4637,3.4637,3.45,3.4191,3.2923,3.2019,3.1432,3.1432,3.1432,3.1432,3.1432,3.1432,3.1432,3.1432,3.1296,3.112,3.112,3.0984,3.0692,3.0088,0.0,0.0,0.0,0.0,2.8613,2.857,2.8391,2.8233,2.8233,2.8213,2.8037,2.7435,2.7319,2.6989,2.5917,2.5703,2.5702,2.5694,2.5694,0.0,2.5691,0.0,2.5698,2.5692,2.5693,2.5699,2.5699,2.5699,2.5708,2.5709,2.5705,2.5692,2.5709,2.5691,2.5696,2.5703,2.5703,2.5703,2.5702,0.0,0.0,0.0,0.0,0.0,0.0,0.0,0.0,0.0,0.0,0.0,0.0,0.0,0.0,0.0,0.0,0.0,0.0,0.0,0.0,0.0,0.0,0.0,0.0,0.0,0.0,0.0,0.0,0.0,3.3177,3.3177,0.0,0.0,0.0,0.0,3.2124,3.2062,3.2438,3.3258,3.3306,3.4008,3.5568,3.5607,3.6017,3.6835,3.6854,3.7282,3.8134,3.8134,3.8171,3.8239,3.8239,3.8239,3.8239,3.8239,3.7771,3.6817,3.4289,3.3218,3.3179,3.3179,3.3179,3.3179,3.3179,3.3179,3.3179,3.3179,3.2674,3.2031,3.2031,3.1466,3.0785,3.0746,3.0718,0.0,0.0,3.0112,2.9531,2.9525,2.8914,2.8284,2.8284,2.8259,2.82,2.8156,2.8138,2.7651,2.6012,2.57,2.57,2.57,0.0,2.5697,2.5703,2.5699,2.5692,2.5705,2.57,2.5699,2.5699,2.5699,2.57,2.5701,2.5701,2.5694,2.5699,2.5694,2.5701,2.5703,2.57,2.5697,2.57,2.5702,0.0,0.0,0.0,0.0,0.0,0.0,0.0,0.0,0.0,0.0,0.0,0.0,0.0,0.0,0.0,0.0,0.0,0.0,0.0,0.0,0.0,0.0,0.0,0.0,0.0,0.0,0.0,0.0,3.3293,3.3761,0.0,3.4845,3.543,3.5857,3.609,3.6124,3.6242,3.658,3.6571,3.661,3.6634,3.6632,3.6789,3.71,3.71,3.7536,3.8408,3.8408,3.8414,3.8447,3.8447,3.8447,3.8447,3.8447,3.8253,3.7903,3.6967,3.5629,3.4087,3.3525,3.3292,3.3292,3.3292,3.3292,3.3292,3.3292,3.3117,3.2864,3.2864,3.2669,3.2423,3.2454,3.208,3.1645,3.164,3.1033,3.0365,3.0369,3.0146,2.9909,2.9909,2.9887,2.9712,2.9154,2.9039,2.8707,2.7597,2.6916,2.6524,2.6471,2.604,2.5706,2.5697,2.5696,2.5692,2.57,2.5699,2.5699,2.5699,2.5699,2.5699,2.5699,2.5699,2.5704,2.5695,2.5705,2.5698,2.5693,2.5697,2.57,2.5701,2.5701,2.5701,0.0,0.0,0.0,0.0,0.0,0.0,0.0,0.0,0.0,0.0,0.0,0.0,0.0,0.0,0.0,0.0,0.0,0.0,0.0,0.0,0.0,0.0,0.0,0.0,0.0,3.4575,3.4692,3.4985,3.549,3.6034,3.6615,3.7197,3.7666,3.7938,3.7957,3.8093,3.8387,3.8406,3.8384,3.8382,3.8382,3.8382,3.8382,3.8382,3.8674,3.9239,3.9239,3.9239,3.9239,3.9239,3.9239,3.9239,3.9239,3.9239,3.922,3.8948,3.7846,3.6232,3.5361,3.5013,3.5013,3.5013,3.5013,3.4935,3.4351,3.3944,3.3653,3.3381,3.33,3.3304,3.3355,3.2987,3.2534,3.2537,3.212,3.1683,3.1689,3.1468,3.1232,3.1232,3.1015,3.0642,3.0058,2.9941,2.9785,2.926,2.8229,2.7427,2.7371,2.6939,2.6568,2.6544,2.6566,2.6566,2.6556,2.6307,2.6132,2.6108,2.5855,2.5699,2.5699,2.5699,2.5699,2.5699,2.5708,2.5703,2.5699,2.5705,2.585,2.613,2.6422,2.6577,2.6574,0.0,0.0,0.0,0.0,0.0,0.0,0.0,0.0,0.0,0.0,0.0,0.0,0.0,0.0,0.0,0.0,0.0,0.0,0.0,0.0,0.0,0.0,0.0,3.7061,3.712,3.745,3.8309,3.8425,3.8445,3.8445,3.8464,3.8132,3.7275,3.7217,3.7586,3.8425,3.8503,3.9259,4.0888,4.0966,4.0985,4.0985,4.0985,4.0985,4.0985,4.0985,4.0985,4.0985,4.0985,4.0985,4.0985,4.0985,4.0985,4.0927,4.0109,3.9778,3.9681,3.8754,3.8406,3.8406,3.8406,3.8406,3.8151,3.6477,3.5333,3.448,3.3682,3.3427,3.3404,3.3385,3.3419,3.3437,3.3437,3.3411,3.3396,3.3396,3.2768,3.2138,3.2138,3.1507,3.0877,3.0858,3.0838,3.0838,3.0819,2.9494,2.8364,2.8344,2.8324,2.8282,2.8213,2.8259,0.0,2.8215,2.7522,2.7019,2.6947,2.6244,2.5777,2.5777,2.5777,2.5777,2.5777,2.5783,2.5776,2.5776,2.5772,2.6171,2.7011,2.7871,2.8298,2.8298,0.0,0.0,0.0,0.0,0.0,0.0,0.0,0.0,0.0,0.0,0.0,0.0,0.0,0.0,0.0,0.0,0.0,0.0,0.0,0.0,0.0,3.725,3.7541,3.6321,3.7249,3.8132,3.8367,3.8965,3.9334,3.9334,3.9878,4.0111,3.9878,3.9858,3.9956,4.0208,4.0813,4.1376,4.1823,4.2461,4.2789,4.2789,4.2789,4.2789,4.2789,4.2789,4.2789,4.2789,4.2789,4.2789,4.2789,4.2789,4.2789,4.2711,4.1859,4.1512,4.1318,3.922,3.8406,3.8406,3.8406,3.8406,3.8328,3.7841,3.753,3.718,3.6323,3.607,3.5957,3.5367,3.4795,3.4336,3.4348,3.389,3.3396,3.3396,3.3219,3.3042,3.3042,3.2865,3.2513,3.1889,3.1734,3.1558,3.0913,3.0425,2.9916,2.9281,2.8695,2.8285,2.8282,2.8284,0.0,2.8278,2.8085,2.7926,2.7856,2.7641,2.7504,2.7504,2.7515,2.7514,2.7503,2.7503,2.7502,2.7502,2.7511,2.7635,2.7876,2.812,2.8237,0.0,0.0,0.0,0.0,0.0,0.0,0.0,0.0,0.0,0.0,0.0,0.0,0.0,0.0,0.0,0.0,0.0,0.0,0.0,0.0,0.0,0.0,3.7806,3.825,3.6535,3.7795,3.9032,3.9362,4.0175,4.0716,4.0716,4.1453,4.1958,4.1958,4.1958,4.1958,4.1958,4.2426,4.2698,4.2698,4.3193,4.347,4.347,4.3481,4.3508,4.3508,4.3508,4.3508,4.3508,4.3508,4.3508,4.3508,4.3508,4.3508,4.3469,4.2947,4.2728,4.2485,0.0,0.0,0.0,0.0,3.9239,3.8946,3.8946,3.8715,3.8315,3.7807,3.7416,3.7059,3.6587,3.5879,3.5248,3.5236,3.488,3.4489,3.4489,3.4217,3.3943,3.3943,3.367,3.326,3.2753,3.2636,3.25,3.1992,3.1893,0.0,3.0734,2.9893,2.9346,2.9344,2.9346,2.9345,2.9357,2.9048,2.8812,2.8744,2.8432,2.8237,2.8237,2.8231,0.0,0.0,0.0,2.8225,2.82,2.8559,0.0,0.0,0.0,2.9296,2.9281,2.9329,0.0,0.0,2.9155,2.8814,0.0,0.0,0.0,0.0,0.0,0.0,0.0,0.0,0.0,0.0,0.0,0.0,0.0,0.0,0.0,0.0,3.8167,3.9334,3.7785,3.898,4.0253,4.0865,4.1715,4.2255,4.2255,4.2953,4.3396,4.3396,4.3396,4.3396,4.3396,4.3493,0.0,0.0,0.0,4.3671,4.3671,4.3737,4.3769,4.3769,4.3769,4.3769,4.3769,4.3769,4.3769,4.3769,4.3769,4.3769,4.375,4.3672,4.354,4.3247,4.1764,4.1138,4.1043,4.1043,4.0538,3.9837,3.9837,0.0,0.0,3.8583,3.8073,3.7465,3.7382,3.6772,3.6148,3.6148,3.607,3.5992,3.5992,3.5427,3.4842,3.4842,3.4256,3.367,3.3572,3.3552,3.3513,3.3416,3.3396,3.3143,3.2383,3.1524,3.0916,3.0814,3.0798,3.0796,3.0803,3.0183,2.9716,2.9652,0.0,0.0,2.858,2.8579,2.8578,2.858,2.8579,2.8554,2.8505,2.924,2.9645,2.9654,3.0406,3.0795,3.08,3.08,3.08,3.0781,3.0017,2.9238,0.0,0.0,0.0,0.0,0.0,0.0,0.0,0.0,0.0,0.0,0.0,0.0,0.0,0.0,0.0,3.7889,3.9871,4.1425,4.1074,4.1925,4.2392,4.1903,4.2623,4.3144,4.3144,4.3299,4.3396,4.3396,4.3396,4.3396,4.3396,4.4077,4.4448,4.4448,4.5078,4.5413,4.5413,4.5439,4.5441,4.5441,4.5441,0.0,4.5441,4.5441,4.5441,4.5441,4.5441,4.5441,4.5383,4.474,4.4053,4.3369,4.3034,4.2519,4.1959,4.1959,4.1415,4.0674,4.0674,4.0587,4.0372,3.9688,3.9382,3.9179,3.8457,3.7689,0.0,3.7048,3.6539,3.5992,3.5992,3.5875,3.5758,3.5758,3.5621,3.5309,3.4608,3.4452,3.4237,3.3533,3.3396,3.3357,3.3182,3.2422,3.1602,3.0917,3.08,3.08,3.0797,3.0661,3.0563,3.0557,3.0401,3.0323,3.0323,3.0316,3.0315,3.0323,3.0316,3.0311,3.0308,3.0459,3.055,3.0544,3.0716,3.0808,3.08,3.08,3.08,3.08,3.0625,3.0469,0.0,0.0,0.0,0.0,0.0,0.0,0.0,0.0,0.0,0.0,0.0,3.8724,3.8279,0.0,4.0484,3.963,4.1274,4.2492,4.2067,4.3131,4.3644,4.2808,4.3466,4.4008,4.4008,4.4357,4.4592,4.4592,4.4592,4.4592,4.4592,4.5002,4.5254,4.5254,4.5661,4.5906,4.5906,4.5902,4.5908,4.5908,4.5908,4.5908,4.5908,4.5908,4.5908,4.5908,4.5908,4.5908,4.5869,4.5463,4.5037,4.4642,4.4642,4.3887,4.2806,4.2806,4.2243,4.1506,4.1506,4.1263,4.0875,4.0484,4.0093,3.9726,3.9314,3.8622,3.7868,3.7419,3.6989,3.6559,3.6109,3.5992,3.5992,3.5992,3.5992,3.5875,3.5446,3.5349,3.5212,3.4782,3.4704,3.4567,3.4139,3.369,3.2969,3.1641,3.1446,3.1289,3.0859,3.0801,3.08,3.0797,3.0797,3.0797,3.0797,3.0793,3.0792,3.0796,3.079,3.0806,3.0806,3.0796,3.0807,3.0801,3.0794,3.1003,3.1447,3.1447,3.1661,3.2109,3.2109,3.1875,0.0,0.0,0.0,0.0,0.0,0.0,0.0,0.0,3.8447,3.8447,3.9265,3.9946,3.9771,4.1122,4.197,4.1161,4.2454,4.3301,4.2609,4.3843,4.4578,4.3866,4.4404,4.4829,4.4829,4.5416,4.5803,4.5803,4.5803,4.5803,4.5803,4.5803,4.5803,4.5803,4.5854,4.589,4.589,4.5877,4.587,4.587,4.587,4.587,4.587,4.587,4.587,4.587,4.587,4.5905,4.5926,4.5918,4.594,4.5939,4.5928,4.5088,4.3881,4.3712,4.3108,4.2338,4.2167,4.1698,4.1167,4.1057,4.0571,4.0058,4.0111,3.9537,3.8712,3.8008,3.7675,3.7343,3.6481,3.6246,3.6207,3.6031,3.5992,3.5992,3.5992,3.5992,3.5992,3.5992,3.5992,3.5778,3.5076,3.4959,3.4354,3.2617,3.2344,3.2109,3.1406,3.1152,3.1055,3.1055,3.0898,3.0801,3.0801,3.0801,3.0801,3.0801,3.0797,3.0873,3.1049,3.1059,3.1129,3.1296,3.1313,3.166,3.2354,3.2351,3.27,3.3401,3.3555,3.3164,3.5662,3.6223,3.6964,3.7848,3.806,3.808,0.0,0.0,3.9346,3.9346,4.0619,4.1509,4.0794,4.2028,4.2879,4.2009,4.3321,4.4423,4.4326,4.5084,4.5629,4.5533,4.561,4.5668,4.5668,4.5745,4.5803,4.5803,4.5803,4.5803,4.5803,4.5803,4.5803,4.5803,4.581,4.581,4.581,4.5814,4.5817,4.5817,4.5817,4.5817,4.5817,4.5817,4.5817,4.5817,4.5817,4.589,4.5991,4.5989,4.6025,4.6072,4.6005,4.5872,4.5614,4.484,4.3999,4.3158,4.2439,4.2176,4.2028,4.1311,4.1035,4.0952,4.0951,4.0403,3.9738,3.9636,3.9048,3.8246,3.7382,3.7145,3.697,3.6187,3.5992,3.5992,3.5992,3.5992,3.5992,3.5992,3.5992,3.5973,3.5875,3.5856,3.5251,3.3513,3.324,3.3221,3.3123,3.2422,3.1954,3.1954,3.127,3.0801,3.0801,3.0801,3.0801,3.0801,3.08,3.1152,3.1914,3.1946,3.2312,3.3093,3.3105,3.3158,3.3254,3.3244,3.3298,3.3414,3.4123,3.402,3.7019,3.7403,3.7867,3.874,3.9343,3.9843,4.0307,4.1081,4.1703,4.1703,4.226,4.2647,4.2318,4.3247,4.394,0.0,4.4523,4.5297,4.5297,4.5591,4.5803,4.5803,4.5803,4.5803,4.5803,4.5803,4.5803,4.5803,4.5803,4.5803,4.5803,4.5803,4.5803,4.5803,4.5803,4.5803,4.5803,4.5803,4.5803,4.5803,4.5803,4.5803,4.5803,4.5803,4.5803,4.5803,4.5803,4.5841,4.5899,4.5972,4.6027,4.6048,4.6044,4.6067,4.5994,4.553,4.4818,4.4047,4.3709,4.3004,4.2184,4.1857,4.1455,4.109,4.109,4.0874,4.0502,4.0031,3.964,3.9151,3.8271,3.8053,3.7952,3.76,3.7128,3.6754,3.6754,3.6363,3.5992,3.5992,3.5992,3.5992,3.5992,3.5992,3.5758,3.5016,3.447,3.3963,3.3474,3.3085,3.285,3.285,3.2538,3.2303,3.2303,3.2303,3.2303,3.2303,3.2303,3.248,3.2831,3.2867,3.3021,3.3388,3.3405,3.3653,3.4154,3.4169,3.4397,3.4858,3.5203,3.5177,3.8315,3.8737,3.9127,3.9981,4.0832,4.1645,4.2222,4.286,4.3301,4.3301,4.3495,4.365,4.365,4.4365,4.4926,4.4926,4.5416,4.5803,4.5803,4.5803,4.5803,4.5803,4.5803,4.5803,4.5803,4.5803,4.5803,4.5803,4.5803,4.5803,4.5803,4.5803,4.5803,4.5803,4.5803,4.5803,4.5803,4.5803,4.5803,4.5803,4.5803,4.5803,4.5803,4.5803,4.5803,4.5803,4.5803,4.5827,4.5851,4.5967,4.6015,4.6067,4.6086,4.6112,4.6115,4.5938,4.5508,4.4947,4.4712,4.3877,4.2844,4.2374,4.1874,4.1425,4.119,4.1131,4.0993,4.0406,4.023,4.0034,3.9175,3.8957,3.8895,3.8662,3.8112,3.7659,3.7659,3.7169,3.6659,3.6406,3.6365,3.6285,3.6031,3.5992,3.5992,3.5992,3.5466,3.4822,3.4197,3.3904,3.367,3.3435,3.3396,3.3396,3.3396,3.3396,3.3396,3.3396,3.3396,3.3513,3.3748,3.3768,3.3863,3.4113,3.4113,3.4422,3.5058,3.5055,3.5362,3.5938,3.5935,3.5928,3.923,4.0081,4.091,4.1719,4.2589,4.3224,4.3243,4.3282,4.3301,4.3301,4.3978,4.4559,4.4559,4.522,4.5765,4.5765,4.5784,4.5803,4.5803,4.5803,4.5803,4.5803,4.5803,4.5803,4.5803,4.5803,4.5803,4.5803,4.5803,4.5803,4.5803,4.5803,4.5803,4.5803,4.5803,4.5803,4.5803,4.5803,4.5803,4.5803,4.5803,4.5803,4.5803,4.5803,4.5803,4.5803,4.5803,4.5864,4.5997,4.5999,4.6072,4.6196,4.6126,4.6139,4.6196,4.612,4.6022,4.5839,4.4993,4.4712,4.4449,4.2825,4.2334,4.2207,4.1426,4.1191,4.1172,4.1092,4.1053,4.0876,4.0073,3.9857,3.9642,3.8803,3.8589,3.8569,3.8569,3.8546,3.8269,3.7411,3.7268,3.6989,3.6148,3.5992,3.5992,3.5992,3.5973,3.5953,3.5914,3.5173,3.4334,3.3494,3.3396,3.3396,3.3396,3.3396,3.3396,3.3396,3.3396,3.3787,3.4627,3.4667,3.5057,3.5895,3.5914,3.5933,3.5952,3.5964,3.598,3.5998,3.6008,3.5959,4.0755,4.1374,4.1796,4.2647,4.3514,4.4152,4.4152,4.4581,4.4952,4.4952,4.5183,4.5397,4.5397,4.5613,4.5806,4.5806,4.5809,4.5803,4.5803,4.5801,4.5806,4.5806,4.5806,0.0,0.0,4.5789,4.5803,4.5803,4.5803,4.5803,4.5803,4.5803,4.5803,4.5803,4.5803,4.5803,4.5803,4.5803,4.5803,4.5803,4.5803,4.5803,4.5803,4.5803,4.5803,4.5803,4.5803,4.5834,4.5864,4.5969,4.6022,4.6064,4.6089,4.6115,4.6132,4.6109,4.6084,4.6011,4.5672,4.5224,4.4713,4.4132,4.361,4.3056,4.2245,4.1992,4.1875,4.1328,4.1172,4.1093,4.0839,4.0721,4.0622,4.0329,3.9859,3.9467,3.9467,3.9017,3.8509,3.8216,3.8156,3.8075,3.7778,3.7738,3.7521,3.6951,3.6363,3.5992,3.5992,3.5738,3.5446,3.5153,3.5133,3.5133,3.5133,3.5133,3.5133,3.5133,3.5133,3.5251,3.5544,3.5563,3.5699,3.5992,3.5992,3.5992,3.5992,3.6009,3.6005,3.5999,3.5996,3.599,4.1661,4.2393,4.299,4.355,4.4346,4.4984,4.4984,4.5393,4.5764,4.5764,4.5765,4.5765,4.5765,4.5765,4.5765,4.5765,4.5769,4.5764,4.5764,4.5776,4.5807,4.5807,4.5799,4.5806,0.0,0.0,4.5803,4.5803,4.5803,4.5803,4.5803,4.5803,4.5803,4.5803,4.5803,4.5803,4.5803,4.5803,4.5803,4.5803,4.5803,4.5803,4.5803,4.5803,4.5803,4.5803,4.5803,4.5803,4.5814,4.5883,4.5964,4.6007,4.6054,4.6076,4.61,4.61,4.6117,4.6128,4.6069,4.5704,4.5218,4.4906,4.4462,4.3901,4.3079,4.285,4.2695,4.1855,4.1621,4.1562,4.1269,4.1172,4.1132,4.1132,4.0741,4.0369,4.0369,3.9919,3.9411,3.9118,3.9058,3.8978,3.8644,3.8602,3.8403,3.785,3.7282,3.6696,3.607,3.5992,3.5992,3.5992,3.5992,3.5992,3.5992,3.5992,3.5992,3.5992,3.5992,3.5992,3.5992,3.5992,3.6148,3.6461,3.6461,3.6618,3.693,3.693,3.6928,3.6923,3.6923,3.6918,4.2004,4.3181,4.4415,4.4454,4.5082,4.5704,4.5704,4.5704,4.5688,4.565,4.5646,4.5627,0.0,4.5627,4.5646,4.5684,4.5704,4.5704,4.5704,4.5758,4.5781,0.0,0.0,0.0,0.0,0.0,4.58,4.58,4.5803,4.5803,4.5803,4.5803,4.5803,4.5803,4.5803,4.5803,4.5803,4.5803,4.5803,4.5803,4.5803,4.5803,4.5803,4.5803,4.5803,4.5803,4.5803,4.5803,4.5803,4.5803,4.5864,4.5991,4.5991,4.6034,4.6089,4.6093,4.6135,4.6172,4.6126,4.6105,4.5969,4.5147,4.4912,4.4793,4.3937,4.3703,4.3574,4.2715,4.2461,4.2285,4.1523,4.1289,4.1269,4.1269,4.123,4.1191,4.1191,4.1152,4.0877,4.0116,3.9958,3.9701,3.8863,3.8683,3.8677,3.8671,3.8631,3.8005,3.6344,3.6129,3.6129,3.6129,3.6129,3.6129,3.6129,3.6129,3.6129,3.6129,3.6129,3.6129,3.6129,3.6129,3.652,3.734,3.7379,3.7771,3.8591,3.8591,3.8591,3.8591,3.8591,3.8567,4.3416,4.4072,4.4554,4.5218,4.5549,4.5704,4.5704,4.5704,4.5534,4.4936,4.4774,4.473,4.473,4.473,4.4942,4.5583,4.5703,0.0,4.5704,4.5707,0.0,4.5734,0.0,4.573,4.573,4.5739,0.0,4.5739,4.5771,4.5803,4.5803,4.5803,4.5803,4.5803,4.5803,4.5803,4.5803,4.5803,4.5803,4.5803,4.5803,4.5803,4.5803,4.5803,4.5803,4.5803,4.5803,4.5803,4.5803,4.5803,4.5827,4.5841,4.5841,4.5861,4.5885,4.5993,4.6036,4.6054,4.6145,4.6167,4.6147,4.5913,4.5817,4.5655,4.4874,4.4622,4.4422,4.3593,4.3379,4.332,4.3125,4.2578,4.209,4.209,4.1641,4.1191,4.1191,4.1191,4.1113,4.0918,4.0839,4.072,4.0505,3.9973,3.9577,3.9575,3.9024,3.8435,3.7985,3.7946,3.7946,3.7946,3.7946,3.7946,3.7946,3.7946,3.7946,3.7946,3.7946,3.7946,3.7946,3.7946,3.8044,3.8259,3.8279,3.8376,3.8591,3.8591,3.8591,3.8591,3.8591,3.859,4.3992,4.464,4.5042,4.5532,4.5671,4.5671,4.5671,4.5358,4.4954,4.451,4.4105,4.3838,4.3838,4.4127,4.4512,4.5013,4.5404,4.5671,4.5671,4.5686,4.5701,0.0,4.5698,0.0,4.571,4.5692,4.5704,4.5704,4.5731,4.5753,4.5753,4.5753,4.5753,4.5753,4.5753,4.5753,4.5753,4.5753,4.5753,4.5753,4.5753,4.5753,4.5753,4.5753,4.5764,4.5801,4.5801,4.5809,4.5803,4.5803,4.5803,4.5803,4.5803,4.5803,4.5814,4.5873,4.5955,4.6005,4.6122,4.6187,4.6203,4.6203,4.6167,4.6077,4.5651,4.5494,4.5291,4.4491,4.4256,4.4156,4.3789,4.334,4.2969,4.2969,4.2637,4.2187,4.1816,4.1738,4.1621,4.1269,4.1172,4.1132,4.1111,4.0738,4.0422,4.042,4.0005,3.9708,3.9708,3.9062,3.8591,3.8591,3.8591,3.8591,3.8591,3.8591,3.8591,3.8591,3.8591,3.8591,3.8591,3.8591,3.8767,3.9117,3.9137,3.9313,3.9704,3.9704,3.9704,3.9704,3.9704,3.9704,4.4244,4.5013,4.5594,4.5594,4.5594,4.5575,4.5455,4.484,4.4239,4.4008,4.3412,4.2931,4.2931,4.3508,4.4047,4.4259,4.4936,4.5475,4.5575,4.5648,4.5693,4.5693,4.5687,4.5688,4.5688,4.5688,4.5688,4.5688,4.5688,4.5692,4.5704,4.5704,4.5704,4.5704,4.5704,4.5704,4.5704,4.5704,4.5704,4.5704,4.5704,4.5704,4.5704,4.5704,4.5727,4.58,4.58,4.5783,4.5796,4.5796,4.58,4.5803,4.5803,4.5803,4.5803,4.5803,4.5864,4.5974,4.6056,4.6131,4.6197,4.6206,4.6206,4.6204,4.6208,4.6206,4.6053,4.5369,4.511,4.4925,4.4217,4.3945,4.3867,4.3867,4.3789,4.3496,4.2734,4.2578,4.2363,4.168,4.1445,4.1348,4.1288,4.119,4.1091,4.1108,4.1104,4.11,4.1099,3.9825,3.8923,3.8923,3.8923,3.8923,3.8923,3.8923,3.8923,3.8923,3.8923,3.8923,3.8923,3.8923,3.9254,3.9956,3.9976,4.0346,4.1109,4.1109,4.1109,4.1109,4.1109,4.1109,4.5148,4.5475,4.5594,4.5594,4.5594,4.5417,4.4686,4.4417,0.0,4.2523,4.2119,4.2023,4.2023,4.2139,4.2696,4.4066,4.4436,4.4782,4.5498,4.5618,4.5622,0.0,4.5612,4.5616,4.5616,4.5616,0.0,4.5616,4.5616,4.565,4.5704,4.5704,4.5704,4.5704,4.5704,4.5704,4.5704,4.5704,4.5704,4.5704,4.5704,4.5704,4.5704,4.5704,4.5712,4.5715,4.5715,4.5739,4.5795,4.5795,4.5798,4.5803,4.5803,4.5803,4.5803,4.5803,4.5801,4.5845,4.5972,4.6052,4.6137,4.6242,4.6241,4.6208,4.6266,4.6241,4.6165,4.6034,4.6028,4.6014,4.5825,4.5268,4.4766,4.4766,4.4219,4.3652,4.3516,4.3476,4.3437,4.3281,4.2676,4.2187,4.2187,4.1581,4.1092,4.1091,4.1108,4.1104,4.1099,4.0859,4.068,4.068,4.068,4.068,4.068,4.068,4.068,4.068,4.068,4.068,4.068,4.068,4.0738,4.0874,4.0874,4.0952,4.1109,4.1109,4.1109,4.1109,4.1109,4.1109,4.5244,4.5594,4.5594,4.5594,4.5594,4.5359,4.4494,0.0,0.0,4.2062,4.145,4.1123,4.1123,4.1485,4.2216,4.347,4.4028,4.4609,4.5475,4.5594,4.5594,4.5594,4.5594,4.5594,4.5594,4.5594,4.5594,4.5594,4.5594,4.5612,4.5654,4.5658,4.5658,4.5658,4.5658,4.5658,4.5658,4.5658,4.5658,4.5658,4.5658,4.5658,4.5658,4.5658,4.5671,4.5691,4.5691,4.5715,4.5754,4.5754,4.5781,4.5794,4.5794,4.5809,4.5803,4.5803,4.5803,4.5827,4.5939,4.6015,4.6056,4.6159,4.6213,4.6264,4.6289,4.6244,4.6206,4.624,4.6243,4.6242,4.6243,4.5975,4.5683,4.5683,4.5019,4.4375,4.4375,4.4023,4.3691,4.3691,4.3359,4.3086,4.3086,4.2734,4.2441,4.2441,4.2068,4.1773,4.1771,4.1377,4.1098,4.109,4.1109,4.1109,4.1109,4.1109,4.1109,4.1109,4.1109,4.1109,4.1109,4.1109,4.1109,4.1109,4.1109,4.1109,4.1109,4.1109,4.1109,4.1109,4.1109,4.1109,4.5186,4.5594,4.5594,4.5594,4.5455,4.509,4.4244,4.3412,4.2566,4.1696,4.0973,4.0496,4.0496,4.1066,4.1873,4.2931,4.3624,4.4417,4.5455,4.5594,4.5594,4.5594,4.5594,0.0,4.5594,4.5594,4.5594,4.5594,4.5594,4.5594,4.5594,4.5594,4.5594,4.5594,4.5594,4.5594,4.5594,4.5594,4.5594,4.5594,4.5594,4.5594,4.5594,4.5594,4.5631,4.5684,4.5684,4.569,4.5692,4.5692,4.5743,4.5807,4.5807,4.5791,4.5803,4.5803,4.5803,4.5821,4.5929,4.598,4.6015,4.6052,4.6163,4.6288,4.6288,4.6243,4.6236,4.6267,4.6243,4.6237,4.6267,4.6289,4.6308,4.6308,4.5781,4.5273,4.5273,4.4746,4.4258,4.4258,4.4101,4.3984,4.3984,4.3828,4.3691,4.3691,4.3124,4.2674,4.2674,4.2086,4.1652,4.1662,4.1329,4.1093,4.1092,4.1091,4.1091,4.1109,4.1109,4.1109,4.1109,4.1109,4.1109,4.1109,4.1109,4.1109,4.1109,4.1109,4.1109,4.1109,4.1109,4.1109,4.534,4.5594,4.5594,4.5594,4.4994,4.4201,4.3393,0.0,4.1677,4.08,4.0554,4.0496,4.0496,4.0573,4.1166,4.2835,4.3162,4.3778,4.5359,4.5594,4.5594,4.5594,0.0,0.0,4.5594,4.5594,4.5594,4.5594,4.5594,4.5594,4.5594,4.5594,4.5594,4.5594,4.5594,4.5594,4.5594,4.5594,4.5594,4.5594,4.5594,4.5594,4.5594,4.5594,4.5594,4.5618,4.5618,4.5644,4.5705,4.5705,4.5734,4.5807,4.5807,4.5791,4.5803,4.5803,4.5803,4.5807,4.5801,4.5908,4.6002,4.6012,4.61,4.6207,4.6207,4.6242,4.6288,4.6215,4.6242,4.6288,4.6214,4.6244,4.6308,4.6308,4.623,4.6172,4.6172,4.6113,4.6055,4.6055,4.543,4.4883,4.4883,4.4219,4.3691,4.3691,4.3633,4.3574,4.3572,4.3513,4.3454,4.3451,4.2044,4.1104,4.1099,4.1098,4.1095,4.1109,4.1109,4.1109,4.1109,4.1109,4.1109,4.1109,4.1109,4.1109,4.1109,4.1109,4.1109,4.1109,4.1109,4.1109,4.4455,4.4821,4.4821,4.4821,4.4571,4.3951,4.262,0.0,4.1542,4.0685,4.0496,4.0496,4.0496,4.0496,4.0896,4.2124,4.2758,4.3508,4.4667,4.5263,4.5594,4.5594,4.5594,4.5594,0.0,4.5594,4.5821,4.6336,4.5898,4.5821,4.6355,4.5898,4.5594,4.5594,4.5594,4.5594,4.5594,4.5594,4.5594,4.5594,4.5594,4.5594,4.5594,4.5594,4.5594,4.5594,4.5594,4.5622,4.564,4.564,4.5678,4.5734,4.5739,4.5757,4.5794,4.5796,4.5803,4.5803,4.5803,4.5825,4.589,4.589,4.5966,4.6095,4.6187,4.6212,4.6241,4.6264,4.6288,4.6289,4.6266,4.6288,4.6308,4.6308,4.6308,4.6308,4.6308,4.6308,4.6308,4.6308,4.6016,4.5781,4.5781,4.5488,4.5254,4.5254,4.4824,4.4473,4.4472,4.4023,4.3691,4.3691,4.3082,4.2668,4.2662,4.2662,4.2444,4.1928,4.1888,4.1655,4.1129,4.1109,4.1109,4.1109,4.1109,4.1109,4.1109,4.1109,4.1109,4.1109,4.1109,4.1109,4.3547,4.3951,4.3951,4.3951,4.3758,4.3258,4.2062,0.0,4.1239,4.0631,4.0496,4.0496,4.0496,4.0496,4.0781,4.1658,4.2523,4.3374,4.4182,4.5051,4.5594,4.5594,0.0,4.5594,4.5594,4.5821,4.624,4.6851,4.6547,4.6605,4.7216,4.6663,4.6109,4.5614,4.584,4.5975,4.5975,4.5975,4.5975,4.5975,4.5725,4.5594,4.5594,4.5594,4.5594,4.5594,4.5594,4.5594,4.5594,4.5594,4.564,4.5705,4.5695,4.5739,4.5792,4.5798,4.5796,4.5803,4.5803,4.5803,4.5803,4.5803,4.5854,4.5966,4.6107,4.6163,4.6208,4.6264,4.6288,4.6308,4.6308,4.6308,4.6308,4.6308,4.6308,4.6308,4.6308,4.6308,4.6308,4.6308,4.6308,4.6308,4.6308,4.6308,4.6308,4.6308,4.5781,4.5371,4.5371,4.4844,4.4473,4.4473,4.4472,4.4253,4.3739,4.3699,4.3441,4.2826,4.2786,4.2513,4.1889,4.187,4.187,4.187,4.187,4.187,4.187,4.187,4.187,4.187,4.187,4.187,4.2874,4.3104,4.3104,4.3104,4.2466,4.1812,4.1793,4.1123,4.0516,4.0496,4.0496,4.0496,4.0496,4.0496,4.0781,4.1658,4.2523,4.3374,4.4182,4.5051,4.5594,0.0,4.5594,4.5594,4.5594,4.6374,4.6889,4.6908,4.762,4.8082,4.8082,4.8082,4.7317,4.5652,4.6432,4.6889,4.6889,4.6889,4.6889,4.6889,4.6013,4.5594,4.5594,4.5594,4.5594,4.5594,4.5594,4.5594,4.5594,4.5594,4.564,4.5701,4.5701,4.5734,4.5807,4.5807,4.5791,4.5803,4.5803,4.5803,4.5803,4.5803,4.5807,4.5834,4.5969,4.6095,4.6203,4.6203,4.6243,4.6308,4.6308,4.6308,4.6308,4.6308,4.6308,4.6308,4.6308,4.6308,4.6308,4.6308,4.6308,4.6308,4.6308,4.6308,4.6308,4.6308,4.6289,4.6289,4.6289,4.6289,4.6269,4.6269,4.6269,4.5566,4.3841,4.3703,4.3699,4.3686,4.3685,4.3685,4.3666,4.3666,4.3666,4.3666,4.3666,4.3666,4.3666,4.3666,4.3666,4.3666,4.3666,4.3666,4.1966,4.2216,4.2216,4.2216,4.2004,4.1639,4.105,4.0704,4.0496,4.0496,4.0496,4.0496,4.0496,4.0496,4.0593,4.0877,4.2143,4.3181,4.3431,4.4705,0.0,4.5594,4.6124,4.649,4.649,4.7235,4.7966,4.8567,4.8298,4.8355,4.8952,4.8413,4.7855,4.7336,4.7586,4.7716,4.7716,4.7716,4.7447,4.6908,4.662,4.6182,4.5594,4.5594,4.5594,4.5594,4.5594,4.5594,4.5594,4.5594,4.5603,4.564,4.5688,4.5717,4.575,4.5785,4.5795,4.581,4.5796,4.5803,4.5803,4.5803,4.5803,4.5814,4.5861,4.5969,4.608,4.6167,4.621,4.624,4.6289,4.6308,4.6308,4.6308,4.6308,4.6308,4.6308,4.6308,4.6308,4.6308,4.6308,4.6308,4.6308,4.6308,4.6308,4.6308,4.6308,4.6308,4.6308,4.6308,4.6308,4.6308,4.6308,4.6074,4.5521,4.5481,4.5223,4.4622,4.4582,4.4328,4.3724,4.3705,4.3705,4.3705,4.3705,4.3705,4.3705,4.3705,4.3705,4.3705,4.3705,4.3705,4.1146,4.1316,4.1316,4.1316,4.1316,0.0,4.0627,4.0496,4.0496,4.0496,4.0496,4.0496,4.0496,4.0496,4.0612,4.0935,4.2181,4.3201,4.3508,4.4724,4.5594,4.5594,4.6374,4.6908,4.6908,4.7928,4.8817,4.9356,4.9202,4.9317,4.9861,4.9375,4.9086,4.9086,4.8759,4.8586,4.8586,4.8586,4.8336,4.7832,4.7197,4.662,4.609,4.5744,4.5594,4.5594,4.5594,4.5594,0.0,4.5594,4.5594,4.5594,4.5644,4.5684,4.5705,4.5742,4.5781,4.5792,4.5794,4.5793,4.5803,4.5803,4.5803,4.5803,4.5803,4.5883,4.6018,4.6132,4.6171,4.6208,4.6243,4.6288,4.6308,4.6308,4.6308,4.6308,4.6308,4.6308,4.6308,4.6308,4.6308,4.6308,4.6308,4.6308,4.6308,4.6308,4.6308,4.6308,4.6308,4.6308,4.6308,4.6308,4.6308,4.6307,4.6302,4.6301,4.6063,4.552,4.55,4.5246,4.47,4.4681,4.4681,4.4681,4.4681,4.4681,4.4681,4.4681,4.4681,4.4681,4.4681,4.4681,0.0,4.0485,4.0496,4.0496,4.0496,4.0496,4.0496,4.0496,0.0,4.0496,4.0496,4.0496,4.0496,4.0554,4.0858,4.1677,4.2581,4.3451,4.4182,4.5051,4.5614,4.5686,4.6451,4.7005,4.7062,4.8548,4.949,4.949,5.0245,5.0707,5.0707,5.0707,5.0707,5.0707,4.9918,4.949,4.949,4.949,4.9452,4.9375,4.7812,4.7024,4.687,4.6071,4.5667,4.5594,4.5594,4.5594,4.5594,4.5594,4.5594,4.5594,4.5594,4.564,4.5697,4.5701,4.5734,4.5784,4.5804,4.5794,4.5803,4.5803,4.5803,4.5803,4.5803,4.5896,4.5993,4.6068,4.6138,4.6196,4.6201,4.6242,4.6289,4.6308,4.6308,4.6308,4.6308,4.6308,4.6308,4.6308,4.6308,4.6308,4.6308,4.6308,4.6308,4.6308,4.6308,4.6308,4.6308,4.6308,4.6308,4.6308,4.6308,4.6306,4.6302,4.6301,4.6296,4.6302,4.6301,4.6301,4.6301,4.6301,4.6301,4.6301,4.6301,4.6301,4.6301,4.6301,4.6301,4.6301,4.6301,4.6301,4.02,0.0,4.0496,4.0496,4.0496,4.0496,0.0,0.0,0.0,0.0,0.0,0.0,4.0496,4.1046,4.1562,4.1773,4.3047,4.4085,4.4278,4.5051,4.584,4.6528,4.7312,4.8082,4.8759,4.9764,5.038,5.038,5.0572,5.0707,5.0707,5.0707,5.0707,5.0707,5.0495,5.038,5.038,5.038,5.0053,4.9394,4.899,4.8144,4.6889,4.6697,4.622,4.5594,4.5594,4.5594,4.5594,4.5594,4.5594,4.5594,4.5594,4.5618,4.5631,4.5688,4.5714,4.5723,4.5777,4.5794,4.5803,4.5803,4.5803,4.5803,4.5803,4.5827,4.5864,4.5988,4.6036,4.6064,4.6167,4.6209,4.6239,4.6289,4.6308,4.6308,4.6308,4.6308,4.6308,4.6308,4.6308,4.6308,4.6308,4.6308,4.6308,4.6308,4.6308,4.6308,4.6308,4.6308,4.6308,4.6308,4.6308,4.6308,4.6302,4.6298,4.6292,4.6301,4.6301,4.6301,4.6301,4.6301,4.6301,4.6301,4.6301,4.6301,4.6301,4.6301,4.6301,4.6301,4.6301,4.6301,3.9973,4.0195,4.0377,4.0477,4.0496,4.0496,4.0496,0.0,0.0,0.0,0.0,0.0,0.0,4.1485,4.2043,4.2812,4.3701,4.4436,4.484,4.5648,4.6374,4.6831,4.7966,4.8875,4.9356,5.0188,5.0707,5.0707,5.0707,5.0707,5.0707,5.0707,5.0707,5.0707,5.0707,5.0707,5.0707,5.0707,5.0457,4.9995,4.9591,4.8913,4.8029,4.7255,4.6639,4.6163,4.5763,4.5594,4.5594,4.5594,4.5594,4.5594,4.5594,4.5594,4.5594,4.564,4.5678,4.5703,4.5746,4.5776,4.5803,4.5803,4.5803,4.5803,4.5803,4.5803,4.5821,4.5899,4.5958,4.6018,4.6128,4.6189,4.6211,4.6288,4.6308,4.6308,4.6308,4.6308,4.6308,4.6308,4.6308,4.6308,4.6308,4.6308,4.6308,4.6308,4.6308,4.6308,4.6308,4.6308,4.6308,4.6308,4.6308,4.6306,4.6302,4.6294,4.6306,4.6301,4.6301,4.6301,4.6301,4.6301,4.6301,4.6301,4.6301,4.6301,4.6301,4.6301,4.6301,4.6301,4.6301,4.6301,3.9835,4.0032,4.0251,4.0453,4.0496,4.0496,4.0496,0.0,0.0,0.0,0.0,0.0,0.0,4.2004,0.0,4.4066,4.4417,4.4763,4.5498,4.6355,4.6947,4.7062,4.8452,4.9452,4.9591,5.0265,5.0707,5.0707,5.0707,5.0707,5.0707,5.0707,5.0707,5.0707,5.0707,5.0707,5.0707,5.0707,5.0707,5.0688,4.9957,4.9529,4.9356,4.7928,4.7216,4.7043,4.6163,0.0,4.5782,4.5648,4.5594,4.5594,4.5594,4.5594,4.5594,4.5594,4.564,4.5709,4.5719,4.5746,4.5803,4.5803,4.5803,4.5803,4.5803,4.5803,4.5803,4.5803,4.5873,4.598,4.606,4.6135,4.6204,4.6267,4.6289,4.6308,4.6308,4.6308,4.6308,4.6308,4.6308,4.6308,4.6308,4.6308,4.6308,4.6308,4.6308,4.6308,4.6308,4.6308,4.6308,4.6308,4.6306,4.6302,4.6301,4.6291,4.6302,4.6301,4.6301,4.6301,4.6301,4.6301,4.6301,4.6301,4.6301,4.6301,4.6301,4.6301,4.6301,4.6301,4.6301,4.6301,4.0022,4.0163,4.0251,4.0453,4.0496,4.0496,4.0496,0.0,0.0,0.0,0.0,0.0,0.0,4.297,4.3989,4.4259,4.4917,4.5455,4.5575,4.6355,4.7158,4.7832,4.8798,4.9687,5.0438,5.0611,5.0707,5.0707,5.0707,5.0707,5.0707,5.0707,5.0707,5.0707,5.0707,5.0707,5.0707,5.0707,5.0707,5.0707,5.0553,5.0111,4.9394,4.9125,4.8606,4.787,0.0,4.6697,4.6639,4.5898,4.5594,4.5594,4.5594,4.5594,4.5594,4.5594,4.564,4.5713,4.575,4.5787,4.5803,4.5803,4.5803,4.5803,4.5803,4.5803,4.5803,4.5803,4.5801,4.5851,4.5977,4.6078,4.6132,4.6202,4.6265,4.6308,4.6308,4.6308,4.6308,4.6308,4.6308,4.6308,4.6308,4.6308,4.6308,4.6308,4.6308,4.6308,4.6308,4.6308,4.6308,4.6308,4.6308,4.6305,4.6302,4.6296,4.6308,4.6301,4.6301,4.6301,4.6301,4.6301,4.6301,4.6301,4.6301,4.6301,4.6301,4.6301,4.6301,4.6301,4.6301,4.6301,4.0134,4.0282,4.0377,4.0477,4.0496,4.0496,4.0496,0.0,0.0,0.0,0.0,0.0,4.2989,4.3778,4.4455,4.4936,4.534,4.5594,4.5594,4.6721,4.7697,4.8062,4.9279,5.0265,5.0649,5.0707,5.0707,5.0707,5.0707,5.0707,5.0707,5.0707,5.0707,5.0707,5.0707,5.0707,5.0707,5.0707,5.0707,5.0707,5.0707,5.0495,5.0091,4.961,4.9183,4.8759,0.0,4.7543,4.7524,4.7124,4.6682,4.6297,4.6297,4.6013,4.5594,4.5594,4.564,4.5709,4.5735,4.5761,4.5798,4.58,4.5803,4.5803,4.5803,4.5803,4.5803,4.5803,4.5803,4.5838,4.5969,4.6057,4.6118,4.6173,4.6243,4.6308,4.6308,4.6308,4.6308,4.6308,4.6308,4.6308,4.6308,4.6308,4.6308,4.6308,4.6308,4.6308,4.6308,4.6308,4.6308,4.6308,4.6307,4.6304,4.6302,4.6293,4.6305,4.6301,4.6301,4.6301,4.6301,4.6301,4.6301,4.6301,4.6301,4.6301,4.6301,4.6301,4.6301,4.6301,4.6301,4.6301,4.0265,4.0379,4.05,4.05,4.0508,4.0554,4.0762,4.08,4.105,0.0,4.2254,4.2773,4.4066,4.4474,4.4821,4.5494,4.5594,4.5667,4.5879,4.7163,4.8178,4.8375,4.9764,5.0707,5.0707,5.0707,5.0707,5.0707,5.0707,5.0707,5.0707,5.0707,5.0707,5.0707,5.0707,5.0707,5.0707,5.0707,5.0707,5.0707,5.0707,5.0707,5.0668,5.0014,4.9707,4.9668,4.8779,4.8394,4.8394,4.8178,4.7735,4.7178,4.7178,4.6663,4.5879,4.5686,4.564,4.5705,4.5699,4.5746,4.5792,4.5801,4.5796,4.5803,4.5803,4.5803,4.5803,4.5803,4.5803,4.5811,4.5935,4.6003,4.6093,4.6156,4.6235,4.6288,4.6308,4.6308,4.6308,4.6308,4.6308,4.6308,4.6308,4.6308,4.6308,4.6308,4.6308,4.6308,4.6308,4.6308,4.6308,4.6308,4.6306,4.6301,4.6298,4.6308,4.6301,4.6301,4.6301,4.6301,4.6301,4.6301,4.6301,4.6301,4.6301,4.6301,4.6301,4.6301,4.6301,4.6301,4.6301,4.6301,4.0437,4.0497,4.051,4.051,4.0503,4.0704,4.1523,4.1716,4.1946,4.2835,4.3605,4.4162,4.4278,4.4955,4.5537,4.5594,4.5594,4.5879,4.6697,4.7543,4.8394,4.9202,5.013,5.0707,5.0707,5.0707,5.0707,5.0707,5.0707,5.0707,5.0707,5.0707,5.0707,5.0707,5.0707,5.0707,5.0707,5.0707,5.0707,5.0707,5.0707,5.0707,5.0707,5.063,5.0611,5.0553,4.9687,4.9317,4.924,4.8432,4.8062,4.8005,4.8005,4.7524,4.6716,4.5898,4.564,4.5701,4.5705,4.5738,4.5807,4.5792,4.5794,4.5803,4.5803,4.5803,4.5803,4.5803,4.5803,4.5807,4.5817,4.5904,4.602,4.6089,4.6155,4.6215,4.6288,4.6308,4.6308,4.6308,4.6308,4.6308,4.6308,4.6308,4.6308,4.6308,4.6308,4.6308,4.6308,4.6308,4.6308,4.6308,4.6306,4.6297,4.6304,4.6302,4.6301,4.6301,4.6301,4.6301,4.6301,4.6301,4.6301,4.6301,4.6301,4.6301,4.6301,4.6301,4.6301,4.6301,4.6301,4.6301,4.047,4.0502,4.0617,4.112,4.1283,4.1393,4.1716,4.2191,4.2798,4.3677,4.4083,4.4478,4.5009,4.5379,4.5594,4.5594,4.6052,4.6528,4.6851,4.8067,4.9029,4.9356,5.0168,5.0707,5.0707,5.0707,5.0707,5.0707,5.0707,5.0707,5.0707,5.0707,5.0707,5.0707,5.0707,5.0707,5.0707,5.0707,5.0707,5.0707,5.0707,5.0707,5.0707,5.0707,5.0707,5.0668,5.0341,5.0207,5.0188,4.9861,4.9394,4.8856,4.8312,4.7908,4.7601,4.7278,4.7176,4.7194,4.7244,4.6944,4.6553,4.658,4.6232,4.5803,4.5803,4.5803,4.5803,4.5803,4.5803,4.5803,4.5803,4.5908,4.601,4.6032,4.6122,4.6206,4.6237,4.6267,4.6308,4.6308,4.6308,4.6308,4.6308,4.6308,4.6308,4.6308,4.6308,4.6308,4.6308,4.6308,4.6308,4.6308,4.6306,4.6297,4.6302,4.6301,4.6301,4.6301,4.6301,4.6301,4.6301,4.6301,4.6301,4.6301,4.6301,4.6301,4.6301,4.6301,4.6301,4.6301,4.6301,4.6301,4.047,4.0481,4.0673,4.1483,4.1914,4.2196,4.2497,4.3007,4.3655,4.448,4.4654,4.4837,4.5444,4.5568,4.5669,4.5951,4.6509,4.7081,4.7601,4.8682,4.949,4.9784,5.0341,5.0707,5.0707,5.0707,5.0707,5.0707,5.0707,5.0707,5.0707,5.0707,5.0707,5.0707,5.0707,5.0707,5.0707,5.0707,5.0707,5.0707,5.0707,5.0707,5.0707,5.0707,5.0707,5.0707,5.0707,5.0707,5.0707,5.0707,5.0341,4.9726,4.8856,4.8509,4.849,4.8197,4.8101,4.8105,4.8157,4.7812,4.7392,4.7421,4.7071,4.6598,4.6598,4.6605,4.6616,4.6616,4.6616,4.6558,4.6287,4.6071,4.5955,4.5991,4.6084,4.6167,4.62,4.6244,4.6308,4.6308,4.6308,4.6308,4.6308,4.6308,4.6308,4.6308,4.6308,4.6308,4.6308,4.6308,4.6308,4.6308,4.6305,4.6297,4.6302,4.6301,4.6301,4.6301,4.6301,4.6301,4.6301,4.6301,4.6301,4.6301,4.6301,4.6301,4.6301,4.6301,4.6301,4.6301,4.6301,4.6301,4.0413,4.0407,4.0618,4.1489,0.0,0.0,4.4006,4.4268,4.4521,4.5242,4.5405,4.5419,4.549,4.5499,4.582,4.6745,4.6908,4.7505,4.9163,4.9413,4.9726,5.0592,5.0707,5.0707,5.0707,5.0707,5.0707,5.0707,5.0707,5.0707,5.0707,5.0707,5.0707,5.0707,5.0707,5.0707,5.0707,5.0707,5.0707,5.0707,5.0707,5.0707,5.0707,5.0707,5.0707,5.0707,5.0707,5.0707,5.0707,5.0707,5.0707,5.0611,4.9745,4.9413,4.9317,4.8432,4.812,4.812,4.812,4.8152,4.8212,4.8212,4.8257,4.8296,4.8296,4.8342,4.8392,4.8392,4.8392,4.8198,4.7351,4.6461,4.5841,4.5972,4.6059,4.612,4.6174,4.6244,4.6308,4.6308,4.6308,4.6308,4.6308,4.6308,4.6308,4.6308,4.6308,4.6308,4.6308,4.6308,4.6308,4.6303,4.6301,4.6297,4.6302,4.6301,4.6301,4.6301,4.6301,4.6301,4.6301,4.6301,4.6301,4.6301,4.6301,4.6301,4.6301,4.6301,4.6301,4.6301,4.6301,4.6301,4.0342,4.0784,4.1431,4.2263,0.0,0.0,0.0,4.5055,0.0,0.0,4.54,4.5419,4.549,4.5994,4.6527,4.6842,4.7889,4.8836,4.9336,4.9938,5.0418,5.0668,5.0707,5.0707,5.0707,5.0707,5.0707,5.0707,5.0707,5.0707,5.0707,5.0707,5.0707,5.0707,5.0707,5.0707,5.0707,5.0707,5.0707,5.0707,5.0707,5.0707,5.0707,5.0707,5.0707,5.0707,5.0707,5.0707,5.0707,5.0707,5.0707,5.0668,5.0418,5.0303,5.0284,5.0014,4.9938,4.9938,4.9938,4.9562,4.9102,4.9114,4.8745,4.8319,4.8365,4.8384,4.8392,4.8392,4.8392,4.8333,4.8082,4.7811,4.7323,4.6148,4.5988,4.6105,4.6126,4.6212,4.6308,4.6308,4.6308,4.6308,4.6308,4.6308,4.6308,4.6308,4.6308,4.6308,4.6308,4.6308,4.6308,4.6303,4.6301,4.6297,4.6302,4.6301,4.6301,4.6301,4.6301,4.6301,4.6301,4.6301,4.6301,4.6301,4.6301,4.6301,4.6301,4.6301,4.6301,4.6301,4.6301,4.6301,4.0362,4.0985,4.1823,4.2608,4.347,4.4331,4.5167,0.0,0.0,0.0,4.536,4.5471,4.587,4.6373,4.6964,4.7684,4.8673,4.9471,4.9797,5.0336,5.0683,5.0658,5.0673,5.0707,5.0707,5.0707,5.0707,5.0707,5.0707,5.0707,5.0707,5.0707,5.0707,5.0707,5.0707,5.0707,5.0707,5.0707,5.0707,5.0707,5.0707,5.0707,5.0707,5.0707,5.0707,5.0707,5.0707,5.0707,5.0707,5.0707,5.0707,5.0707,5.0707,5.0707,5.0707,5.0707,5.0707,5.0707,5.0707,5.038,4.9985,4.9969,4.9661,4.9299,4.9343,4.937,4.9393,4.9393,4.9393,4.9316,4.901,4.8914,4.8565,4.7198,4.699,4.7003,4.672,4.6742,4.6719,4.6367,4.6308,4.6308,4.6308,4.6308,4.6308,4.6308,4.6308,4.6308,4.6308,4.6308,4.6308,4.6303,4.6301,4.6297,4.6302,4.6301,4.6301,4.6301,4.6301,4.6301,4.6301,4.6301,4.6301,4.6301,4.6301,4.6301,4.6301,4.6301,4.6301,4.6301,4.6301,4.6301,4.0411,4.1073,4.195,4.2628,4.3454,0.0,4.513,4.5302,4.5302,4.5302,0.0,4.5642,4.6459,4.6713,4.7347,4.8931,4.9323,4.967,5.0396,5.0594,5.0658,5.0603,5.0648,5.0683,5.0707,5.0707,5.0707,5.0707,5.0707,5.0707,5.0707,5.0707,5.0707,5.0707,5.0707,5.0707,5.0707,5.0707,5.0707,5.0707,5.0707,5.0707,5.0707,5.0707,5.0707,5.0707,5.0707,5.0707,5.0707,5.0707,5.0707,5.0707,5.0707,5.0707,5.0707,5.0707,5.0707,5.0707,5.0707,5.0707,5.0693,5.0693,5.074,5.0793,5.0801,5.0857,5.0894,5.0898,5.0898,5.0724,4.9993,4.98,4.9635,4.8921,4.8673,4.8418,4.7757,4.767,4.7461,4.6582,4.6426,4.6387,4.6308,4.6308,4.6308,4.6308,4.6308,4.6308,4.6308,4.6308,4.6308,4.6303,4.6302,4.6297,4.6303,4.6301,4.6301,4.6301,4.6301,4.6301,4.6301,4.6301,4.6301,4.6301,4.6301,4.6301,4.6301,4.6301,4.6301,4.6301,4.6301,4.6301,4.0337,4.1422,0.0,4.2766,4.3912,4.5073,4.5264,4.5302,4.5302,4.5302,4.5793,4.6325,4.655,4.767,4.8706,4.9123,4.9796,5.0305,5.0486,5.0527,5.0553,5.0598,5.0613,5.0638,5.0683,5.0707,5.0707,5.0707,5.0707,5.0707,5.0707,5.0707,5.0707,5.0707,5.0707,5.0707,5.0707,5.0707,5.0707,5.0707,5.0707,5.0707,5.0707,5.0707,5.0707,5.0707,5.0707,5.0707,5.0707,5.0707,5.0707,5.0707,5.0707,5.0707,5.0707,5.0707,5.0707,5.0707,5.0707,5.0707,5.0697,5.0692,5.072,5.0733,5.0846,5.0899,5.0901,5.089,5.0898,5.0859,5.0689,5.0651,5.0644,5.0627,4.9594,4.8594,4.8539,4.8568,4.8359,4.748,4.7324,4.7109,4.6426,4.6308,4.6308,4.6308,4.6308,4.6308,4.6308,4.6308,4.6308,4.6306,4.6303,4.6299,4.6291,4.6304,4.6301,4.6301,4.6301,4.6301,4.6301,4.6301,4.6301,4.6301,4.6301,4.6301,4.6301,4.6301,4.6301,4.6301,4.6301,4.6301,4.0318,4.1513,0.0,4.3802,0.0,4.5302,4.5302,4.5302,4.5302,4.5302,4.5946,4.6639,4.7087,4.8226,4.9231,4.966,5.0128,5.0446,5.0404,5.0468,5.05,5.05,5.0567,5.0613,5.0643,5.0673,5.0707,5.0707,5.0707,5.0707,5.0707,5.0707,5.0707,5.0707,5.0707,5.0707,5.0707,5.0707,5.0707,5.0707,5.0707,5.0707,5.0707,5.0707,5.0707,5.0707,5.0707,5.0707,5.0707,5.0707,5.0707,5.0707,5.0707,5.0707,5.0707,5.0707,5.0707,5.0707,5.0707,5.0707,5.0693,5.0697,5.0702,5.0715,5.0829,5.0863,5.0908,5.0909,5.0898,5.0898,5.0898,5.0898,5.0942,5.1159,5.05,4.9772,4.9516,4.949,4.9258,4.8398,4.8223,4.7949,4.707,4.6582,4.6308,4.6308,4.6308,4.6308,4.6308,4.6308,4.6308,4.6307,4.6305,4.6302,4.6294,4.6309,4.6305,4.6301,4.6301,4.6301,4.6301,4.6301,4.6301,4.6301,4.6301,4.6301,4.6301,4.6301,4.6301,4.6301,4.6301,4.6301,4.0307,4.1527,4.3192,4.4873,4.5302,0.0,4.5302,4.5302,4.5302,4.5302,4.6061,4.6934,4.7679,4.864,4.9524,5.0187,5.0342,5.0354,5.0308,5.0407,5.0457,5.0412,5.0495,5.0572,5.0582,5.0638,5.0673,5.0673,5.0683,5.0707,5.0707,5.0707,5.0707,5.0707,5.0707,5.0707,5.0707,5.0707,5.0707,5.0707,5.0707,5.0707,5.0707,5.0707,5.0707,5.0707,5.0707,5.0707,5.0707,5.0707,5.0707,5.0707,5.0707,5.0707,5.0707,5.0707,5.0707,5.0707,5.0707,5.0707,5.0707,5.0707,5.0697,5.0716,5.077,5.081,5.0868,5.0897,5.0909,5.0917,5.0933,5.0921,5.0981,5.1163,5.1222,5.1063,5.0525,5.041,5.0156,4.9297,4.9004,4.8613,4.7754,4.6992,4.6465,4.6328,4.6308,4.6308,4.6308,4.6308,4.6308,4.6307,4.6307,4.6305,4.6297,4.6295,4.6291,4.6303,4.6302,4.6301,4.6301,4.6301,4.6301,4.6301,4.6301,4.6301,4.6301,4.6301,4.6301,4.6301,4.6301,4.6301,4.0316,0.0,4.3205,0.0,4.5302,4.5302,0.0,0.0,4.5302,0.0,4.6538,4.766,4.7769,4.9074,5.0168,5.0283,5.0308,5.0308,5.0302,5.0314,5.0342,5.0401,5.0418,5.0451,5.0511,5.0563,5.0613,5.0613,5.0658,5.0707,5.0707,5.0707,5.0707,5.0707,5.0707,5.0707,5.0707,5.0707,5.0707,5.0707,5.0707,5.0707,5.0707,5.0707,5.0707,5.0707,5.0707,5.0707,5.0707,5.0707,5.0707,5.0707,5.0707,5.0707,5.0707,5.0707,5.0707,5.0707,5.0707,5.0707,5.0707,5.0707,5.0693,5.0707,5.0716,5.0715,5.0757,5.0863,5.0908,5.0933,5.1037,5.1075,5.11,5.1242,5.1287,5.1281,5.1249,5.123,5.0996,5.0176,4.9414,4.8613,4.7754,4.75,4.7168,4.6406,4.6308,4.6308,4.6308,4.6308,4.6308,4.6308,4.6308,4.6306,4.6306,4.6299,4.6293,4.6291,4.6305,4.6301,4.6301,4.6301,4.6301,4.6301,4.6301,4.6301,4.6301,4.6301,4.6301,4.6301,4.6301,4.6301,4.1469,4.224,4.3195,0.0,4.5302,4.5302,4.5302,4.5302,4.5302,4.5302,4.6233,4.7221,4.7717,4.9169,5.0302,5.0302,5.0302,5.0302,5.0302,5.0302,5.0308,5.0337,5.0384,5.0418,5.0446,5.0546,5.0598,5.0598,5.0658,5.0707,5.0707,5.0707,5.0707,5.0707,5.0707,5.0707,5.0707,5.0707,5.0707,5.0707,5.0707,5.0707,5.0707,5.0707,5.0707,5.0707,5.0707,5.0707,5.0707,5.0707,5.0707,5.0707,5.0707,5.0707,5.0707,5.0707,5.0707,5.0707,5.0707,5.0707,5.0707,5.0707,5.0707,5.0697,5.0706,5.0696,5.0739,5.0855,5.0899,5.0929,5.1059,5.1102,5.1124,5.1273,5.1297,5.1327,5.1386,5.1406,5.1308,5.0937,5.0195,4.9512,4.9121,4.8652,4.8027,4.7168,4.7031,4.6855,4.6367,4.6308,4.6308,4.6308,4.6308,4.6308,4.6307,4.6302,4.6297,4.6293,4.6306,4.6301,4.6301,4.6301,4.6301,4.6301,4.6301,4.6301,4.6301,4.6301,4.6301,4.6301,4.6301,4.6301,0.0,0.0,4.3195,4.4881,4.5302,4.5302,0.0,0.0,4.5302,4.5302,4.5946,4.6762,4.7641,4.8997,5.0054,5.0264,5.0302,5.0302,5.0302,5.0302,5.0302,5.0302,5.0337,5.0365,5.0365,5.0495,5.0558,5.0558,5.0648,5.0707,5.0707,5.0707,5.0707,5.0707,5.0707,5.0707,5.0707,5.0707,5.0707,5.0707,5.0707,5.0707,5.0707,5.0707,5.0707,5.0707,5.0707,5.0707,5.0707,5.0707,5.0707,5.0707,5.0707,5.0707,5.0707,5.0707,5.0707,5.0707,5.0707,5.0707,5.0707,5.0707,5.0707,5.0697,5.0692,5.0702,5.072,5.0825,5.0855,5.0905,5.1051,5.1103,5.1164,5.1293,5.133,5.1336,5.1386,5.1406,5.1406,5.1406,5.0918,5.0449,5.0234,4.9668,4.8926,4.8066,4.7734,4.7363,4.6719,4.6445,4.6308,4.6308,4.6308,4.6308,4.6308,4.6305,4.6301,4.6296,4.6309,4.6302,4.6301,4.6301,4.6301,4.6301,4.6301,4.6301,4.6301,4.6301,4.6301,4.6301,4.6301,4.6301,0.0,4.2795,0.0,4.4881,4.5302,4.5302,0.0,0.0,4.5302,4.5302,4.5946,4.6762,4.7641,4.8544,4.941,5.0187,5.0302,5.0302,5.0302,5.0302,5.0302,5.0302,5.0302,5.0302,5.0302,5.044,5.0505,5.0505,5.0628,5.0707,5.0707,5.0707,5.0707,5.0707,5.0707,5.0707,5.0707,5.0707,5.0707,5.0707,5.0707,5.0707,5.0707,5.0707,5.0707,5.0707,5.0707,5.0707,5.0707,5.0707,5.0707,5.0707,5.0707,5.0707,5.0707,5.0707,5.0707,5.0707,5.0707,5.0707,5.0707,5.0707,5.0707,5.0712,5.0693,5.0693,5.0702,5.0711,5.0766,5.0855,5.1049,5.1142,5.1236,5.1363,5.1387,5.1406,5.1406,5.1406,5.1406,5.1406,5.1367,5.1094,5.0332,5.0156,4.9844,4.8965,4.8125,4.7578,4.7539,4.6816,4.6308,4.6308,4.6308,4.6308,4.6308,4.6308,4.6305,4.6301,4.6296,4.6309,4.6301,4.6301,4.6301,4.6301,4.6301,4.6301,4.6301,4.6301,4.6301,4.6301,4.6301,4.6301,0.0,0.0,0.0,4.4183,4.4926,4.5348,4.5312,4.5333,4.5348,4.5312,4.5531,4.5984,4.68,4.8143,4.9352,5.0168,5.0302,5.0302,5.0302,5.0302,5.0302,5.0302,5.0302,5.0302,5.0302,5.0376,5.0457,5.05,5.0573,5.0648,5.0707,5.0707,5.0707,5.0707,5.0707,5.0707,5.0707,5.0707,5.0707,5.0707,5.0707,5.0707,5.0707,5.0707,5.0707,5.0707,5.0707,5.0707,5.0707,5.0707,5.0707,5.0707,5.0707,5.0707,5.0707,5.0707,5.0707,5.0707,5.0707,5.0707,5.0707,5.0707,5.0707,5.0707,5.0707,5.0707,5.0697,5.0706,5.0715,5.0795,5.1049,5.1118,5.1188,5.1363,5.1406,5.1406,5.1406,5.1406,5.1406,5.1406,5.1406,5.1308,5.1016,5.0976,5.0683,4.9863,4.9473,4.8867,4.7734,4.7324,4.6914,4.6367,4.6308,4.6308,4.6308,4.6308,4.6306,4.6305,4.6299,4.6292,4.6309,4.6303,4.6301,4.6301,4.6301,4.6301,4.6301,4.6301,4.6301,4.6301,4.6301,4.6301,4.1778,0.0,0.0,0.0,4.4907,4.5353,4.5333,4.5378,4.5393,4.5338,4.5333,4.5571,4.6366,4.7685,4.8926,4.9767,5.013,5.0302,5.0302,5.0302,5.0302,5.0302,5.0302,5.0302,5.0302,5.0354,5.0424,5.0468,5.0521,5.0593,5.0633,5.0648,5.0687,5.0707,5.0707,5.0707,5.0707,5.0707,5.0707,5.0707,5.0707,5.0707,5.0707,5.0707,5.0707,5.0707,5.0707,5.0707,5.0707,5.0707,5.0707,5.0707,5.0707,5.0707,5.0707,5.0707,5.0707,5.0707,5.0707,5.0707,5.0707,5.0707,5.0707,5.0707,5.0707,5.0707,5.0697,5.0707,5.0706,5.0765,5.1003,5.1127,5.1236,5.1365,5.1406,5.1406,5.1406,5.1406,5.1406,5.1406,5.1406,5.1406,5.1406,5.1406,5.1211,5.0683,5.0371,4.9785,4.8613,4.7969,4.7383,4.6797,4.6465,4.6308,4.6308,4.6308,4.6307,4.6307,4.6301,4.6295,4.6293,4.6305,4.6301,4.6301,4.6301,4.6301,4.6301,4.6301,4.6301,4.6301,4.6301,4.6301,0.0,0.0,0.0,0.0,0.0,0.0,4.5393,0.0,4.5408,4.5408,4.5408,4.5617,4.6339,4.7182,4.8042,4.8913,4.9767,5.0302,5.0302,5.0302,5.0302,5.0302,5.0302,5.0302,5.0302,5.0354,5.0401,5.0407,5.0468,5.0505,5.0511,5.0577,5.0628,5.0707,5.0707,5.0707,5.0707,5.0707,5.0707,5.0707,5.0707,5.0707,5.0707,5.0707,5.0707,5.0707,5.0707,5.0707,5.0707,5.0707,5.0707,5.0707,5.0707,5.0707,5.0707,5.0707,5.0707,5.0707,5.0707,5.0707,5.0707,5.0707,5.0707,5.0707,5.0707,5.0707,5.0707,5.0707,5.0707,5.0756,5.0957,5.1202,5.1405,5.1406,5.1406,5.1406,5.1406,5.1406,5.1406,5.1406,5.1406,5.1406,5.1406,5.1406,5.1406,5.1406,5.0742,5.0234,5.0195,4.8711,4.7676,4.7637,4.6855,4.6348,4.6348,4.6308,4.6308,4.6307,4.6304,4.63,4.6293,4.6306,4.6301,4.6301,4.6301,4.6301,4.6301,4.6301,4.6301,4.6301,4.6301,4.6301,4.1838,0.0,0.0,0.0,0.0,0.0,4.5399,4.5443,4.5467,4.541,4.5395,4.5455,4.567,4.6336,4.7144,4.8023,4.936,5.0302,5.0302,5.0302,5.0302,5.0302,5.0302,5.0302,5.0302,5.0314,5.0359,0.0,5.0495,5.0542,5.0638,5.0658,5.0673,5.0707,5.0707,5.0707,5.0707,5.0707,5.0707,5.0707,5.0707,5.0707,5.0707,5.0707,5.0707,5.0707,5.0707,5.0707,5.0707,5.0707,5.0707,5.0707,5.0707,5.0707,5.0707,5.0707,5.0707,5.0707,5.0707,5.0707,5.0707,5.0707,5.0707,5.0707,5.0707,5.0707,5.0707,5.0707,5.0766,5.0882,5.1091,5.1269,5.1405,5.1405,5.1406,5.1406,5.1406,5.1406,5.1406,5.1406,5.1406,5.1406,5.1406,5.1406,5.1406,5.1406,5.1211,5.0859,5.0273,4.9785,4.9238,4.8613,4.7754,4.7246,4.7246,4.666,4.6308,4.6308,4.6307,4.6304,4.63,4.6294,4.6306,4.6301,4.6301,4.6301,4.6301,4.6301,4.6301,4.6301,4.6301,4.6301,0.0,0.0,0.0,0.0,0.0,0.0,4.5438,4.5477,4.549,4.5443,4.5434,4.5424,4.5404,4.6059,4.6755,4.7253,4.8745,4.9952,5.027,5.0302,5.0302,5.0302,5.0319,5.0325,5.0302,5.0319,5.0365,5.0457,5.0462,5.0516,5.0648,5.0653,5.0663,5.0707,5.0707,5.0707,5.0707,5.0707,5.0707,5.0707,5.0707,5.0707,5.0707,5.0707,5.0707,5.0707,5.0707,5.0707,5.0707,5.0707,5.0707,5.0707,5.0707,5.0707,5.0707,5.0707,5.0707,5.0707,5.0707,5.0707,5.0707,5.0707,5.0707,5.0707,5.0707,5.0707,5.0707,5.0707,5.0829,5.0969,5.1158,5.1292,5.1401,5.1404,5.1405,5.1406,5.1406,5.1406,5.1406,5.1406,5.1406,5.1406,5.1406,5.1406,5.1406,5.1406,5.1406,5.123,5.0762,5.041,5.0019,4.9492,4.8652,4.8144,4.8144,4.7344,4.6836,4.6836,4.6503,4.6305,4.6302,4.6296,4.6309,4.6301,4.6301,4.6301,4.6301,4.6301,4.6301,4.6301,4.6301,4.6301,0.0,0.0,0.0,0.0,4.5381,0.0,4.549,4.5504,4.5508,4.5508,4.5504,4.5485,4.5424,4.6038,4.6584,4.668,4.7945,4.9212,5.0069,5.0256,5.0314,5.0319,5.0379,5.0384,5.0325,5.0384,5.0418,5.0424,5.0429,5.0484,5.0603,5.0608,5.0633,5.0707,5.0707,5.0707,5.0707,5.0707,5.0707,5.0707,5.0707,5.0707,5.0707,5.0707,5.0707,5.0707,5.0707,5.0707,5.0707,5.0707,5.0707,5.0707,5.0707,5.0707,5.0707,5.0707,5.0707,5.0707,5.0707,5.0707,5.0707,5.0707,5.0707,5.0707,5.0707,5.0707,5.0697,5.0726,5.0859,5.1058,5.1199,5.1303,5.1393,5.1403,5.1404,5.1405,5.1406,5.1406,5.1406,5.1406,5.1406,5.1406,5.1406,5.1406,5.1406,5.1406,5.1406,5.1406,5.1406,5.0781,5.0332,5.0332,4.9551,4.9043,4.9043,4.8242,4.7734,4.7734,4.7011,4.6599,4.6596,4.659,4.6544,4.6459,4.6359,4.6301,4.6301,4.6301,4.6301,4.6301,4.6301,4.6301,0.0,0.0,0.0,0.0,4.5357,0.0,4.5508,4.5531,4.5577,4.5577,4.5546,4.5499,4.5485,4.5587,4.5879,4.6584,4.6967,4.7705,4.9198,4.9978,5.0407,5.0443,5.041,5.0424,5.0462,5.0478,5.05,5.0562,5.0613,5.0648,5.0673,5.0673,5.0697,5.0707,5.0707,5.0707,5.0707,5.0707,5.0707,5.0707,5.0707,5.0707,5.0707,5.0707,5.0707,5.0707,5.0707,5.0707,5.0707,5.0707,5.0707,5.0707,5.0707,5.0707,5.0707,5.0707,5.0707,5.0707,5.0707,5.0707,5.0707,5.0707,5.0707,5.0707,5.0707,5.0707,5.0735,5.09,5.1059,5.1197,5.1331,5.1379,5.1392,5.1399,5.1403,5.1405,5.1406,5.1406,5.1406,5.1406,5.1406,5.1406,5.1406,5.1406,5.1406,5.1406,5.1406,5.1406,5.1406,5.1269,5.1172,5.1172,5.043,4.9941,4.9941,4.9141,4.8652,4.8652,4.8496,4.8398,4.8396,4.8392,4.8055,4.7366,4.6655,4.6301,4.6301,4.6301,4.6301,4.6301,4.6301,4.6301,0.0,0.0,0.0,4.4938,0.0,0.0,0.0,4.5386,4.5434,4.5573,4.5573,4.5555,4.5555,4.5517,4.5634,4.6071,4.6527,4.7084,4.7924,4.9062,4.9983,5.0442,5.05,5.0495,5.05,5.0527,5.0553,5.0598,5.0658,5.0707,5.0707,5.0707,5.0707,5.0707,5.0707,5.0707,5.0707,5.0707,5.0707,5.0707,5.0707,5.0707,5.0707,5.0707,5.0707,5.0707,5.0707,5.0707,5.0707,5.0707,5.0707,5.0707,5.0707,5.0707,5.0707,5.0707,5.0707,5.0707,5.0707,5.0707,5.0707,5.0707,5.0707,5.0707,5.0707,5.0707,5.0734,5.095,5.1047,5.1146,5.1356,5.1398,5.1404,5.1393,5.1397,5.1401,5.1405,5.1406,5.1406,5.1406,5.1406,5.1406,5.1406,5.1406,5.1406,5.1406,5.1406,5.1406,5.1406,5.1406,5.1406,5.1406,5.1035,5.0801,5.0801,5.0039,4.9551,4.9551,4.9141,4.8906,4.8905,4.8903,4.8684,4.8265,4.7397,4.6944,4.6944,4.6515,4.6301,4.6301,4.6301,4.6301,0.0,0.0,0.0,0.0,0.0,4.4868,0.0,0.0,0.0,4.5485,4.5568,4.5594,4.5594,4.5594,4.5556,4.5379,4.6086,4.6639,4.6639,4.7876,0.0,5.0167,5.0314,5.0396,5.0518,5.0593,5.0618,5.0618,5.0663,5.0707,5.0707,5.0707,5.0707,5.0707,5.0707,5.0707,5.0707,5.0707,5.0707,5.0707,5.0707,5.0707,5.0707,5.0707,5.0707,5.0707,5.0707,5.0707,5.0707,5.0707,5.0707,5.0707,5.0707,5.0707,5.0707,5.0707,5.0707,5.0707,5.0707,5.0707,5.0707,5.0707,5.0707,5.0707,5.0707,5.0726,5.0789,5.0943,5.1039,5.1132,5.1335,5.1394,5.1397,5.1407,5.1409,5.1393,5.1402,5.1404,5.1405,5.1406,5.1406,5.1406,5.1406,5.1406,5.1406,5.1406,5.1406,5.1406,5.1406,5.1406,5.1406,5.1406,5.1406,5.1406,5.1406,5.0801,5.043,5.043,4.9766,4.9375,4.9374,4.9237,4.9136,4.9124,4.8121,4.7608,4.7607,4.6729,4.6301,4.6301,4.6301,4.6301,0.0,0.0,0.0,0.0,4.4624,0.0,0.0,0.0,4.5211,4.5237,0.0,4.5594,4.5594,0.0,0.0,4.4571,4.5186,4.5744,4.5744,4.6558,4.7755,4.9341,4.9471,4.9768,5.061,5.0678,5.0697,5.0697,5.0707,5.0707,5.0707,5.0707,5.0707,5.0707,5.0707,5.0707,5.0707,5.0707,5.0707,5.0707,5.0707,5.0707,5.0707,5.0707,5.0707,5.0707,5.0707,5.0707,5.0707,5.0707,5.0707,5.0707,5.0707,5.0707,5.0707,5.0707,5.0707,5.0707,5.0707,5.0707,5.0707,5.0707,5.0707,5.0707,5.0707,5.0823,5.0966,5.0996,5.1163,5.1361,5.1391,5.1394,5.1397,5.1407,5.1409,5.1392,5.1398,5.1402,5.1405,5.1405,5.1406,5.1406,5.1406,5.1406,5.1406,5.1406,5.1406,5.1406,5.1406,5.1406,5.1406,5.1406,5.1406,5.1406,5.1406,5.1328,5.1269,5.1269,5.1172,5.1113,5.1113,5.0429,5.0015,4.9964,4.8401,4.7596,4.7607,4.6729,4.6301,4.6301,4.6301,4.6301,0.0,0.0,0.0,0.0,0.0,0.0,4.4526,0.0,4.4825,0.0,0.0,0.0,0.0,0.0,0.0,0.0,4.5359,4.5594,4.5594,4.5917,4.6778,4.8452,4.862,4.8962,4.9856,5.0399,5.0707,5.0707,5.0707,5.0707,5.0707,5.0707,5.0707,5.0707,5.0707,5.0707,5.0707,5.0707,5.0707,5.0707,5.0707,5.0707,5.0707,5.0707,5.0707,5.0707,5.0707,5.0707,5.0707,5.0707,5.0707,5.0707,5.0707,5.0707,5.0707,5.0707,5.0707,5.0707,5.0707,5.0707,5.0707,5.0707,5.0707,5.0707,5.0707,5.0801,5.0945,5.0984,5.1139,5.1297,5.1387,5.1394,5.1395,5.14,5.1401,5.1403,5.1392,5.1396,5.14,5.1404,5.1405,5.1406,5.1406,5.1406,5.1406,5.1406,5.1406,5.1406,5.1406,5.1406,5.1406,5.1406,5.1406,5.1406,5.1406,5.1406,5.1406,5.1406,5.1406,5.1406,5.1406,5.1073,5.0876,5.0853,4.9676,4.9044,4.904,4.7708,4.7041,4.7041,4.6534,4.6301,4.4005,0.0,0.0,0.0,0.0,0.0,0.0,0.0,0.0,0.0,0.0,0.0,0.0,0.0,0.0,0.0,0.0,4.5518,4.5282,4.5455,4.6148,4.7601,4.7966,4.8355,0.0,4.9822,5.0341,5.0341,5.0553,5.0707,5.0707,5.0707,5.0707,5.0707,5.0707,5.0707,5.0707,5.0707,5.0707,5.0707,5.0707,5.0707,5.0707,5.0707,5.0707,5.0707,5.0707,5.0707,5.0707,5.0707,5.0707,5.0707,5.0707,5.0707,5.0707,5.0707,5.0707,5.0707,5.0707,5.0707,5.0707,5.0707,5.0707,5.0707,5.0707,5.0793,5.0905,5.0988,5.1108,5.122,5.1363,5.1394,5.1394,5.1394,5.1394,5.1396,5.1404,5.1407,5.1393,5.1401,5.1404,5.1405,5.1406,5.1406,5.1406,5.1406,5.1406,5.1406,5.1406,5.1406,5.1406,5.1406,5.1406,5.1406,5.1406,5.1406,5.1406,5.1406,5.1406,5.1406,5.1406,5.1406,5.1405,5.1405,5.056,5.0125,5.0103,4.863,4.7825,4.7572,4.6711,4.6301,0.0,0.0,0.0,4.4005,0.0,0.0,0.0,0.0,4.4397,0.0,0.0,0.0,0.0,0.0,0.0,0.0,0.0,0.0,0.0,4.5071,4.5936,4.6831,4.762,4.8101,0.0,4.8933,4.9433,4.9433,5.0226,5.0707,5.0707,5.0707,5.0707,5.0707,5.0707,5.0707,5.0707,5.0707,5.0707,5.0707,5.0707,5.0707,5.0707,5.0707,5.0707,5.0707,5.0707,5.0707,5.0707,5.0707,5.0707,5.0707,5.0707,5.0707,5.0707,5.0707,5.0707,5.0707,5.0707,5.0707,5.0707,5.0707,5.0707,5.0707,5.0707,5.0793,5.0905,5.0988,5.1108,5.122,5.1363,5.1394,5.1394,5.1394,5.1394,5.1394,5.1394,5.1403,5.1409,5.1391,5.14,5.1405,5.1405,5.1406,5.1406,5.1406,5.1406,5.1406,5.1406,5.1406,5.1406,5.1406,5.1406,5.1406,5.1406,5.1406,5.1406,5.1406,5.1406,5.1406,5.1406,5.1406,5.1406,5.1405,5.0604,5.0153,5.0109,4.9204,4.8362,4.7582,4.6715,4.6301,0.0,0.0,4.4005,4.4005,0.0,0.0,0.0,0.0,0.0,0.0,0.0,0.0,0.0,0.0,0.0,0.0,0.0,0.0,0.0,4.5298,4.5706,4.5994,4.6797,4.7312,0.0,0.0,0.0,4.9394,5.0207,5.0707,5.0707,5.0707,5.0707,5.0707,5.0707,5.0707,5.0707,5.0707,5.0707,5.0707,5.0707,5.0707,5.0707,5.0707,5.0707,5.0707,5.0707,5.0707,5.0707,5.0707,5.0707,5.0707,5.0707,5.0707,5.0707,5.0707,5.0707,5.0707,5.0707,5.0707,5.0707,5.0707,5.0707,5.0707,5.0707,5.0811,5.0969,5.0993,5.1157,5.1334,5.139,5.1394,5.1394,5.1394,5.1394,5.1394,5.1394,5.1397,5.1402,5.1408,5.1394,5.1399,5.1404,5.1405,5.1406,5.1406,5.1406,5.1406,5.1406,5.1406,5.1406,5.1406,5.1406,5.1406,5.1406,5.1406,5.1406,5.1406,5.1406,5.1406,5.1406,5.1406,5.1406,5.1406,5.1132,5.0975,5.0954,5.009,4.9245,4.844,4.7579,4.6853,4.4544,4.4451,0.0,4.4079,4.4005,0.0,4.4005,0.0,4.4048,0.0,0.0,0.0,0.0,0.0,0.0,0.0,0.0,0.0,0.0,4.5429,4.5594,4.5594,4.6109,4.6432,0.0,4.7702,4.8625,4.8913,4.9745,5.0361,5.0668,5.0707,5.0707,5.0707,5.0707,5.0707,5.0707,5.0707,5.0707,5.0707,5.0707,5.0707,5.0707,5.0707,5.0707,5.0707,5.0707,5.0707,5.0707,5.0707,5.0707,5.0707,5.0707,5.0707,5.0707,5.0707,5.0707,5.0707,5.0707,5.0707,5.0707,5.0707,5.0707,5.0707,5.0707,5.0811,5.1024,5.1365,5.141,5.1412,5.1761,5.1629,5.1394,5.1394,5.1394,5.1394,5.1394,5.1394,5.1396,5.1403,5.1407,5.1393,5.14,5.1403,5.1405,5.1406,5.1406,5.1406,5.1406,5.1406,5.1406,5.1406,5.1406,5.1406,5.1406,5.1406,5.1406,5.1406,5.1406,5.1406,5.1406,5.1406,5.1543,5.1855,5.1562,5.1542,5.1855,5.0993,5.0149,4.9346,4.8465,4.7601]}]]